[[{"header":{"parameterUnit":"m.s-1","parameterCategory":1,"la1":31.0,"la2":29.5877,"lo1":-88.7671,"lo2":-86.6584,"dx":0.0162,"dy":0.0185,"nx":115,"ny":88,"refTime":"2022-12-04T18:00:00:Z","depth":0,"parameterNumber":2,"parameterNumberName":"U-component_of_WINDS"},"data":[0.0,0.0,0.0,0.0,0.0,0.0,0.0,0.0,0.0,0.0,0.0,0.0,0.0,0.0,0.0,0.0,0.0,0.0,0.0,0.0,0.0,0.0,0.0,0.0,0.0,0.0,0.0,0.0,0.0,0.0,0.0,0.0,0.0,0.0,0.0,0.0,0.0,0.0,0.0,0.0,0.0,0.0,0.0,0.0,0.0,0.0,0.0,0.0,0.0,0.0,0.0,0.0,0.0,0.0,0.0,0.0,0.0,0.0,0.0,0.0,0.0,0.0,0.0,0.0,0.0,0.0,0.0,0.0,0.0,0.0,0.0,0.0,0.0,0.0,0.0,0.0,0.0,0.0,0.0,0.0,0.0,0.0,0.0,0.0,0.0,0.0,0.0,0.0,0.0,0.0,0.0,0.0,0.0,0.0,0.0,0.0,0.0,0.0,0.0,0.0,0.0,0.0,0.0,0.0,0.0,0.0,0.0,0.0,0.0,0.0,0.0,0.0,0.0,0.0,0.0,0.0,0.0,0.0,0.0,0.0,0.0,0.0,0.0,0.0,0.0,0.0,0.0,0.0,0.0,0.0,0.0,0.0,0.0,0.0,0.0,0.0,0.0,0.0,0.0,0.0,0.0,0.0,0.0,0.0,0.0,0.0,0.0,0.0,0.0,0.0,0.0,0.0,0.0,0.0,0.0,0.0,0.0,0.0,0.0,0.0,0.0,0.0,0.0,0.0,0.0,0.0,0.0,0.0,0.0,0.0,0.0,0.0,0.0,0.0,0.0,0.0,0.0,0.0,0.0,0.0,0.0,0.0,0.0,0.0,0.0,0.0,0.0,0.0,0.0,0.0,0.0,0.0,0.0,0.0,0.0,0.0,0.0,0.0,0.0,0.0,0.0,0.0,0.0,0.0,0.0,0.0,0.0,0.0,0.0,0.0,0.0,0.0,0.0,0.0,0.0,0.0,0.0,0.0,0.0,0.0,0.0,0.0,0.0,0.0,0.0,0.0,0.0,0.0,0.0,0.0,0.0,0.0,0.0,0.0,0.0,0.0,0.0,0.0,0.0,0.0,0.0,0.0,0.0,0.0,0.0,0.0,0.0,0.0,0.0,0.0,0.0,0.0,0.0,0.0,0.0,0.0,0.0,0.0,0.0,0.0,0.0,0.0,0.0,0.0,0.0,0.0,0.0,0.0,0.0,0.0,0.0,0.0,0.0,0.0,0.0,0.0,0.0,0.0,0.0,0.0,0.0,0.0,0.0,0.0,0.0,0.0,0.0,0.0,0.0,0.0,0.0,0.0,0.0,0.0,0.0,0.0,0.0,0.0,0.0,0.0,0.0,0.0,0.0,0.0,0.0,0.0,0.0,0.0,0.0,0.0,0.0,0.0,0.0,0.0,0.0,0.0,0.0,0.0,0.0,0.0,0.0,0.0,0.0,0.0,0.0,0.0,0.0,0.0,0.0,0.0,0.0,0.0,0.0,0.0,0.0,0.0,0.0,0.0,0.0,0.0,0.0,0.0,0.0,0.0,0.0,0.0,0.0,0.0,0.0,0.0,0.0,0.0,0.0,0.0,0.0,0.0,0.0,0.0,0.0,0.0,0.0,0.0,0.0,0.0,0.0,0.0,0.0,0.0,0.0,0.0,0.0,0.0,0.0,0.0,0.0,0.0,0.0,0.0,0.0,0.0,0.0,0.0,0.0,0.0,0.0,0.0,0.0,0.0,0.0,0.0,0.0,0.0,0.0,0.0,0.0,0.0,0.0,0.0,0.0,0.0,0.0,0.0,0.0,0.0,0.0,0.0,0.0,0.0,0.0,0.0,0.0,0.0,0.0,0.0,0.0,0.0,0.0,0.0,0.0,0.0,0.0,0.0,0.0,0.0,0.0,0.0,0.0,0.0,0.0,0.0,0.0,0.0,0.0,0.0,0.0,0.0,0.0,0.0,0.0,0.0,0.0,0.0,0.0,0.0,0.0,0.0,0.0,0.0,0.0,0.0,0.0,0.0,0.0,0.0,0.0,0.0,0.0,0.0,0.0,0.0,0.0,0.0,0.0,0.0,0.0,0.0,0.0,0.0,0.0,0.0,0.0,0.0,0.0,0.0,0.0,0.0,0.0,0.0,0.0,0.0,0.0,0.0,0.0,0.0,0.0,0.0,0.0,0.0,0.0,0.0,0.0,0.0,0.0,0.0,0.0,0.0,0.0,0.0,0.0,0.0,0.0,0.0,0.0,0.0,0.0,0.0,0.0,0.0,0.0,0.0,0.0,0.0,0.0,0.0,0.0,0.0,0.0,0.0,0.0,0.0,0.0,0.0,0.0,0.0,0.0,0.0,0.0,0.0,0.0,0.0,0.0,0.0,0.0,0.0,0.0,0.0,0.0,0.0,0.0,0.0,0.0,0.0,0.0,0.0,0.0,0.0,0.0,0.0,0.0,0.0,0.0,0.0,0.0,0.0,0.0,0.0,0.0,0.0,0.0,0.0,0.0,0.0,0.0,0.0,0.0,0.0,0.0,0.0,0.0,0.0,0.0,0.0,0.0,0.0,0.0,0.0,0.0,0.0,0.0,0.0,0.0,0.0,0.0,0.0,0.0,0.0,0.0,0.0,0.0,0.0,0.0,0.0,0.0,0.0,0.0,0.0,0.0,0.0,0.0,0.0,0.0,0.0,0.0,0.0,0.0,0.0,0.0,0.0,0.0,0.0,0.0,0.0,0.0,0.0,0.0,0.0,0.0,0.0,0.0,0.0,0.0,0.0,0.0,0.0,0.0,0.0,0.0,0.0,0.0,0.0,0.0,0.0,0.0,0.0,0.0,0.0,0.0,0.0,0.0,0.0,0.0,0.0,0.0,0.0,0.0,0.0,0.0,0.0,0.0,0.0,0.0,0.0,0.0,0.0,0.0,0.0,0.0,0.0,0.0,0.0,0.0,0.0,0.0,0.0,0.0,0.0,0.0,0.0,0.0,0.0,0.0,0.0,0.0,0.0,0.0,0.0,0.0,0.0,0.0,0.0,0.0,0.0,0.0,0.0,0.0,0.0,0.0,0.0,0.0,0.0,0.0,0.0,0.0,0.0,0.0,0.0,0.0,0.0,0.0,0.0,0.0,0.0,0.0,0.0,0.0,0.0,0.0,0.0,0.0,0.0,0.0,0.0,0.0,0.0,0.0,0.0,0.0,0.0,0.0,0.0,0.0,0.0,0.0,0.0,0.0,0.0,0.0,0.0,0.0,0.0,0.0,0.0,0.0,0.0,0.0,0.0,0.0,0.0,0.0,0.0,0.0,0.0,0.0,0.0,0.0,0.0,0.0,0.0,0.0,0.0,0.0,0.0,0.0,0.0,0.0,0.0,0.0,0.0,0.0,0.0,0.0,0.0,0.0,0.0,0.0,0.0,0.0,0.0,0.0,0.0,0.0,0.0,0.0,0.0,0.0,0.0,0.0,0.0,0.0,0.0,0.0,0.0,0.0,0.0,0.0,0.0,0.0,0.0,0.0,0.0,0.0,0.0,0.0,0.0,0.0,0.0,0.0,0.0,0.0,0.0,0.0,0.0,0.0,0.0,0.0,0.0,0.0,0.0,0.0,0.0,0.0,0.0,0.0,0.0,0.0,0.0,0.0,0.0,0.0,0.0,0.0,0.0,0.0,0.0,0.0,0.0,0.0,0.0,0.0,0.0,0.0,0.0,0.0,0.0,0.0,0.0,0.0,0.0,0.0,0.0,0.0,0.0,0.0,0.0,0.0,0.0,0.0,0.0,0.0,0.0,0.0,0.0,0.0,0.0,0.0,0.0,0.0,0.0,0.0,0.0,0.0,0.0,0.0,0.0,0.0,0.0,0.0,0.0,0.0,0.0,0.0,0.0,0.0,0.0,0.0,0.0,0.0,0.0,0.0,0.0,0.0,0.0,0.0,0.0,0.0,0.0,0.0,0.0,0.0,0.0,0.0,0.0,0.0,0.0,0.0,0.0,0.0,0.0,0.0,0.0,0.0,0.0,0.0,0.0,0.0,0.0,0.0,0.0,0.0,0.0,0.0,0.0,0.0,0.0,0.0,0.0,0.0,0.0,0.0,0.0,0.0,0.0,0.0,0.0,0.0,0.0,0.0,0.0,0.0,0.0,0.0,0.0,0.0,0.0,0.0,0.0,0.0,0.0,0.0,0.0,0.0,0.0,0.0,0.0,0.0,0.0,0.0,0.0,0.0,0.0,0.0,0.0,0.0,0.0,0.0,0.0,0.0,0.0,0.0,0.0,0.0,0.0,-1.0032,0.0,0.0,0.0,-0.9984,0.0,0.0,0.0,0.0,0.0,0.0,0.0,0.0,0.0,0.0,0.0,0.0,0.0,0.0,0.0,0.0,0.0,0.0,0.0,0.0,0.0,0.0,0.0,0.0,0.0,0.0,0.0,0.0,0.0,0.0,0.0,0.0,0.0,0.0,0.0,0.0,0.0,0.0,0.0,0.0,0.0,0.0,0.0,0.0,0.0,0.0,0.0,0.0,0.0,0.0,0.0,0.0,0.0,0.0,0.0,0.0,0.0,0.0,0.0,0.0,0.0,0.0,0.0,0.0,0.0,0.0,0.0,0.0,0.0,0.0,0.0,0.0,0.0,0.0,0.0,0.0,0.0,0.0,0.0,0.0,0.0,0.0,0.0,0.0,0.0,0.0,0.0,0.0,0.0,0.0,0.0,0.0,0.0,0.0,0.0,0.0,0.0,0.0,0.0,0.0,0.0,0.0,0.0,0.0,0.0,0.0,0.0,0.0,0.0,0.0,-1.0069,-1.0108,-1.0108,-1.0085,-1.0033,0.0,0.0,0.0,0.0,0.0,0.0,0.0,0.0,0.0,0.0,0.0,0.0,0.0,0.0,0.0,0.0,0.0,0.0,0.0,0.0,0.0,0.0,0.0,0.0,0.0,0.0,0.0,0.0,0.0,0.0,0.0,0.0,0.0,0.0,0.0,0.0,0.0,0.0,0.0,0.0,0.0,0.0,0.0,0.0,0.0,0.0,0.0,0.0,0.0,0.0,0.0,0.0,0.0,0.0,0.0,0.0,0.0,0.0,0.0,0.0,0.0,0.0,0.0,0.0,0.0,0.0,0.0,0.0,0.0,0.0,0.0,0.0,0.0,0.0,0.0,0.0,0.0,0.0,0.0,0.0,0.0,0.0,0.0,0.0,0.0,0.0,0.0,0.0,0.0,0.0,0.0,0.0,0.0,0.0,0.0,0.0,0.0,0.0,0.0,0.0,0.0,0.0,0.0,0.0,0.0,0.0,0.0,0.0,0.0,0.0,0.0,0.0,-1.0111,-0.9933,-0.9512,0.0,0.0,0.0,0.0,0.0,0.0,0.0,0.0,0.0,0.0,0.0,0.0,0.0,0.0,0.0,0.0,0.0,0.0,0.0,0.0,0.0,0.0,0.0,0.0,0.0,0.0,0.0,0.0,0.0,0.0,0.0,0.0,0.0,0.0,0.0,0.0,0.0,0.0,0.0,0.0,0.0,0.0,0.0,0.0,0.0,0.0,0.0,0.0,0.0,0.0,0.0,0.0,0.0,0.0,0.0,0.0,0.0,0.0,0.0,0.0,0.0,0.0,0.0,0.0,0.0,0.0,0.0,0.0,0.0,0.0,0.0,0.0,0.0,0.0,0.0,0.0,0.0,0.0,0.0,0.0,0.0,0.0,0.0,0.0,0.0,0.0,0.0,0.0,0.0,0.0,0.0,0.0,0.0,0.0,0.0,0.0,0.0,0.0,0.0,0.0,0.0,0.0,0.0,0.0,0.0,0.0,0.0,0.0,0.0,0.0,-1.0201,-1.0193,-1.0191,0.0,-0.7945,0.0,0.0,0.0,0.0,0.0,0.0,0.0,0.0,0.0,0.0,0.0,0.0,0.0,0.0,0.0,0.0,0.0,0.0,0.0,0.0,0.0,0.0,0.0,0.0,0.0,0.0,0.0,0.0,0.0,0.0,0.0,0.0,0.0,0.0,0.0,0.0,0.0,0.0,0.0,0.0,0.0,0.0,0.0,0.0,0.0,0.0,0.0,0.0,0.0,0.0,0.0,0.0,0.0,0.0,0.0,0.0,0.0,0.0,0.0,0.0,0.0,0.0,0.0,0.0,0.0,0.0,0.0,0.0,0.0,0.0,0.0,0.0,0.0,0.0,0.0,0.0,0.0,0.0,0.0,0.0,0.0,0.0,0.0,0.0,0.0,0.0,0.0,0.0,0.0,0.0,0.0,0.0,0.0,0.0,0.0,0.0,0.0,0.0,0.0,0.0,0.0,0.0,0.0,0.0,0.0,0.0,0.0,0.0,0.0,0.0,-1.0191,-1.02,-1.0191,-0.9393,0.0,0.0,0.0,0.0,0.0,0.0,0.0,0.0,0.0,0.0,0.0,0.0,0.0,0.0,0.0,0.0,0.0,0.0,0.0,0.0,0.0,0.0,0.0,0.0,0.0,0.0,0.0,0.0,0.0,0.0,0.0,0.0,0.0,0.0,0.0,0.0,0.0,0.0,0.0,0.0,0.0,0.0,0.0,0.0,0.0,0.0,0.0,0.0,0.0,0.0,0.0,0.0,0.0,0.0,0.0,0.0,0.0,0.0,0.0,0.0,0.0,0.0,0.0,0.0,0.0,0.0,0.0,0.0,0.0,0.0,0.0,0.0,0.0,0.0,0.0,0.0,0.0,0.0,0.0,0.0,0.0,0.0,0.0,0.0,0.0,0.0,0.0,0.0,0.0,0.0,0.0,0.0,0.0,0.0,0.0,0.0,0.0,0.0,0.0,0.0,0.0,0.0,0.0,0.0,0.0,0.0,0.0,0.0,0.0,0.0,-1.0232,-1.0218,-1.0224,-1.0233,-0.9554,-0.8108,0.0,0.0,0.0,0.0,0.0,0.0,0.0,0.0,0.0,0.0,0.0,0.0,0.0,0.0,0.0,0.0,0.0,0.0,0.0,0.0,0.0,0.0,0.0,0.0,0.0,0.0,0.0,0.0,0.0,0.0,0.0,0.0,0.0,0.0,0.0,0.0,0.0,0.0,0.0,0.0,0.0,0.0,0.0,0.0,0.0,0.0,0.0,0.0,0.0,0.0,0.0,0.0,0.0,0.0,0.0,0.0,0.0,0.0,0.0,0.0,0.0,0.0,0.0,0.0,0.0,0.0,0.0,0.0,0.0,0.0,0.0,0.0,0.0,0.0,0.0,0.0,0.0,0.0,0.0,0.0,0.0,0.0,0.0,0.0,0.0,0.0,0.0,0.0,0.0,0.0,0.0,0.0,0.0,0.0,0.0,0.0,0.0,0.0,0.0,0.0,0.0,0.0,0.0,0.0,0.0,0.0,0.0,0.0,-1.0192,-1.0258,-1.0302,-1.0287,-1.0282,-0.9871,0.0,0.0,0.0,0.0,0.0,0.0,0.0,0.0,0.0,0.0,0.0,0.0,0.0,0.0,0.0,0.0,0.0,0.0,0.0,0.0,0.0,0.0,0.0,0.0,0.0,0.0,0.0,0.0,0.0,0.0,0.0,0.0,0.0,0.0,0.0,0.0,0.0,0.0,0.0,0.0,0.0,0.0,0.0,0.0,0.0,0.0,0.0,0.0,0.0,0.0,0.0,0.0,0.0,0.0,0.0,0.0,0.0,0.0,0.0,0.0,0.0,0.0,0.0,0.0,0.0,0.0,0.0,0.0,0.0,0.0,0.0,0.0,0.0,0.0,0.0,0.0,0.0,0.0,0.0,0.0,0.0,0.0,0.0,0.0,0.0,0.0,0.0,0.0,0.0,0.0,0.0,0.0,0.0,0.0,0.0,0.0,0.0,0.0,0.0,0.0,0.0,0.0,0.0,0.0,0.0,0.0,0.0,0.0,0.0,-1.0269,-1.0295,-1.0318,-1.032,-1.0316,-0.9903,0.0,0.0,0.0,0.0,0.0,0.0,0.0,0.0,0.0,0.0,0.0,0.0,0.0,0.0,0.0,0.0,0.0,0.0,0.0,0.0,0.0,0.0,0.0,0.0,0.0,0.0,0.0,0.0,0.0,0.0,0.0,0.0,0.0,0.0,0.0,0.0,0.0,0.0,0.0,0.0,0.0,0.0,0.0,0.0,0.0,0.0,0.0,0.0,0.0,0.0,0.0,0.0,0.0,0.0,0.0,0.0,0.0,0.0,0.0,0.0,0.0,0.0,0.0,0.0,0.0,0.0,0.0,0.0,0.0,0.0,0.0,0.0,0.0,0.0,0.0,0.0,0.0,0.0,0.0,0.0,0.0,0.0,0.0,0.0,0.0,0.0,0.0,0.0,0.0,0.0,0.0,0.0,0.0,0.0,0.0,0.0,0.0,0.0,0.0,0.0,0.0,0.0,0.0,0.0,0.0,0.0,0.0,0.0,0.0,-1.0303,-1.0308,-1.031,-1.031,-1.0307,-1.0031,0.0,0.0,0.0,0.0,0.0,0.0,0.0,0.0,0.0,0.0,0.0,0.0,0.0,0.0,0.0,0.0,0.0,0.0,0.0,0.0,0.0,0.0,0.0,0.0,0.0,0.0,0.0,0.0,0.0,0.0,0.0,0.0,0.0,0.0,0.0,0.0,0.0,0.0,0.0,0.0,0.0,0.0,0.0,0.0,0.0,0.0,0.0,0.0,0.0,0.0,0.0,0.0,0.0,0.0,0.0,0.0,0.0,0.0,0.0,0.0,0.0,0.0,0.0,0.0,0.0,0.0,0.0,0.0,0.0,0.0,0.0,0.0,0.0,0.0,0.0,0.0,0.0,0.0,0.0,0.0,0.0,0.0,0.0,0.0,0.0,0.0,0.0,0.0,0.0,0.0,0.0,0.0,0.0,0.0,0.0,0.0,0.0,0.0,0.0,0.0,0.0,0.0,0.0,0.0,0.0,0.0,0.0,0.0,-1.0324,-1.0312,-1.041,-1.0546,-1.037,-1.041,-1.037,0.0,0.0,0.0,0.0,0.0,0.0,0.0,0.0,0.0,0.0,0.0,0.0,0.0,0.0,0.0,0.0,0.0,0.0,0.0,0.0,0.0,0.0,0.0,0.0,0.0,0.0,0.0,0.0,0.0,0.0,0.0,0.0,0.0,0.0,0.0,0.0,0.0,0.0,0.0,0.0,0.0,0.0,0.0,0.0,0.0,0.0,0.0,0.0,0.0,0.0,0.0,0.0,0.0,0.0,0.0,0.0,0.0,0.0,0.0,0.0,0.0,0.0,0.0,0.0,0.0,0.0,0.0,0.0,0.0,0.0,0.0,0.0,0.0,0.0,0.0,0.0,0.0,0.0,0.0,0.0,0.0,0.0,0.0,0.0,0.0,0.0,0.0,0.0,0.0,0.0,0.0,0.0,0.0,0.0,0.0,0.0,0.0,0.0,0.0,0.0,0.0,0.0,0.0,0.0,0.0,0.0,0.0,0.0,0.0,-1.1167,-1.2889,-1.3528,-1.2933,-1.2333,-1.2025,0.0,0.0,0.0,0.0,0.0,0.0,0.0,0.0,0.0,0.0,0.0,0.0,0.0,0.0,0.0,0.0,0.0,0.0,0.0,0.0,0.0,0.0,0.0,0.0,0.0,0.0,0.0,0.0,0.0,0.0,0.0,0.0,0.0,0.0,0.0,0.0,0.0,0.0,0.0,0.0,0.0,0.0,0.0,0.0,0.0,0.0,0.0,0.0,0.0,0.0,0.0,0.0,0.0,0.0,0.0,0.0,0.0,0.0,0.0,0.0,0.0,0.0,0.0,0.0,0.0,0.0,0.0,0.0,0.0,0.0,0.0,0.0,0.0,0.0,0.0,0.0,0.0,0.0,0.0,0.0,0.0,0.0,0.0,0.0,0.0,0.0,0.0,0.0,0.0,0.0,0.0,0.0,0.0,0.0,0.0,0.0,0.0,0.0,0.0,0.0,0.0,0.0,0.0,0.0,0.0,0.0,0.0,0.0,0.0,-1.2957,-1.3884,-1.4137,-1.3603,-1.2754,-1.2318,-1.2276,0.0,0.0,0.0,0.0,0.0,0.0,0.0,0.0,0.0,0.0,0.0,0.0,0.0,0.0,0.0,0.0,0.0,0.0,0.0,0.0,0.0,0.0,0.0,0.0,0.0,0.0,0.0,0.0,0.0,0.0,0.0,0.0,0.0,0.0,0.0,0.0,0.0,0.0,0.0,0.0,0.0,0.0,0.0,0.0,0.0,0.0,0.0,0.0,0.0,0.0,0.0,0.0,0.0,0.0,0.0,0.0,0.0,0.0,0.0,0.0,0.0,0.0,0.0,0.0,0.0,0.0,0.0,0.0,0.0,0.0,0.0,0.0,0.0,0.0,0.0,0.0,0.0,0.0,0.0,0.0,0.0,0.0,0.0,0.0,0.0,0.0,0.0,0.0,0.0,0.0,0.0,0.0,0.0,0.0,0.0,0.0,0.0,0.0,0.0,0.0,0.0,0.0,0.0,0.0,0.0,0.0,0.0,0.0,-1.5499,-1.3891,-1.311,-1.3036,-1.2334,-1.1781,0.0,0.0,0.0,0.0,0.0,0.0,0.0,0.0,0.0,0.0,0.0,0.0,0.0,0.0,0.0,0.0,0.0,0.0,0.0,0.0,0.0,0.0,0.0,0.0,0.0,0.0,0.0,0.0,0.0,0.0,0.0,0.0,0.0,0.0,0.0,0.0,0.0,0.0,0.0,0.0,0.0,0.0,0.0,0.0,0.0,0.0,0.0,0.0,0.0,0.0,0.0,0.0,0.0,0.0,0.0,0.0,0.0,0.0,0.0,0.0,0.0,0.0,0.0,0.0,0.0,0.0,0.0,0.0,0.0,0.0,0.0,0.0,0.0,0.0,0.0,0.0,0.0,0.0,0.0,0.0,0.0,0.0,0.0,0.0,0.0,0.0,0.0,0.0,0.0,0.0,0.0,0.0,0.0,0.0,0.0,0.0,0.0,0.0,0.0,0.0,0.0,0.0,0.0,0.0,0.0,0.0,0.0,0.0,0.0,-1.7949,-1.7526,-1.7025,-1.6508,-1.6258,-1.5268,0.0,0.0,0.0,0.0,0.0,0.0,0.0,0.0,0.0,0.0,0.0,0.0,0.0,0.0,0.0,0.0,0.0,0.0,0.0,0.0,0.0,0.0,0.0,0.0,0.0,0.0,0.0,0.0,0.0,0.0,0.0,0.0,0.0,0.0,0.0,0.0,0.0,0.0,0.0,0.0,0.0,0.0,0.0,0.0,0.0,0.0,0.0,0.0,0.0,0.0,0.0,0.0,0.0,0.0,0.0,0.0,0.0,0.0,0.0,0.0,0.0,0.0,0.0,0.0,0.0,0.0,0.0,0.0,0.0,0.0,0.0,0.0,0.0,0.0,0.0,0.0,0.0,0.0,0.0,0.0,0.0,0.0,0.0,0.0,0.0,0.0,0.0,0.0,0.0,0.0,0.0,0.0,0.0,0.0,0.0,0.0,0.0,0.0,0.0,0.0,0.0,0.0,0.0,0.0,0.0,0.0,0.0,0.0,-1.8017,-1.9384,-2.003,-1.9816,-1.8735,-1.775,-1.6188,0.0,0.0,0.0,0.0,0.0,0.0,0.0,0.0,0.0,0.0,0.0,0.0,0.0,0.0,0.0,0.0,0.0,0.0,0.0,0.0,0.0,0.0,0.0,0.0,0.0,0.0,0.0,0.0,0.0,0.0,0.0,0.0,0.0,0.0,0.0,0.0,0.0,0.0,0.0,0.0,0.0,0.0,0.0,0.0,0.0,0.0,0.0,0.0,0.0,0.0,0.0,0.0,0.0,0.0,0.0,0.0,0.0,0.0,0.0,0.0,0.0,0.0,0.0,0.0,0.0,0.0,0.0,0.0,0.0,0.0,0.0,0.0,0.0,0.0,0.0,0.0,0.0,0.0,0.0,0.0,0.0,0.0,0.0,0.0,0.0,0.0,0.0,0.0,0.0,0.0,0.0,0.0,0.0,0.0,0.0,0.0,0.0,0.0,0.0,0.0,0.0,0.0,0.0,0.0,0.0,0.0,0.0,0.0,-1.9168,-2.0207,-2.1664,-2.1721,-2.024,-1.7984,-1.5942,0.0,0.0,0.0,0.0,0.0,0.0,0.0,0.0,0.0,0.0,0.0,0.0,0.0,0.0,0.0,0.0,0.0,0.0,0.0,0.0,0.0,0.0,0.0,0.0,0.0,0.0,0.0,0.0,0.0,0.0,0.0,0.0,0.0,0.0,0.0,0.0,0.0,0.0,0.0,0.0,0.0,0.0,0.0,0.0,0.0,0.0,0.0,0.0,0.0,0.0,0.0,0.0,0.0,0.0,0.0,0.0,0.0,0.0,0.0,0.0,0.0,0.0,0.0,0.0,0.0,0.0,0.0,0.0,0.0,0.0,0.0,0.0,0.0,0.0,0.0,0.0,0.0,0.0,0.0,0.0,0.0,0.0,0.0,0.0,0.0,0.0,0.0,0.0,0.0,0.0,0.0,0.0,0.0,0.0,0.0,0.0,0.0,0.0,0.0,0.0,0.0,0.0,0.0,0.0,0.0,0.0,0.0,0.0,-2.0189,-2.1552,-2.2661,-2.2754,-2.1758,-2.0144,-1.8221,0.0,0.0,0.0,0.0,0.0,0.0,0.0,0.0,0.0,0.0,0.0,0.0,0.0,0.0,0.0,0.0,0.0,0.0,0.0,0.0,0.0,0.0,0.0,0.0,0.0,0.0,0.0,0.0,0.0,0.0,0.0,0.0,0.0,0.0,0.0,0.0,0.0,0.0,0.0,0.0,0.0,0.0,0.0,0.0,0.0,0.0,0.0,0.0,-1.163,0.0,0.0,0.0,0.0,0.0,0.0,0.0,0.0,0.0,0.0,0.0,0.0,0.0,0.0,0.0,0.0,0.0,0.0,0.0,0.0,0.0,0.0,0.0,0.0,0.0,0.0,0.0,0.0,0.0,0.0,0.0,0.0,0.0,0.0,0.0,0.0,0.0,0.0,0.0,0.0,0.0,0.0,0.0,0.0,0.0,0.0,0.0,0.0,0.0,0.0,0.0,0.0,0.0,0.0,0.0,0.0,0.0,0.0,0.0,-2.1135,-2.1956,-2.3161,-2.3433,-2.266,-2.1543,-1.9666,0.0,0.0,0.0,0.0,0.0,0.0,0.0,0.0,0.0,0.0,0.0,0.0,0.0,0.0,0.0,0.0,0.0,0.0,0.0,0.0,0.0,0.0,0.0,0.0,0.0,0.0,0.0,0.0,0.0,0.0,0.0,0.0,0.0,0.0,0.0,0.0,0.0,0.0,0.0,0.0,0.0,0.0,0.0,0.0,0.0,0.0,0.0,0.0,0.0,0.0,0.0,0.0,0.0,0.0,0.0,0.0,0.0,0.0,0.0,0.0,0.0,0.0,0.0,0.0,0.0,0.0,0.0,0.0,0.0,0.0,0.0,0.0,0.0,0.0,0.0,0.0,0.0,0.0,0.0,0.0,0.0,0.0,0.0,0.0,0.0,0.0,0.0,0.0,0.0,0.0,0.0,0.0,0.0,0.0,0.0,0.0,0.0,0.0,0.0,0.0,0.0,0.0,0.0,0.0,0.0,0.0,0.0,-2.0303,-2.1844,-2.2402,-2.3493,-2.386,-2.3329,-2.2537,-2.0833,-1.8098,0.0,0.0,0.0,0.0,0.0,0.0,0.0,0.0,0.0,0.0,0.0,0.0,0.0,0.0,0.0,0.0,0.0,0.0,0.0,0.0,0.0,0.0,0.0,0.0,0.0,0.0,0.0,0.0,0.0,0.0,0.0,0.0,0.0,0.0,0.0,0.0,0.0,0.0,-0.8699,-1.2429,0.0,0.0,0.0,0.0,0.0,0.0,0.0,0.0,-1.4554,0.0,0.0,0.0,0.0,0.0,0.0,0.0,0.0,0.0,0.0,0.0,0.0,0.0,0.0,0.0,0.0,0.0,0.0,0.0,0.0,0.0,0.0,0.0,0.0,0.0,0.0,0.0,0.0,0.0,0.0,0.0,0.0,0.0,0.0,0.0,0.0,0.0,0.0,0.0,0.0,0.0,0.0,0.0,0.0,0.0,0.0,0.0,0.0,0.0,0.0,0.0,0.0,0.0,0.0,0.0,0.0,-1.9985,-2.048,-2.1954,-2.4416,-2.423,-2.4052,-2.3942,-2.3321,-2.2152,-2.032,0.0,0.0,0.0,0.0,0.0,0.0,0.0,0.0,0.0,0.0,0.0,0.0,0.0,0.0,0.0,0.0,0.0,0.0,0.0,0.0,0.0,0.0,0.0,0.0,0.0,0.0,0.0,0.0,0.0,0.0,0.0,0.0,0.0,0.0,0.0,0.0,0.0,0.0,0.0,-1.212,-1.415,0.0,0.0,0.0,0.0,0.0,0.0,0.0,0.0,-1.3956,0.0,0.0,0.0,0.0,0.0,0.0,0.0,0.0,0.0,0.0,0.0,0.0,0.0,0.0,0.0,0.0,0.0,0.0,0.0,0.0,0.0,0.0,0.0,0.0,0.0,0.0,0.0,0.0,0.0,0.0,0.0,0.0,0.0,0.0,0.0,0.0,0.0,0.0,0.0,0.0,0.0,0.0,0.0,0.0,0.0,0.0,0.0,0.0,0.0,0.0,0.0,0.0,0.0,0.0,0.0,-2.0341,-2.0882,-2.2172,-2.4324,-2.3735,-2.3757,-2.4538,-2.3931,-2.2874,0.0,0.0,0.0,0.0,0.0,0.0,0.0,0.0,0.0,0.0,0.0,0.0,0.0,0.0,0.0,0.0,0.0,0.0,0.0,0.0,0.0,0.0,0.0,0.0,0.0,0.0,0.0,0.0,0.0,0.0,0.0,0.0,0.0,0.0,0.0,0.0,0.0,0.0,0.0,0.0,-1.3472,-1.5179,-1.6347,0.0,0.0,0.0,0.0,0.0,0.0,-1.6928,-1.6233,0.0,0.0,0.0,0.0,0.0,0.0,0.0,0.0,0.0,0.0,0.0,0.0,0.0,0.0,0.0,0.0,0.0,0.0,0.0,0.0,0.0,0.0,0.0,0.0,0.0,0.0,0.0,0.0,0.0,0.0,0.0,0.0,0.0,0.0,0.0,0.0,0.0,0.0,0.0,0.0,0.0,0.0,0.0,0.0,0.0,0.0,0.0,0.0,0.0,0.0,0.0,0.0,0.0,0.0,0.0,-2.0615,-2.1243,-2.2432,-2.4204,-2.3288,-2.3513,-2.5153,-2.4384,-2.3249,0.0,0.0,0.0,0.0,0.0,0.0,0.0,0.0,0.0,0.0,0.0,0.0,0.0,0.0,0.0,0.0,0.0,0.0,0.0,0.0,0.0,0.0,0.0,0.0,0.0,0.0,0.0,0.0,0.0,0.0,0.0,0.0,0.0,0.0,0.0,0.0,0.0,0.0,0.0,0.0,0.0,-1.6756,-1.8165,-1.8448,0.0,0.0,0.0,0.0,-1.8707,-1.8788,0.0,0.0,0.0,0.0,0.0,0.0,0.0,0.0,0.0,0.0,0.0,0.0,0.0,0.0,0.0,0.0,0.0,0.0,0.0,0.0,0.0,0.0,0.0,0.0,0.0,0.0,0.0,0.0,0.0,0.0,0.0,0.0,0.0,0.0,0.0,0.0,0.0,0.0,0.0,0.0,0.0,0.0,0.0,0.0,0.0,0.0,0.0,0.0,0.0,0.0,0.0,0.0,0.0,0.0,0.0,0.0,-2.1279,-2.1255,-2.2699,-2.5649,-2.3821,-2.3767,-2.5968,-2.4717,-2.3306,0.0,0.0,0.0,0.0,0.0,0.0,0.0,0.0,0.0,0.0,0.0,0.0,0.0,0.0,0.0,0.0,0.0,0.0,0.0,0.0,0.0,0.0,0.0,0.0,0.0,0.0,0.0,0.0,0.0,0.0,0.0,0.0,0.0,0.0,0.0,0.0,0.0,0.0,0.0,0.0,0.0,-1.8042,-1.8875,-1.9452,-1.9524,0.0,0.0,0.0,-1.8717,-1.859,0.0,0.0,0.0,0.0,0.0,0.0,0.0,0.0,0.0,0.0,0.0,0.0,0.0,0.0,0.0,0.0,0.0,0.0,0.0,0.0,0.0,0.0,0.0,0.0,0.0,0.0,0.0,0.0,0.0,0.0,0.0,0.0,0.0,0.0,0.0,0.0,0.0,0.0,0.0,0.0,0.0,0.0,0.0,0.0,0.0,0.0,0.0,0.0,0.0,0.0,0.0,0.0,0.0,0.0,0.0,-1.7909,-2.178,-2.1683,-2.3211,-2.6446,-2.4356,-2.4118,-2.6156,-2.5125,-2.3664,0.0,0.0,0.0,0.0,0.0,0.0,0.0,0.0,0.0,0.0,0.0,0.0,0.0,0.0,0.0,0.0,0.0,0.0,0.0,0.0,0.0,0.0,0.0,0.0,0.0,0.0,0.0,0.0,0.0,0.0,0.0,0.0,0.0,0.0,0.0,0.0,0.0,0.0,0.0,0.0,0.0,0.0,-1.8628,-1.8954,0.0,0.0,0.0,-1.8794,-1.8894,0.0,0.0,0.0,0.0,0.0,0.0,0.0,0.0,0.0,0.0,0.0,0.0,0.0,0.0,0.0,0.0,0.0,0.0,0.0,0.0,0.0,0.0,0.0,0.0,0.0,0.0,0.0,0.0,0.0,0.0,0.0,0.0,0.0,0.0,0.0,0.0,0.0,0.0,0.0,0.0,0.0,0.0,0.0,0.0,0.0,0.0,0.0,0.0,0.0,0.0,0.0,0.0,0.0,0.0,0.0,0.0,0.0,-2.203,-2.1914,-2.3448,-2.6663,-2.458,-2.423,-2.5913,-2.5422,0.0,0.0,0.0,0.0,0.0,0.0,0.0,0.0,0.0,0.0,0.0,0.0,0.0,0.0,0.0,0.0,0.0,0.0,0.0,0.0,0.0,0.0,0.0,0.0,0.0,0.0,0.0,-1.0624,0.0,0.0,0.0,0.0,0.0,0.0,0.0,0.0,0.0,0.0,0.0,0.0,0.0,0.0,-1.8385,-1.8828,-1.9052,-1.9252,0.0,0.0,-1.8847,-1.8983,-1.8512,-1.7986,0.0,0.0,0.0,0.0,0.0,0.0,0.0,0.0,0.0,0.0,0.0,0.0,0.0,0.0,0.0,0.0,0.0,0.0,0.0,0.0,0.0,0.0,0.0,0.0,0.0,0.0,0.0,0.0,0.0,0.0,0.0,0.0,0.0,0.0,0.0,0.0,0.0,0.0,0.0,0.0,0.0,0.0,0.0,0.0,0.0,0.0,0.0,0.0,0.0,0.0,0.0,0.0,0.0,0.0,0.0,-2.1893,-2.1687,-2.3172,-2.6332,-2.4234,-2.3791,-2.5385,-2.5394,-2.4367,0.0,0.0,0.0,0.0,0.0,0.0,0.0,0.0,0.0,0.0,0.0,0.0,0.0,0.0,0.0,0.0,0.0,0.0,0.0,0.0,0.0,0.0,0.0,0.0,0.0,0.0,0.0,0.0,0.0,0.0,0.0,0.0,0.0,0.0,0.0,0.0,0.0,0.0,0.0,0.0,0.0,-1.9534,-2.0183,-2.069,-2.0773,0.0,0.0,-2.028,-1.9016,-1.872,-1.8379,-1.7548,0.0,0.0,0.0,0.0,0.0,0.0,0.0,0.0,0.0,0.0,0.0,0.0,0.0,0.0,0.0,0.0,0.0,0.0,0.0,0.0,0.0,0.0,0.0,0.0,0.0,0.0,0.0,0.0,0.0,0.0,0.0,0.0,0.0,0.0,0.0,0.0,0.0,0.0,0.0,0.0,0.0,0.0,0.0,0.0,0.0,0.0,0.0,0.0,0.0,0.0,0.0,0.0,0.0,-1.9365,-2.2312,-2.2579,-2.4053,-2.6729,-2.56,-2.5056,-2.5384,-2.5799,-2.4769,0.0,0.0,0.0,0.0,0.0,0.0,0.0,0.0,0.0,0.0,0.0,0.0,0.0,0.0,0.0,0.0,0.0,0.0,0.0,0.0,0.0,0.0,0.0,0.0,0.0,0.0,0.0,0.0,-1.6256,-1.6841,-1.6895,0.0,0.0,0.0,0.0,0.0,0.0,0.0,0.0,0.0,0.0,-1.9698,-2.0061,-2.0339,0.0,0.0,-2.051,-2.0246,-1.9635,-1.9211,-1.8781,-1.8288,-1.7834,0.0,0.0,0.0,0.0,0.0,0.0,0.0,0.0,0.0,0.0,0.0,0.0,0.0,0.0,0.0,0.0,0.0,0.0,0.0,0.0,0.0,0.0,0.0,0.0,0.0,0.0,0.0,0.0,0.0,0.0,0.0,0.0,0.0,0.0,0.0,0.0,0.0,0.0,0.0,0.0,0.0,0.0,0.0,0.0,0.0,0.0,0.0,0.0,0.0,0.0,0.0,0.0,-1.9993,-2.2853,-2.3238,-2.4581,-2.7019,-2.6332,-2.5786,-2.5493,-2.6125,-2.534,0.0,0.0,0.0,0.0,0.0,0.0,0.0,0.0,0.0,0.0,0.0,0.0,0.0,0.0,0.0,0.0,0.0,0.0,0.0,0.0,0.0,0.0,0.0,0.0,0.0,0.0,0.0,0.0,-1.7318,-1.7603,-1.6737,0.0,0.0,0.0,0.0,0.0,0.0,0.0,0.0,0.0,0.0,-1.9925,-2.043,-2.0527,-2.0783,-2.1402,-2.1182,-2.0863,-2.0607,-1.9985,-1.9399,-1.8951,0.0,0.0,0.0,0.0,0.0,0.0,0.0,0.0,0.0,0.0,0.0,0.0,0.0,0.0,0.0,0.0,0.0,0.0,0.0,0.0,0.0,0.0,0.0,0.0,0.0,0.0,0.0,0.0,0.0,0.0,-1.4389,0.0,0.0,0.0,0.0,0.0,0.0,0.0,0.0,0.0,0.0,0.0,0.0,0.0,0.0,0.0,0.0,0.0,0.0,0.0,0.0,0.0,0.0,-2.0715,-2.3499,-2.3485,-2.4492,-2.6623,-2.5981,-2.5625,-2.5607,-2.6318,-2.6044,-2.4637,0.0,0.0,0.0,0.0,0.0,0.0,0.0,0.0,0.0,0.0,0.0,0.0,0.0,0.0,0.0,0.0,0.0,0.0,0.0,0.0,0.0,0.0,0.0,0.0,0.0,0.0,-1.7491,-1.7666,-1.7263,0.0,0.0,0.0,0.0,0.0,0.0,0.0,0.0,0.0,0.0,-2.0026,-2.0305,-2.1638,-2.1673,-2.1823,-2.2661,-2.2679,-2.2438,-2.1902,-2.1121,-2.0262,0.0,0.0,0.0,0.0,0.0,0.0,0.0,0.0,0.0,0.0,0.0,0.0,0.0,0.0,0.0,0.0,0.0,0.0,0.0,0.0,0.0,0.0,0.0,0.0,0.0,0.0,0.0,-1.5526,-1.835,0.0,0.0,0.0,0.0,0.0,0.0,0.0,0.0,0.0,0.0,0.0,-2.0284,-2.0511,0.0,0.0,0.0,0.0,0.0,0.0,0.0,0.0,0.0,0.0,0.0,0.0,-2.1837,-2.3403,-2.4123,-2.5196,-2.664,-2.6454,-2.6099,-2.5609,-2.6319,-2.6079,-2.4739,0.0,0.0,0.0,0.0,0.0,0.0,0.0,0.0,0.0,0.0,0.0,0.0,0.0,0.0,0.0,0.0,0.0,0.0,0.0,0.0,0.0,0.0,0.0,0.0,0.0,-1.6857,0.0,0.0,0.0,0.0,0.0,0.0,0.0,0.0,0.0,0.0,0.0,-1.8529,-2.0114,-2.0644,-2.1097,-2.1738,-2.1744,-2.1793,0.0,0.0,0.0,0.0,0.0,0.0,0.0,0.0,0.0,0.0,0.0,0.0,0.0,0.0,-1.4136,-1.3216,-1.3136,-1.3014,-1.2402,0.0,0.0,0.0,0.0,0.0,0.0,0.0,0.0,0.0,0.0,0.0,0.0,0.0,0.0,0.0,0.0,-2.166,0.0,0.0,0.0,0.0,0.0,0.0,0.0,0.0,-2.268,-2.2367,-2.1975,-2.1949,-2.2207,0.0,-2.1292,-2.0195,0.0,0.0,0.0,0.0,0.0,0.0,0.0,0.0,-2.266,-2.3889,-2.463,-2.5426,-2.6247,-2.6419,-2.6269,-2.5799,-2.6371,-2.6165,-2.5038,-2.393,-2.247,0.0,0.0,0.0,0.0,0.0,0.0,0.0,0.0,0.0,0.0,0.0,0.0,0.0,0.0,0.0,0.0,0.0,0.0,0.0,0.0,0.0,0.0,0.0,-1.8268,0.0,0.0,0.0,0.0,0.0,0.0,0.0,0.0,0.0,-1.7747,-1.8709,-1.9704,-2.0562,-2.1214,-2.1743,-2.2083,0.0,0.0,0.0,0.0,0.0,0.0,0.0,-2.2352,-2.2074,-2.1613,-2.0843,-1.9544,-1.8173,-1.7167,-1.6977,0.0,0.0,-1.4062,-1.3714,-1.3513,-1.2934,-1.2921,-1.2953,-1.27,-1.2599,-1.2514,0.0,0.0,0.0,0.0,0.0,0.0,0.0,0.0,-1.9689,-2.2108,0.0,-2.4216,0.0,0.0,0.0,0.0,0.0,0.0,0.0,0.0,-2.2251,-2.1786,-2.2531,-2.2513,-2.2527,-2.2531,-2.1548,-2.158,-2.2546,-2.0522,0.0,0.0,0.0,0.0,0.0,0.0,-2.3216,-2.4891,-2.4991,-2.5198,-2.5594,-2.5924,-2.6087,-2.6087,-2.647,-2.6337,-2.5611,-2.5027,-2.4045,-2.2597,-2.0732,0.0,0.0,0.0,0.0,0.0,0.0,0.0,0.0,0.0,0.0,0.0,0.0,0.0,0.0,0.0,0.0,0.0,0.0,0.0,0.0,-1.8974,0.0,0.0,0.0,0.0,0.0,0.0,0.0,0.0,0.0,0.0,-1.9071,-1.9766,-2.0572,-2.135,0.0,0.0,0.0,0.0,-2.29,-2.3447,-2.3501,-2.3458,-2.3515,-2.3044,-2.2635,-2.2494,0.0,0.0,-1.9606,-1.9184,-1.8819,-1.8565,-1.8136,-1.7503,-1.5919,-1.5109,-1.474,-1.488,-1.467,-1.4338,-1.3724,-1.3691,-1.3657,-2.0541,0.0,0.0,0.0,0.0,-1.8749,-1.9428,-2.0177,-2.0755,-2.2373,-2.4655,-2.4101,0.0,0.0,0.0,0.0,0.0,0.0,-2.4441,-2.3993,-2.4113,-2.4078,-2.3867,-2.3833,-2.4112,-2.4573,-2.3259,-2.3063,-2.3802,-2.2255,-2.1433,-2.1358,0.0,0.0,0.0,0.0,-2.4425,-2.5965,-2.5612,-2.5793,-2.67,-2.6315,-2.5962,-2.5689,-2.6251,-2.6206,-2.5482,-2.5519,-2.493,-2.3541,-2.2289,0.0,0.0,0.0,0.0,0.0,0.0,0.0,0.0,0.0,0.0,0.0,0.0,0.0,0.0,0.0,0.0,0.0,0.0,0.0,-1.8794,-1.9433,-1.973,0.0,0.0,0.0,0.0,0.0,0.0,0.0,0.0,0.0,-2.0655,-2.0419,-2.0796,0.0,0.0,-2.294,-2.332,-2.3067,-2.2864,-2.295,0.0,0.0,0.0,-2.2378,-2.2255,-2.2156,-2.1324,-2.056,-2.0224,-1.9416,-1.875,-1.866,-1.8213,-1.7686,-1.728,-1.6492,-1.5626,-1.4695,-1.4535,-1.446,-1.3913,-1.3407,-1.3004,-2.2904,-2.2121,-2.1038,-2.0599,-2.0653,-2.1125,-2.1576,-2.2013,-2.2484,-2.3691,-2.5278,-2.4519,-2.4983,-2.6288,-2.6215,0.0,0.0,0.0,-2.4764,-2.4114,-2.4414,-2.436,-2.3974,-2.3958,-2.4202,-2.4558,-2.359,-2.3558,-2.4378,-2.3398,-2.3073,-2.334,0.0,0.0,-2.4307,-2.4758,-2.5627,-2.6858,-2.626,-2.6249,-2.6921,-2.6231,-2.5801,-2.576,-2.6409,-2.6569,-2.6127,-2.646,-2.6162,-2.5046,-2.3934,-2.248,0.0,0.0,0.0,0.0,0.0,0.0,0.0,0.0,0.0,0.0,0.0,-1.5228,-1.5826,0.0,0.0,0.0,-1.9532,-1.9828,-1.9782,-2.0045,0.0,0.0,0.0,0.0,0.0,0.0,0.0,-2.0162,-2.0897,-2.1584,-2.2109,-2.175,-2.1835,-2.2909,-2.3234,-2.3455,-2.3657,0.0,-2.2717,-2.2717,-2.2249,-2.1935,-2.1992,-2.2039,-2.1992,-2.1793,-2.123,-2.0569,-2.0098,-1.951,-1.899,-1.8586,-1.8325,-1.8025,-1.7594,-1.6953,-1.6247,-1.5105,-1.4784,-1.4528,-1.392,-1.3421,-1.303,-2.4558,-2.4267,-2.1785,-2.1421,-2.2462,-2.2465,-2.3224,-2.4474,-2.4491,-2.5501,-2.6989,-2.527,-2.5482,-2.7145,-2.5973,0.0,0.0,-2.4828,-2.4568,-2.4253,-2.3611,-2.3338,-2.3351,-2.3366,-2.3367,-2.3348,-2.304,-2.3394,-2.4312,-2.3926,-2.4263,-2.521,-2.4007,-2.4311,-2.6122,-2.6242,-2.6679,-2.7476,-2.6844,-2.646,-2.6451,-2.5869,-2.5698,-2.5997,-2.6774,-2.7137,-2.7075,-2.7487,-2.7449,-2.6725,-2.5416,-2.4062,-2.2729,0.0,0.0,0.0,0.0,0.0,0.0,0.0,0.0,0.0,0.0,0.0,0.0,0.0,0.0,0.0,-2.201,0.0,-2.0827,-2.072,0.0,0.0,0.0,-1.9321,-1.9131,-2.021,-2.0902,-2.0845,0.0,0.0,0.0,0.0,-2.3283,-2.3147,-2.3495,-2.376,-2.3696,-2.2942,-2.2503,-2.2526,-2.2086,-2.1712,-2.1664,-2.1746,-2.1722,-2.1385,-2.1104,-2.0495,-1.9671,-1.949,-1.9216,-1.832,-1.8471,-1.8432,-1.7296,-1.689,-1.6531,-1.6133,-1.5401,-1.4609,-1.4005,-1.3895,-1.3536,-2.5,-2.4455,-2.3803,-2.3687,-2.3983,-2.3968,-2.4169,-2.4491,-2.4508,-2.4771,-2.5137,-2.4374,-2.4414,-2.502,-2.4108,-2.3792,-2.396,-2.3619,-2.3412,-2.3354,-2.3413,-2.3577,-2.3835,-2.383,-2.383,-2.3814,-2.3749,-2.3856,-2.4066,-2.3537,-2.4189,-2.5843,-2.5185,-2.5284,-2.6238,-2.6039,-2.6495,-2.7627,-2.6695,-2.5895,-2.5346,-2.5644,-2.562,-2.5211,-2.6406,-2.6671,-2.5881,-2.6912,-2.7333,-2.6985,-2.538,-2.4594,-2.4871,-2.2487,0.0,0.0,0.0,0.0,0.0,0.0,0.0,0.0,0.0,-1.8513,-1.8336,0.0,-2.2231,0.0,-2.2417,-2.1926,-2.0367,-2.1164,0.0,0.0,-2.1802,-2.1955,-2.1778,-2.2005,-2.2306,-2.2676,-2.2972,-2.3377,-2.402,-2.3849,-2.3625,-2.3498,-2.3591,-2.3436,-2.2836,-2.2296,-2.1864,-2.1626,-2.1264,-2.0959,-2.0997,-2.0997,-2.0997,-2.0873,-2.0447,-1.994,-1.9475,-1.9056,-1.867,-1.8201,-1.8186,-1.812,-1.7847,-1.7363,-1.6918,-1.672,-1.5879,-1.511,-1.4974,-1.4455,-1.3704,-2.5845,-2.5489,-2.5489,-2.5472,-2.5455,-2.5118,-2.5185,-2.5472,-2.5489,-2.5376,-2.5162,-2.4293,-2.3953,-2.3978,-2.3368,-2.3203,-2.333,-2.341,-2.3443,-2.3462,-2.3631,-2.3825,-2.4003,-2.3982,-2.3982,-2.3982,-2.4046,-2.4082,-2.4073,-2.3774,-2.4367,-2.5768,-2.5459,-2.5799,-2.6732,-2.6891,-2.7419,-2.8308,-2.7624,-2.6718,-2.5683,-2.6118,-2.6108,-2.5596,-2.6883,-2.7396,-2.6933,-2.7534,-2.7833,-2.7692,-2.6198,-2.5411,-2.5592,-2.4096,-2.296,0.0,0.0,0.0,0.0,0.0,0.0,0.0,0.0,0.0,0.0,0.0,-2.2975,0.0,-2.3389,-2.2981,-2.1454,-2.1976,-2.2366,-2.2224,-2.2501,-2.2629,-2.2546,-2.2769,-2.3022,-2.3304,-2.3588,-2.3887,-2.4235,-2.4135,-2.3946,-2.3717,-2.3566,-2.3246,-2.2686,-2.2184,-2.1746,-2.1626,-2.118,-2.0799,-2.0699,-2.0511,-2.0372,-2.0346,-1.9901,-1.941,-1.8977,-1.8818,-1.8509,-1.7886,-1.7902,-1.7957,-1.7584,-1.714,-1.6758,-1.6371,-1.5768,-1.5245,-1.5098,-1.4323,-1.3425,-2.6657,-2.6708,-2.6708,-2.6708,-2.664,-2.6015,-2.6083,-2.6641,-2.6624,-2.6367,-2.5859,-2.4577,-2.3926,-2.3756,-2.3394,-2.3168,-2.3147,-2.373,-2.3982,-2.3982,-2.3982,-2.3982,-2.3982,-2.3961,-2.3961,-2.3961,-2.4194,-2.4282,-2.4267,-2.4449,-2.4875,-2.5542,-2.5558,-2.6226,-2.7503,-2.8104,-2.8574,-2.8902,-2.8658,-2.7869,-2.6531,-2.6889,-2.6894,-2.6486,-2.7694,-2.8464,-2.8679,-2.8494,-2.8412,-2.8422,-2.7117,-2.6168,-2.5798,-2.5662,-2.5083,0.0,-2.4023,0.0,0.0,0.0,0.0,0.0,0.0,0.0,0.0,-2.26,-2.2973,-2.3819,-2.4423,-2.4262,-2.3076,-2.2961,-2.2894,-2.2761,-2.2733,-2.2669,-2.2601,-2.3071,-2.3425,-2.3425,-2.3963,-2.4281,-2.4281,-2.4261,-2.4114,-2.3839,-2.3501,-2.3231,-2.2949,-2.2273,-2.1841,-2.2091,-2.1434,-2.081,-2.0674,-2.0321,-2.0029,-1.9965,-1.9618,-1.9016,-1.8441,-1.8575,-1.8452,-1.7551,-1.7611,-1.7694,-1.6976,-1.6712,-1.64,-1.5933,-1.5478,-1.5059,-1.4677,-1.4013,-1.313,-2.6402,-2.6708,-2.6708,-2.6708,-2.6691,-2.6556,-2.637,-2.6211,-2.621,-2.5799,-2.5102,-2.4776,-2.4447,-2.4112,-2.3926,-2.3764,-2.3679,-2.39,-2.3961,-2.3839,-2.3839,-2.3839,-2.3839,-2.3839,-2.3797,-2.3726,-2.447,-2.4771,-2.4684,-2.5467,-2.6168,-2.6826,-2.6949,-2.7411,-2.8181,0.0,0.0,0.0,-2.7727,-2.7216,-2.6423,-2.7312,-2.7525,-2.6999,-2.7778,0.0,-2.8062,-2.7831,-2.7907,-2.8257,-2.6475,0.0,0.0,0.0,0.0,0.0,0.0,0.0,0.0,0.0,0.0,0.0,-2.4275,-2.3646,-2.3342,-2.3993,-2.4395,-2.4383,-2.4436,-2.4189,-2.3462,-2.3863,-2.4021,-2.3702,-2.4118,-2.4323,-2.3978,-2.4025,-2.4117,-2.4117,-2.4241,-2.4281,-2.4281,-2.4073,-2.3882,-2.3839,-2.3501,-2.3297,-2.3253,-2.2426,-2.1783,-2.1544,-2.1019,-2.0611,-2.0674,-2.0283,-1.994,-1.994,-1.9656,-1.9093,-1.8467,-1.81,-1.7854,-1.7301,-1.7301,-1.7346,-1.7162,-1.6729,-1.635,-1.6056,-1.5488,-1.4902,-1.4401,-1.4052,-1.3541,-2.6522,0.0,-2.6487,-2.6401,0.0,-2.6192,-2.5872,-2.554,-2.5926,-2.5635,-2.4883,-2.4614,-2.44,-2.4202,-2.4124,-2.4024,-2.3903,-2.3903,-2.3861,-2.3782,-2.3717,-2.3717,-2.3717,-2.3717,-2.3674,-2.3625,-2.4497,-2.4895,-2.4955,-2.5765,-2.6566,-2.7302,-2.7372,-2.7719,-2.8381,-2.8411,-2.8266,-2.8007,-2.7936,-2.755,-2.6919,-2.7728,-2.7936,-2.7447,0.0,0.0,0.0,0.0,0.0,0.0,0.0,0.0,0.0,0.0,0.0,-2.6708,-2.6758,-2.6775,-2.6791,-2.6468,-2.6132,-2.59,-2.5396,-2.4813,-2.4274,-2.5012,-2.5275,-2.4746,-2.4649,-2.4445,-2.398,-2.4195,-2.4304,-2.4155,-2.4396,-2.4513,-2.4343,-2.4281,-2.4281,-2.4281,-2.4281,-2.4281,-2.4281,-2.4156,-2.4073,-2.403,-2.376,-2.356,-2.3473,-2.2799,-2.2109,-2.1664,-2.1215,-2.0822,-2.0561,-2.0067,-1.9708,-1.9656,-1.916,-1.8759,-1.8598,-1.8193,-1.7838,-1.7673,-1.7634,-1.7606,-1.744,-1.719,-1.6758,-1.596,-1.5449,-1.4804,-1.3902,-1.3692,-1.3571,-2.6487,-2.6453,-2.6139,-2.598,-2.5979,-2.5633,-2.5275,-2.4942,0.0,0.0,0.0,-2.438,-2.4202,-2.4202,-2.4145,-2.4082,-2.4019,-2.3897,-2.3861,-2.3861,-2.376,-2.3717,-2.3717,-2.3831,-2.3876,-2.3884,-2.4799,-2.5319,-2.5431,-2.6199,-2.6919,-2.7534,-2.758,-2.7857,-2.8365,-2.8411,-2.8411,-2.8411,-2.8411,-2.8134,-2.7611,-2.8119,-2.8215,-2.7875,-2.8404,-2.8748,-2.884,-2.787,-2.7222,-2.6978,-2.6377,-2.603,-2.6008,-2.6516,-2.6826,-2.6877,-2.7029,-2.7097,-2.7097,-2.6979,-2.6707,-2.6228,-2.5908,-2.5517,-2.5016,-2.5543,-2.5615,-2.4962,-2.4902,-2.4784,-2.4517,-2.4497,-2.4472,-2.4426,-2.4405,-2.4405,-2.4317,-2.4281,-2.4281,-2.4281,-2.4281,-2.4281,-2.4281,-2.4281,-2.4281,-2.4261,-2.4051,-2.3846,-2.3717,-2.3135,-2.2466,-2.1969,-2.1482,-2.1068,-2.0598,-2.0003,-1.9539,-1.9539,-1.8975,-1.856,-1.8664,-1.8476,-1.822,-1.8057,-1.8084,-1.7975,-1.781,-1.7606,-1.7123,-1.5748,-1.5352,-1.4874,-1.3541,-1.3307,-1.3351,-2.5672,-2.567,-2.5598,-2.5577,-2.5577,-2.5521,-2.5275,-2.4883,-2.4659,-2.4492,-2.4385,-2.425,-2.4202,-2.4166,-2.3961,-2.3903,-2.3982,-2.3982,-2.4024,0.0,-2.4124,-2.4103,-2.4139,-2.4719,-2.4913,-2.4938,-2.6306,-2.6987,-2.6987,-2.7694,-2.8141,-2.8242,-2.8273,-2.8304,-2.8396,-2.8411,-2.8411,-2.8411,-2.8411,-2.8365,-2.8273,-2.8365,-2.8438,-2.8497,-2.8559,-2.8373,-2.792,-2.7846,-2.729,-2.6235,-2.6434,-2.6409,-2.6074,-2.695,-2.7567,-2.7689,-2.8298,-2.8671,-2.8637,-2.8044,-2.735,-2.6691,-2.6556,-2.6055,-2.5032,-2.5015,-2.504,-2.4902,-2.4883,-2.504,-2.5275,-2.5275,-2.5102,-2.4839,-2.4803,-2.4679,-2.4343,-2.4281,-2.4281,-2.4281,-2.4281,-2.4281,-2.4281,-2.4281,-2.4281,-2.4281,-2.4219,-2.4114,-2.3803,-2.3179,-2.2626,-2.2189,-2.1455,-2.0957,-2.0847,-2.0359,-1.9978,-1.9901,-1.9773,-1.9384,-1.8972,-1.8771,-1.8572,-1.8166,-1.8139,-1.8111,-1.803,-1.7584,-1.6961,-1.5997,-1.5478,-1.4708,-1.3713,-1.3541,-1.3359,-2.5519,-2.5465,-2.5256,-2.516,-2.516,-2.4942,-2.4759,-2.4574,-2.4385,-2.4281,-2.4297,-2.4229,-2.4223,-2.4234,-2.4114,-2.4094,-2.4172,-2.4124,-2.4103,-2.4103,-2.4003,-2.418,-2.4529,-2.4832,-2.5144,-2.5478,-2.6595,-2.7154,-2.7191,-2.7889,-2.8323,-2.8411,-2.8411,-2.8411,-2.8411,-2.8411,-2.8411,-2.8411,-2.8411,-2.8411,-2.8411,-2.8411,-2.842,-2.8508,-2.8493,-2.8295,-2.787,-2.7576,-2.7268,-2.6947,-2.6558,-2.6451,-2.666,-2.6988,-2.7181,-2.7198,-2.7554,-2.7757,-2.7774,-2.7193,-2.6735,-2.6401,-2.6175,-2.5852,-2.5275,-2.5234,-2.504,-2.4619,-2.4578,-2.4639,-2.4823,-2.4843,-2.4764,-2.4599,-2.4574,-2.4492,-2.4343,-2.4281,-2.4281,-2.4281,-2.4281,-2.4281,-2.4281,-2.4281,-2.4281,-2.4281,-2.4281,-2.4219,-2.4057,-2.3638,-2.3201,-2.2844,-2.2151,-2.1609,-2.1393,-2.0832,-2.0421,-2.0232,-2.0016,-1.9798,-1.9448,-1.9303,-1.8946,-1.8572,-1.8476,-1.8367,-1.8166,-1.7881,-1.7335,-1.6652,-1.5987,-1.5255,-1.4501,-1.4013,-1.3549,-2.5313,-2.5179,-2.4902,-2.4744,-2.4739,-2.4446,-2.4281,-2.4281,-2.4281,-2.4281,-2.4297,-2.4234,-2.4234,-2.4281,-2.4297,-2.4297,-2.4281,-2.4193,-2.4124,-2.4024,-2.3903,-2.4208,-2.4828,-2.4994,-2.5432,-2.6097,-2.6858,-2.7224,-2.7309,-2.7878,-2.8275,-2.8411,-2.8411,-2.8411,-2.8411,-2.8411,-2.8411,-2.8411,-2.8411,-2.8411,-2.8411,-2.8411,-2.8411,-2.8411,-2.8411,-2.8216,-2.7863,-2.7447,-2.7243,-2.7251,-2.6686,-2.6535,-2.6901,-2.6789,-2.6708,-2.6708,-2.6708,-2.6708,-2.6674,-2.6419,-2.6176,-2.6104,-2.5817,-2.5559,-2.5389,-2.5446,-2.5198,-2.4558,-2.4451,-2.4446,-2.4364,-2.4323,-2.4281,-2.4281,-2.4281,-2.4302,-2.4281,-2.4281,-2.4281,-2.4281,-2.4281,-2.4281,-2.4281,-2.4281,-2.4281,-2.4281,-2.4281,-2.4281,-2.4261,-2.4073,-2.3818,-2.348,-2.2897,-2.2337,-2.1969,-2.1489,-2.1042,-2.0759,-2.0459,-2.0258,-2.008,-1.9785,-1.9382,-1.8958,-1.8771,-1.8583,-1.822,-1.8084,-1.7744,-1.7084,-1.6567,-1.6016,-1.5021,-1.4371,-1.383,-2.4759,-2.4426,-2.4385,-2.4364,-2.4364,-2.4317,-2.4281,-2.4281,-2.4281,-2.4281,-2.4281,-2.4297,-2.4297,-2.4297,-2.425,-2.4234,-2.4276,-2.4109,-2.4082,-2.4176,-2.4061,-2.4346,-2.506,-2.5606,-2.6244,-2.6903,-2.7555,-2.7853,-2.7877,-2.8091,-2.8259,-2.8411,-2.8411,-2.8411,-2.8411,-2.8411,-2.8411,-2.8411,-2.8411,-2.8411,-2.8411,-2.8411,-2.8411,-2.8411,-2.8411,-2.8112,-2.7496,-2.7739,-2.7324,-2.6265,-2.6694,-2.6746,-2.6355,-2.6538,-2.6708,-2.6725,-2.6708,-2.6708,-2.6725,-2.6674,-2.6521,-2.6157,-2.6187,-2.5811,-2.5169,-2.5365,-2.5349,-2.4942,-2.4843,-2.4659,-2.4343,-2.4302,-2.4281,-2.4281,-2.4281,-2.4281,-2.4281,-2.4281,-2.4281,-2.4281,-2.4281,-2.4281,-2.4281,-2.4281,-2.4281,-2.4281,-2.4281,-2.4281,-2.4281,-2.424,-2.4198,-2.403,-2.3443,-2.2897,-2.2717,-2.2296,-2.1921,-2.1803,-2.1506,-2.1055,-2.0635,-2.0359,-2.0042,-1.9382,-1.8905,-1.8759,-1.8383,-1.8084,-1.7854,-1.7401,-1.6944,-1.6472,-1.5264,-1.449,-1.3971,-2.4467,-2.4281,-2.4281,-2.4281,-2.4281,-2.4281,-2.4281,-2.4281,-2.4281,-2.4281,-2.4281,-2.4281,-2.4281,-2.4281,-2.4276,-2.4271,-2.4229,-2.4145,-2.4289,-2.4516,-2.4502,-2.5039,-2.6022,-2.6332,-2.687,-2.7564,-2.7942,-2.8113,-2.8152,-2.8235,-2.8348,-2.8411,-2.8411,-2.8411,-2.8411,-2.8411,-2.8411,-2.8411,-2.8677,-2.8677,-2.842,-2.8411,-2.8411,-2.8411,-2.8411,-2.8015,-2.7288,-2.7331,-2.7179,-2.6695,-2.658,-2.6708,-2.709,-2.7264,-2.7351,-2.7368,-2.7368,-2.7571,-2.801,-2.7621,-2.7484,-2.7798,-2.7813,-2.7484,-2.6726,-2.6768,-2.6438,-2.5432,-2.504,-2.4819,-2.4659,-2.4431,-2.4281,-2.4281,-2.4281,-2.4281,-2.4281,-2.4281,-2.4281,-2.4281,-2.4281,-2.4281,-2.4281,-2.4281,-2.4281,-2.4281,-2.4281,-2.4281,-2.4281,-2.4281,-2.4281,-2.4261,-2.3931,-2.3659,-2.3443,-2.3068,-2.2731,-2.2503,-2.2203,-2.1742,-2.1444,-2.1118,-2.0747,-2.0055,-1.9682,-1.9317,-1.8989,-1.8575,-1.8236,-1.7788,-1.724,-1.6726,-1.5439,-1.4991,-1.4588,-2.4281,-2.4281,-2.4281,-2.4281,-2.4281,-2.4281,-2.4281,-2.4281,-2.4281,-2.4281,-2.4281,-2.4281,-2.4281,-2.4333,-2.4502,-2.4531,-2.4462,-2.4618,-2.4839,-2.5055,-2.5025,-2.5664,-2.672,-2.6796,-2.7231,-2.7913,-2.8088,-2.8162,-2.821,-2.8299,-2.8348,-2.8411,-2.8411,-2.8411,-2.8411,-2.8411,-2.8468,-2.8621,-2.8928,-2.8997,-2.8787,-2.8584,-2.8513,-2.8574,-2.8513,-2.8166,-2.7503,-2.7179,-2.7078,-2.7158,-2.6575,-2.6636,-2.7435,-2.7672,-2.7891,-2.8094,-2.8128,-2.8263,-2.8653,-2.8129,-2.7907,-2.8156,-2.8205,-2.7898,-2.7374,-2.7258,-2.6847,-2.5877,-2.5389,-2.516,-2.4719,-2.4472,-2.4302,-2.4281,-2.4281,-2.4281,-2.4281,-2.4281,-2.4281,-2.4281,-2.4281,-2.4281,-2.4281,-2.4281,-2.4281,-2.4281,-2.4281,-2.4281,-2.4281,-2.4281,-2.4281,-2.4281,-2.4281,-2.4177,-2.3967,-2.3631,-2.337,-2.3172,-2.2844,-2.2466,-2.218,-2.1817,-2.1337,-2.0608,-2.0283,-1.9837,-1.9293,-1.891,-1.856,-1.8302,-1.7788,-1.7034,-1.6187,-1.5748,-1.5206,-2.4281,-2.4302,-2.4281,-2.4281,-2.4281,-2.4281,-2.4281,-2.4281,-2.4281,-2.4281,-2.4281,-2.4281,-2.4281,-2.4343,-2.4979,-2.5192,-2.5092,-2.5507,-2.5713,-2.5711,-2.5601,-2.6015,-2.6766,-2.6811,-2.7246,-2.7949,-2.8005,-2.8079,-2.821,-2.821,-2.8259,-2.8372,-2.8411,-2.8411,-2.8411,-2.8411,-2.8621,-2.8943,-2.9004,-2.921,-2.9482,-2.8984,-2.8762,-2.8898,-2.882,-2.8613,-2.8408,-2.7611,-2.7102,-2.709,-2.6786,-2.6691,-2.6826,-2.7418,-2.8129,-2.8772,-2.8908,-2.8602,-2.8094,-2.7976,-2.7599,-2.6712,-2.6893,-2.628,-2.6362,-2.6566,-2.654,-2.6118,-2.6061,-2.564,-2.4639,-2.4431,-2.4343,-2.4343,-2.4317,-2.4281,-2.4281,-2.4281,-2.4281,-2.4281,-2.4281,-2.4281,-2.4281,-2.4281,-2.4281,-2.4281,-2.4281,-2.4281,-2.4281,-2.4281,-2.4281,-2.4281,-2.4281,-2.4281,-2.4255,-2.4009,-2.3803,-2.3631,-2.337,-2.3046,-2.2603,-2.2165,-2.1657,-2.1126,-2.0608,-2.008,-1.9501,-1.9042,-1.8667,-1.8344,-1.7979,-1.7313,-1.6894,-1.6044,-1.5517,-2.4679,-2.4659,-2.4405,-2.4281,-2.4281,-2.4281,-2.4281,-2.4281,-2.4281,-2.4281,-2.4281,-2.4281,-2.4281,-2.4379,-2.5503,-2.5415,-2.4517,-2.4978,-2.5425,-2.5786,-2.609,-2.666,-2.7359,-2.7355,-2.7549,-2.791,-2.798,-2.8118,-2.8299,-2.8323,-2.8348,-2.8411,-2.8411,-2.8411,-2.8411,-2.8411,-2.8493,-2.8606,-2.8542,-2.8419,-2.8404,-2.8417,-2.8433,-2.8239,-2.8522,-2.8267,-2.7304,-2.7404,-2.7191,-2.6482,-2.6361,-2.6436,-2.6742,-2.7402,-2.8162,-2.8891,-2.8993,-2.9059,-2.9244,-2.9261,-2.9342,-2.9398,-2.9362,-2.8969,-2.8605,-2.8528,-2.8176,-2.7156,-2.68,-2.6283,-2.5333,-2.4859,-2.4679,-2.4675,-2.4467,-2.4369,-2.4281,-2.4281,-2.4281,-2.4281,-2.4281,-2.4281,-2.4281,-2.4281,-2.4281,-2.4281,-2.4281,-2.4281,-2.4281,-2.4281,-2.4281,-2.4281,-2.4281,-2.4281,-2.4281,-2.4219,-2.4078,-2.403,-2.3839,-2.361,-2.3246,-2.2762,-2.2267,-2.1941,-2.1307,-2.0559,-2.0055,-1.9291,-1.8907,-1.8598,-1.8197,-1.7913,-1.76,-1.681,-1.6216,-2.4699,-2.4659,-2.4426,-2.4281,-2.4281,-2.4281,-2.4281,-2.4281,-2.4281,-2.4281,-2.4281,-2.4281,-2.4281,-2.4466,-2.549,-2.5485,-2.4585,-2.5417,-2.6121,-2.6458,-2.6829,-2.7279,-2.7715,-2.7765,-2.7865,-2.8054,-2.8103,-2.8226,-2.8387,-2.8411,-2.8411,-2.8411,-2.8411,-2.8411,-2.8411,-2.8411,-2.8444,-2.8575,-2.8699,-2.8572,-2.8282,-2.859,-2.8628,-2.8368,-2.8706,-2.831,-2.6984,-2.7232,-2.7085,-2.6428,-2.6298,-2.6519,-2.7029,-2.7519,-2.8162,-2.8891,-2.8993,-2.9094,-2.9328,-2.96,-2.982,-3.0074,-3.0328,-3.0243,-2.9786,-2.9753,-2.9048,-2.8107,-2.7766,-2.7387,-2.6798,-2.6308,-2.5885,-2.5584,-2.542,-2.5243,-2.4891,-2.4875,-2.4684,-2.4369,-2.4281,-2.4281,-2.4281,-2.4281,-2.4281,-2.4281,-2.4281,-2.4281,-2.4281,-2.4281,-2.4281,-2.4281,-2.4281,-2.4281,-2.4281,-2.424,-2.4219,-2.4156,-2.4135,-2.3988,-2.3739,-2.329,-2.2934,-2.2649,-2.2072,-2.1286,-2.051,-1.9694,-1.9249,-1.8955,-1.8652,-1.836,-1.8023,-1.7628,-1.7017,-2.4323,-2.4349,-2.4302,-2.4281,-2.4281,-2.4281,-2.4281,-2.4281,-2.4281,-2.4281,-2.4281,-2.4281,-2.4281,-2.4451,-2.5047,-2.5212,-2.5533,-2.6963,-2.7652,-2.7554,-2.7655,-2.773,-2.7815,-2.7905,-2.8029,-2.8186,-2.8323,-2.8387,-2.8411,-2.8411,-2.8411,-2.8411,-2.8411,-2.8411,-2.8411,-2.8482,-2.8707,-2.9108,-2.9595,-2.9805,-2.9808,-2.954,-2.9352,-2.9217,-2.9281,-2.8824,-2.782,-2.7265,-2.7011,-2.6809,-2.6809,-2.7097,-2.7722,-2.7891,-2.8179,-2.8874,-2.9044,-2.8721,-2.8244,-2.892,-2.922,-2.8874,-2.8884,-2.9467,-2.9313,-2.92,-2.9014,-2.8572,-2.8641,-2.8694,-2.8518,-2.8253,-2.7712,-2.6916,-2.7053,-2.6953,-2.6204,-2.5939,-2.5534,-2.456,-2.4281,-2.4281,-2.4281,-2.4281,-2.4281,-2.4281,-2.4281,-2.4281,-2.4281,-2.4281,-2.4281,-2.4281,-2.4281,-2.4281,-2.4281,-2.4281,-2.4281,-2.4281,-2.4261,-2.4177,-2.3967,-2.361,-2.3334,-2.3038,-2.2615,-2.1845,-2.1426,-2.0642,-1.9915,-1.9572,-1.9197,-1.8908,-1.8491,-1.8139,-1.7767,-2.4451,-2.4659,-2.4426,-2.4281,-2.4281,-2.4281,-2.4281,-2.4281,-2.4281,-2.4281,-2.4281,-2.4281,-2.4281,-2.4435,-2.4983,-2.5551,-2.6104,-2.7141,-2.7514,-2.7358,-2.754,-2.7725,-2.779,-2.7855,-2.7989,-2.8186,-2.8323,-2.8411,-2.8411,-2.8411,-2.8411,-2.8411,-2.8411,-2.8411,-2.8458,-2.8842,-2.9344,-2.9761,-2.954,-2.9539,-2.9745,-2.919,-2.8784,-2.8743,-2.8977,-2.8949,-2.867,-2.889,-2.8626,-2.7848,-2.8121,-2.84,-2.8587,-2.8619,-2.8756,-2.9077,-3.0008,-3.0255,-2.9842,-3.0651,-3.1007,-3.068,-3.0724,-3.0402,-2.9711,-2.9518,-2.8882,-2.7816,-2.7797,-2.7941,-2.7541,-2.815,-2.831,-2.7885,-2.7803,-2.7542,-2.6611,-2.5755,-2.5026,-2.4446,-2.4281,-2.4281,-2.4281,-2.4281,-2.4281,-2.4281,-2.4281,-2.4281,-2.4281,-2.4281,-2.4281,-2.4281,-2.4281,-2.4281,-2.4281,-2.4281,-2.4281,-2.4281,-2.4281,-2.4281,-2.4114,-2.3882,-2.3631,-2.3282,-2.2864,-2.2505,-2.2089,-2.1655,-2.0975,-2.0455,-2.0259,-1.9782,-1.9099,-1.8689,-1.8384,-2.4451,-2.4639,-2.4405,-2.4281,-2.4281,-2.4281,-2.4281,-2.4281,-2.4281,-2.4281,-2.4281,-2.4281,-2.4281,-2.442,-2.4989,-2.5549,-2.6041,-2.668,-2.701,-2.7144,-2.7606,-2.785,-2.7905,-2.794,-2.8063,-2.825,-2.8363,-2.8411,-2.8411,-2.8411,-2.8411,-2.8427,-2.8633,-2.8796,-2.8852,-2.9636,-3.0165,-3.0157,-3.0155,-3.0057,-2.9837,-2.9475,-2.9259,-2.9224,-2.9426,-2.9542,-2.9612,-3.0184,-2.9907,-2.8879,-2.8864,-2.8993,-2.8993,-2.8976,-2.8938,-2.894,-2.947,-2.9846,-2.9588,-3.0215,-3.1023,-3.0742,-3.0907,-3.072,-2.9955,-2.9793,-2.9049,-2.8174,-2.8519,-2.8445,-2.7802,-2.838,-2.8888,-2.8566,-2.8779,-2.8318,-2.7356,-2.5986,-2.5045,-2.4659,-2.4533,-2.4451,-2.4343,-2.4281,-2.4281,-2.4281,-2.4281,-2.4281,-2.4281,-2.4281,-2.4281,-2.4281,-2.4281,-2.4281,-2.4281,-2.4281,-2.4281,-2.4281,-2.4281,-2.4281,-2.4219,-2.3946,-2.3674,-2.3289,-2.2874,-2.2734,-2.2373,-2.26,-2.226,-2.1843,-2.1242,-2.0646,-1.9998,-1.949,-1.9104,-2.4302,-2.4281,-2.4281,-2.4281,-2.4281,-2.4281,-2.4281,-2.4281,-2.4281,-2.4281,-2.4281,-2.4281,-2.4343,-2.4497,-2.505,-2.5419,-2.5573,-2.6198,-2.6857,-2.7345,-2.7847,-2.8088,-2.8044,-2.8113,-2.8226,-2.8348,-2.8387,-2.8411,-2.8411,-2.8411,-2.8442,-2.8581,-2.9073,-2.9443,-2.9641,-3.062,-3.0939,-3.0728,-3.1371,-3.119,-3.0277,-3.0467,-3.0642,-3.0443,-3.0455,-3.0459,-3.0519,-3.0847,-3.0514,-2.9347,-2.9296,-2.9348,-2.9196,-2.9128,-2.9097,-2.8824,-2.8575,-2.8695,-2.8298,-2.9242,-2.9496,-2.95,-2.9878,-2.9754,-2.9653,-2.9512,-2.9319,-2.8978,-2.9647,-2.9788,-2.8866,-2.9215,-2.9291,-2.8978,-2.9214,-2.9176,-2.8406,-2.6608,-2.5349,-2.5001,-2.4902,-2.4744,-2.4405,-2.4364,-2.4281,-2.4281,-2.4281,-2.4281,-2.4281,-2.4281,-2.4281,-2.4281,-2.4281,-2.4281,-2.4281,-2.4281,-2.4281,-2.4281,-2.4281,-2.4281,-2.424,-2.3988,-2.3833,-2.3427,-2.3068,-2.2929,-2.3061,-2.3368,-2.3218,-2.2655,-2.2056,-2.1478,-2.0895,-2.033,-1.9877,-2.4281,-2.4281,-2.4281,-2.4281,-2.4281,-2.4281,-2.4281,-2.4281,-2.4281,-2.4281,-2.4281,-2.4281,-2.4543,-2.5019,-2.5189,-2.5819,-2.6526,-2.6911,-2.7394,-2.7874,-2.8088,-2.8186,-2.8162,-2.8186,-2.8259,-2.8387,-2.8411,-2.8411,-2.8411,-2.8458,-2.8664,-2.9135,-2.9421,-2.972,-3.0228,-3.1344,-3.2049,-3.2184,-3.2236,-3.2436,-3.2205,-3.1375,-3.1059,-3.1026,-3.0978,-3.0978,-3.1015,-3.1131,-3.1072,-3.07,-3.0615,-3.0635,-3.0533,-3.0533,-3.0386,-3.0337,-3.0771,-3.0927,-3.0552,-3.0662,-3.0783,-3.0505,-3.0124,-2.9824,-2.8826,-2.8771,-2.8311,-2.7842,-2.8272,-2.8764,-2.817,-2.8803,-2.899,-2.8459,-2.8479,-2.8478,-2.8036,-2.6464,-2.5118,-2.5256,-2.4823,-2.4639,-2.4634,-2.4508,-2.4323,-2.4302,-2.4281,-2.4281,-2.4281,-2.4281,-2.4281,-2.4281,-2.4281,-2.4281,-2.4281,-2.4281,-2.4281,-2.4281,-2.4281,-2.4281,-2.4177,-2.3988,-2.3946,-2.3849,-2.3554,-2.3373,-2.394,-2.4424,-2.3931,-2.3379,-2.3048,-2.2528,-2.1715,-2.1051,-2.066,-2.4281,-2.4281,-2.4281,-2.4281,-2.4281,-2.4281,-2.4281,-2.4281,-2.4281,-2.4281,-2.4281,-2.4281,-2.4533,-2.4872,-2.4902,-2.5456,-2.6426,-2.6518,-2.6995,-2.7839,-2.8161,-2.8259,-2.8235,-2.8235,-2.8323,-2.8411,-2.8411,-2.8581,-2.8796,-2.8827,-2.9196,-2.9832,-3.0349,-3.0675,-3.0876,-3.2119,-3.2537,-3.2265,-3.2158,-3.223,-3.2068,-3.1368,-3.1136,-3.1114,-3.119,-3.119,-3.119,-3.119,-3.119,-3.1173,-3.1173,-3.119,-3.119,-3.119,-3.1095,-3.0955,-3.1338,-3.1262,-3.092,-3.0949,-3.0785,-3.0331,-2.9967,-2.9403,-2.8678,-2.8396,-2.7934,-2.7643,-2.8273,-2.8227,-2.7734,-2.815,-2.8365,-2.8113,-2.7533,-2.7325,-2.762,-2.618,-2.5391,-2.5313,-2.5137,-2.4779,-2.4902,-2.4679,-2.4492,-2.4364,-2.4281,-2.4281,-2.4281,-2.4281,-2.4281,-2.4281,-2.4281,-2.4281,-2.4281,-2.4281,-2.4281,-2.4281,-2.4281,-2.4281,-2.4094,-2.3925,-2.3746,-2.3739,-2.3766,-2.3889,-2.418,-2.4535,-2.4551,-2.4109,-2.3934,-2.3247,-2.2283,-2.1387,-2.1044,-2.4281,-2.4281,-2.4281,-2.4281,-2.4281,-2.4281,-2.4281,-2.4281,-2.4281,-2.4281,-2.4281,-2.4281,-2.4425,-2.441,-2.4666,-2.4872,-2.5549,-2.5896,-2.665,-2.7595,-2.8271,-2.8544,-2.8624,-2.8431,-2.8495,-2.8581,-2.8519,-2.8935,-2.935,-2.9494,-2.9863,-3.0495,-3.1513,-3.1815,-3.1731,-3.2787,-3.2587,-3.1709,-3.1541,-3.1358,-3.0981,-3.0617,-3.0593,-3.0838,-3.0998,-3.1035,-3.1055,-3.1075,-3.1114,-3.119,-3.119,-3.119,-3.119,-3.119,-3.1035,-3.072,-3.0704,-3.0471,-2.9979,-2.9999,-2.9663,-2.9333,-2.9162,-2.8873,-2.8493,-2.8396,-2.8334,-2.8165,-2.8996,-2.875,-2.8073,-2.7734,-2.7767,-2.7816,-2.7105,-2.6663,-2.631,-2.5825,-2.5408,-2.5465,-2.5446,-2.5179,-2.504,-2.4823,-2.4699,-2.4343,-2.4281,-2.4281,-2.4281,-2.4281,-2.4281,-2.4281,-2.4281,-2.4281,-2.4281,-2.4281,-2.4281,-2.4281,-2.4281,-2.424,-2.3988,-2.3739,-2.3421,-2.3296,-2.3393,-2.3434,-2.3514,-2.3898,-2.4319,-2.4203,-2.356,-2.3039,-2.2436,-2.1559,-2.1007,-2.4281,-2.4281,-2.4281,-2.4281,-2.4281,-2.4281,-2.4281,-2.4281,-2.4297,-2.4343,-2.4312,-2.4312,-2.4656,-2.5102,-2.5112,-2.5487,-2.6195,-2.6718,-2.7625,-2.8694,-2.8909,-2.9353,-2.9404,-2.8937,-2.8741,-2.9048,-2.9196,-2.9541,-3.0033,-3.0233,-3.0525,-3.1189,-3.1537,-3.1778,-3.223,-3.2329,-3.2417,-3.1886,-3.1361,-3.0935,-3.0663,-3.0201,-3.0032,-3.0225,-3.0539,-3.0679,-3.0642,-3.0642,-3.0821,-3.1075,-3.1151,-3.1075,-3.1114,-3.1131,-3.1015,-3.0878,-3.0617,-3.0435,-3.0246,-2.9705,-2.9212,-2.9136,-2.8826,-2.8501,-2.846,-2.8411,-2.8411,-2.8519,-2.8996,-2.9079,-2.8796,-2.8411,-2.8052,-2.7698,-2.7342,-2.674,-2.5786,-2.5046,-2.4973,-2.5195,-2.4981,-2.4639,-2.4859,-2.4639,-2.4492,-2.4323,-2.4281,-2.4281,-2.4281,-2.4281,-2.4281,-2.4281,-2.4281,-2.4281,-2.4281,-2.4281,-2.4281,-2.4281,-2.4281,-2.4177,-2.3925,-2.3739,-2.3465,-2.3216,-2.3022,-2.3042,-2.3041,-2.3206,-2.3657,-2.3397,-2.3165,-2.2608,-2.2023,-2.1379,-2.0863,-2.4281,-2.4281,-2.4281,-2.4281,-2.4281,-2.4281,-2.4281,-2.4379,-2.465,-2.4779,-2.4856,-2.5102,-2.5487,-2.5795,-2.5857,-2.6195,-2.698,-2.7904,-2.8639,-2.9281,-2.9572,-2.9971,-3.0124,-2.9746,-2.9556,-2.9848,-2.9863,-3.0274,-3.072,-3.0936,-3.1228,-3.1852,-3.2055,-3.2299,-3.2327,-3.2132,-3.1788,-3.1171,-3.0521,-3.0142,-3.0241,-2.982,-2.9793,-3.0118,-3.0555,-3.0757,-3.0539,-3.0497,-3.0514,-3.0555,-3.0535,-3.0675,-3.076,-3.0675,-3.0555,-3.0472,-3.0347,-3.0182,-2.9989,-2.975,-2.9348,-2.9113,-2.8834,-2.8629,-2.8493,-2.8411,-2.8411,-2.8458,-2.8688,-2.8935,-2.8919,-2.8688,-2.8181,-2.7934,-2.758,-2.7057,-2.6318,-2.541,-2.4823,-2.5108,-2.4899,-2.4799,-2.4719,-2.4574,-2.4431,-2.4364,-2.4281,-2.4281,-2.4281,-2.4281,-2.4281,-2.4281,-2.4281,-2.4281,-2.4281,-2.4281,-2.4281,-2.4281,-2.4281,-2.4114,-2.3882,-2.3739,-2.3573,-2.3238,-2.2851,-2.2681,-2.2701,-2.2865,-2.3024,-2.305,-2.2823,-2.2181,-2.1535,-2.0943,-2.0511,-2.4456,-2.4471,-2.4564,-2.4604,-2.4625,-2.465,-2.4702,-2.4764,-2.5204,-2.5487,-2.5564,-2.6149,-2.6211,-2.6371,-2.6356,-2.6749,-2.7503,-2.8295,-2.8855,-2.9648,-3.0027,-3.0472,-3.0672,-3.0733,-3.063,-3.0641,-3.0534,-3.0883,-3.1328,-3.1555,-3.1731,-3.2317,-3.2691,-3.2594,-3.2319,-3.1826,-3.1263,-3.0566,-2.9647,-2.9323,-2.9624,-2.9357,-2.9595,-3.0204,-3.0699,-3.0818,-3.0539,-3.0393,-3.0246,-2.9924,-2.9705,-2.9843,-3.0059,-3.0054,-2.9793,-2.9815,-2.9788,-2.9705,-2.9677,-2.9544,-2.9296,-2.9036,-2.8951,-2.8779,-2.8493,-2.8411,-2.8411,-2.8411,-2.8504,-2.8504,-2.8411,-2.8427,-2.8411,-2.8273,-2.7842,-2.755,-2.7211,-2.6265,-2.5697,-2.5039,-2.4809,-2.4655,-2.4679,-2.4619,-2.4513,-2.4405,-2.4343,-2.4281,-2.4281,-2.4281,-2.4281,-2.4281,-2.4281,-2.4281,-2.4281,-2.4281,-2.4281,-2.4281,-2.4281,-2.4094,-2.3861,-2.3631,-2.3414,-2.3024,-2.2692,-2.2552,-2.246,-2.2583,-2.273,-2.2846,-2.2428,-2.1731,-2.108,-2.0496,-2.017,-2.5127,-2.5173,-2.5742,-2.601,-2.6026,-2.6026,-2.5964,-2.6072,-2.6103,-2.6195,-2.6241,-2.6318,-2.6472,-2.6457,-2.6411,-2.6818,-2.748,-2.8001,-2.8713,-2.9812,-3.0324,-3.0689,-3.1454,-3.1607,-3.1674,-3.1634,-3.1326,-3.1393,-3.1809,-3.1985,-3.1995,-3.2203,-3.2262,-3.2206,-3.1873,-3.1173,-3.0592,-3.0171,-2.923,-2.8873,-2.9212,-2.9393,-2.9438,-3.0032,-3.0456,-3.0539,-3.0414,-3.014,-3.0054,-3.0246,-2.925,-2.9044,-2.9303,-2.9595,-2.9661,-2.9617,-2.9387,-2.9227,-2.9205,-2.8889,-2.8668,-2.8525,-2.8549,-2.8549,-2.8436,-2.8411,-2.8411,-2.8411,-2.8411,-2.8411,-2.8411,-2.8411,-2.8411,-2.8365,-2.8273,-2.798,-2.7534,-2.7042,-2.6449,-2.5644,-2.5056,-2.4446,-2.4513,-2.4533,-2.4431,-2.4343,-2.4323,-2.4281,-2.4281,-2.4281,-2.4281,-2.4281,-2.4281,-2.4281,-2.4281,-2.4281,-2.4281,-2.4281,-2.4261,-2.4114,-2.3846,-2.3538,-2.3216,-2.2867,-2.264,-2.2509,-2.2455,-2.2414,-2.2305,-2.2304,-2.1811,-2.1276,-2.0861,-2.0434,-1.9998,-2.5872,-2.5903,-2.6241,-2.6364,-2.6402,-2.6402,-2.6402,-2.6441,-2.6749,-2.6941,-2.7011,-2.7226,-2.7411,-2.7426,-2.7426,-2.7642,-2.7849,-2.8198,-2.8847,-2.9751,-3.0361,-3.086,-3.1668,-3.1911,-3.1994,-3.1864,-3.165,-3.1673,-3.2048,-3.2023,-3.201,-3.2066,-3.2025,-3.1914,-3.1521,-3.0761,-3.0129,-2.973,-2.8975,-2.8748,-2.9438,-2.9815,-3.0118,-2.9946,-3.0182,-3.023,-2.9821,-2.9903,-2.9617,-2.9371,-2.9013,-2.8803,-2.8826,-2.892,-2.9082,-2.9059,-2.8897,-2.8771,-2.8748,-2.8517,-2.846,-2.8436,-2.8411,-2.8411,-2.8411,-2.8411,-2.8411,-2.8411,-2.8411,-2.8411,-2.8411,-2.8411,-2.8411,-2.8411,-2.8411,-2.8242,-2.795,-2.7611,-2.7011,-2.6287,-2.5601,-2.496,-2.4323,-2.4343,-2.4302,-2.4281,-2.4281,-2.4281,-2.4281,-2.4281,-2.4281,-2.4281,-2.4281,-2.4281,-2.4281,-2.4281,-2.424,-2.4219,-2.4198,-2.4051,-2.3846,-2.3523,-2.3157,-2.2822,-2.264,-2.2411,-2.2347,-2.2269,-2.2048,-2.1855,-2.1626,-2.1339,-2.0853,-2.0412,-2.0052,-2.6603,-2.6595,-2.6734,-2.6795,-2.6795,-2.6795,-2.6826,-2.6903,-2.738,-2.7596,-2.7673,-2.8104,-2.8334,-2.8381,-2.8365,-2.8356,-2.8394,-2.8746,-2.9032,-2.9576,-3.0232,-3.08,-3.1288,-3.1591,-3.187,-3.1741,-3.1695,-3.1813,-3.1896,-3.1883,-3.1896,-3.1864,-3.1849,-3.1556,-3.1085,-3.0319,-2.9812,-2.9346,-2.879,-2.8897,-2.9677,-3.041,-3.0597,-2.9903,-3.0161,-3.0011,-2.9528,-2.9506,-2.9296,-2.8967,-2.8795,-2.8771,-2.8493,-2.8411,-2.8411,-2.8411,-2.8411,-2.8411,-2.8436,-2.8436,-2.8411,-2.8411,-2.8411,-2.8411,-2.8411,-2.8411,-2.8411,-2.8411,-2.8411,-2.8411,-2.8411,-2.8411,-2.8411,-2.8411,-2.8411,-2.8365,-2.8242,-2.798,-2.7626,-2.6934,-2.6188,-2.5542,-2.4912,-2.4281,-2.4281,-2.4281,-2.4281,-2.4281,-2.4281,-2.4281,-2.4281,-2.4281,-2.4281,-2.4281,-2.4281,-2.4281,-2.4198,-2.4094,-2.403,-2.3946,-2.3739,-2.3501,-2.3135,-2.274,-2.2457,-2.2263,-2.2194,-2.2194,-2.21,-2.1959,-2.1759,-2.1471,-2.1109,-2.0787,-2.0474,-2.7272,-2.7334,-2.7904,-2.8165,-2.8119,-2.8088,-2.8119,-2.8119,-2.8181,-2.8273,-2.8196,-2.8334,-2.8411,-2.8411,-2.8411,-2.8348,-2.8272,-2.8377,-2.8804,-2.9492,-2.9977,-3.0621,-3.1466,-3.1722,-3.1727,-3.1612,-3.1568,-3.167,-3.1741,-3.1655,-3.1655,-3.168,-3.1199,-3.0762,-3.0794,-2.989,-2.9266,-2.9214,-2.8735,-2.8692,-2.9227,-2.9772,-2.9903,-2.9837,-2.9815,-2.9788,-2.9461,-2.9364,-2.909,-2.8974,-2.8645,-2.8517,-2.8411,-2.8411,-2.8411,-2.8411,-2.8411,-2.8411,-2.8411,-2.8411,-2.8411,-2.8411,-2.8411,-2.8411,-2.8411,-2.8411,-2.8411,-2.8411,-2.8411,-2.8411,-2.8411,-2.8411,-2.8411,-2.8411,-2.8411,-2.8411,-2.835,-2.8288,-2.7934,-2.7611,-2.6919,-2.6226,-2.558,-2.485,-2.4281,-2.4281,-2.4297,-2.4297,-2.4281,-2.4281,-2.4281,-2.4281,-2.4281,-2.4281,-2.4281,-2.4281,-2.4156,-2.3988,-2.3925,-2.3839,-2.3588,-2.3348,-2.3009,-2.2649,-2.2388,-2.2217,-2.2194,-2.2194,-2.2194,-2.21,-2.1959,-2.1712,-2.1423,-2.1142,-2.0809,-2.7965,-2.798,-2.8273,-2.8411,-2.8411,-2.8411,-2.8411,-2.8411,-2.8411,-2.8411,-2.8411,-2.8411,-2.8411,-2.8411,-2.8411,-2.8323,-2.8262,-2.8404,-2.8531,-2.9104,-2.9663,-3.0303,-3.0618,-3.1236,-3.1568,-3.1539,-3.1496,-3.1524,-3.1597,-3.1568,-3.1583,-3.1536,-3.0979,-3.0533,-3.0448,-2.9555,-2.9083,-2.8882,-2.8808,-2.8912,-2.9159,-2.9506,-2.9661,-2.9416,-2.9416,-2.9273,-2.9106,-2.9159,-2.8943,-2.8826,-2.8653,-2.8668,-2.8493,-2.8411,-2.8411,-2.8411,-2.8411,-2.8411,-2.8411,-2.8411,-2.8411,-2.8411,-2.8411,-2.8411,-2.8411,-2.8411,-2.8411,-2.8411,-2.8411,-2.8411,-2.8411,-2.8411,-2.8411,-2.8411,-2.8411,-2.8411,-2.8411,-2.8396,-2.8227,-2.7934,-2.7626,-2.6995,-2.6334,-2.5604,-2.4989,-2.4727,-2.4558,-2.4358,-2.4327,-2.4281,-2.4281,-2.4281,-2.4281,-2.4281,-2.4281,-2.4281,-2.4114,-2.3967,-2.3882,-2.3732,-2.3436,-2.315,-2.2867,-2.2717,-2.2572,-2.2411,-2.2263,-2.2194,-2.2194,-2.2194,-2.2194,-2.1912,-2.1602,-2.1226,-2.0858,-2.8411,-2.8411,-2.8411,-2.8411,-2.8411,-2.8411,-2.8411,-2.8411,-2.8411,-2.8411,-2.8411,-2.8411,-2.8387,-2.8348,-2.8323,-2.825,-2.8118,-2.8536,-2.8424,-2.8658,-2.9319,-3.0011,-3.0415,-3.1001,-3.1496,-3.1496,-3.1496,-3.1496,-3.1496,-3.1496,-3.1539,-3.1523,-3.0792,-3.0416,-2.9943,-2.9297,-2.8734,-2.8519,-2.8708,-2.8826,-2.8928,-2.922,-2.9175,-2.9036,-2.8881,-2.8771,-2.8525,-2.8677,-2.8677,-2.8597,-2.8677,-2.8645,-2.8444,-2.8411,-2.8411,-2.8411,-2.8411,-2.8411,-2.8411,-2.8411,-2.8411,-2.8411,-2.8411,-2.8411,-2.8411,-2.8411,-2.8411,-2.8411,-2.8411,-2.8411,-2.8411,-2.8411,-2.8411,-2.8411,-2.8411,-2.8411,-2.8411,-2.8396,-2.8396,-2.8211,-2.798,-2.7857,-2.718,-2.6441,-2.5819,-2.5333,-2.4912,-2.4543,-2.4404,-2.4358,-2.4297,-2.4312,-2.4297,-2.4297,-2.4281,-2.424,-2.4073,-2.3903,-2.3797,-2.3545,-2.3194,-2.3016,-2.2822,-2.2731,-2.2618,-2.2472,-2.2208,-2.2194,-2.2194,-2.2194,-2.217,-2.203,-2.1756,-2.1348,-2.1031,-2.8411,-2.8411,-2.8411,-2.8411,-2.8411,-2.8411,-2.8411,-2.8411,-2.8411,-2.8411,-2.8411,-2.8411,-2.8348,-2.8259,-2.8235,-2.8113,-2.784,-2.7861,-2.8101,-2.861,-2.928,-2.9906,-3.0328,-3.0896,-3.1451,-3.1496,-3.1496,-3.1496,-3.1496,-3.1509,-3.1626,-3.1605,-3.0573,-3.0247,-2.9729,-2.8971,-2.8495,-2.8348,-2.8501,-2.8501,-2.8501,-2.8597,-2.8589,-2.8541,-2.8493,-2.842,-2.8411,-2.8477,-2.8501,-2.8411,-2.8517,-2.8565,-2.8436,-2.8411,-2.8411,-2.8411,-2.8411,-2.8411,-2.8411,-2.8411,-2.8411,-2.8411,-2.8411,-2.8411,-2.8411,-2.8411,-2.8411,-2.8411,-2.8411,-2.8411,-2.8411,-2.8411,-2.8411,-2.8411,-2.8411,-2.8411,-2.8411,-2.8411,-2.8396,-2.8396,-2.8288,-2.8119,-2.8027,-2.7288,-2.6611,-2.6087,-2.5512,-2.5127,-2.4635,-2.4512,-2.4374,-2.4327,-2.4276,-2.4276,-2.4281,-2.4156,-2.3903,-2.3696,-2.3566,-2.3224,-2.2844,-2.2731,-2.264,-2.2503,-2.2356,-2.2263,-2.2184,-2.2123,-2.21,-2.217,-2.2123,-2.1959,-2.1746,-2.1385,-2.124,-2.8411,-2.8411,-2.8411,-2.8411,-2.8411,-2.8411,-2.8411,-2.8411,-2.8411,-2.8411,-2.8411,-2.8411,-2.8372,-2.8323,-2.8323,-2.8177,-2.8016,-2.85,-2.8339,-2.8482,-2.906,-2.972,-3.0218,-3.0627,-3.1062,-3.1406,-3.1481,-3.1212,-3.0926,-3.1282,-3.0992,-3.0621,-3.0045,-2.9758,-2.924,-2.8686,-2.8299,-2.8201,-2.8299,-2.8372,-2.8299,-2.8372,-2.8411,-2.8411,-2.8411,-2.8411,-2.8411,-2.8411,-2.8411,-2.8411,-2.8411,-2.8411,-2.8411,-2.8411,-2.8411,-2.8411,-2.8411,-2.8411,-2.8411,-2.8411,-2.8411,-2.8411,-2.8411,-2.8411,-2.8411,-2.8411,-2.8411,-2.8411,-2.8411,-2.8411,-2.8411,-2.8411,-2.8411,-2.8411,-2.8411,-2.8411,-2.8411,-2.8411,-2.8411,-2.8396,-2.8396,-2.8334,-2.8258,-2.8134,-2.7473,-2.6826,-2.625,-2.5711,-2.5219,-2.4902,-2.4841,-2.4675,-2.4639,-2.4484,-2.4489,-2.4134,-2.3719,-2.3568,-2.3393,-2.3001,-2.2663,-2.2411,-2.2333,-2.2194,-2.2194,-2.2194,-2.2147,-2.203,-2.1983,-2.2006,-2.1935,-2.1831,-2.1616,-2.135,-2.1204,-2.8411,-2.8411,-2.8411,-2.8411,-2.8411,-2.8411,-2.8411,-2.8411,-2.8411,-2.8411,-2.8411,-2.8411,-2.8387,-2.8348,-2.8323,-2.8226,-2.812,-2.8354,-2.8193,-2.8443,-2.8967,-2.954,-2.9891,-3.0417,-3.1167,-3.1406,-3.1212,-3.0883,-3.0612,-3.0964,-3.0446,-2.9798,-2.9452,-2.9203,-2.9037,-2.8444,-2.8103,-2.8079,-2.8177,-2.8299,-2.821,-2.8323,-2.8411,-2.8411,-2.8411,-2.8411,-2.8411,-2.8411,-2.8411,-2.8411,-2.8411,-2.8411,-2.8411,-2.8411,-2.8411,-2.8411,-2.8411,-2.8411,-2.8411,-2.8411,-2.8411,-2.8411,-2.8411,-2.8411,-2.8411,-2.8411,-2.8411,-2.8411,-2.8411,-2.8411,-2.8411,-2.8411,-2.8411,-2.8411,-2.8411,-2.8411,-2.8411,-2.8411,-2.8411,-2.8411,-2.8411,-2.8411,-2.8381,-2.8249,-2.7818,-2.7157,-2.6549,-2.6118,-2.5857,-2.5595,-2.5518,-2.5336,-2.5133,-2.493,-2.475,-2.4435,-2.414,-2.3726,-2.3466,-2.291,-2.2549,-2.2366,-2.2212,-2.2194,-2.2194,-2.2194,-2.2114,-2.2024,-2.1916,-2.1817,-2.1698,-2.152,-2.135,-2.1106,-2.0947,-2.8411,-2.8411,-2.8411,-2.8411,-2.8411,-2.8411,-2.8411,-2.8411,-2.8411,-2.8411,-2.8411,-2.8411,-2.8363,-2.8259,-2.8259,-2.8177,-2.8029,-2.8006,-2.7876,-2.8112,-2.8726,-2.9379,-2.9939,-3.0537,-3.0972,-3.1227,-3.0957,-3.0612,-3.0313,-3.0146,-2.9522,-2.8989,-2.8696,-2.8692,-2.889,-2.8313,-2.801,-2.802,-2.8113,-2.8186,-2.821,-2.8323,-2.8411,-2.8411,-2.8411,-2.8411,-2.8411,-2.8411,-2.8411,-2.8411,-2.8411,-2.8411,-2.8411,-2.8411,-2.8411,-2.8411,-2.8411,-2.8411,-2.8411,-2.8411,-2.8411,-2.8411,-2.8372,-2.8372,-2.8372,-2.8387,-2.8372,-2.8348,-2.8387,-2.8411,-2.8411,-2.8411,-2.8411,-2.8411,-2.8411,-2.8411,-2.8411,-2.8411,-2.8411,-2.8372,-2.8372,-2.8372,-2.8372,-2.8295,-2.7979,-2.7465,-2.6826,-2.6488,-2.6357,-2.6287,-2.6211,-2.5821,-2.5564,-2.5415,-2.5189,-2.4882,-2.456,-2.4087,-2.3609,-2.3121,-2.2767,-2.262,-2.2464,-2.2301,-2.2351,-2.2485,-2.2273,-2.2033,-2.2028,-2.1977,-2.1421,-2.1155,-2.1008,-2.0909,-2.0823,-2.8411,-2.8411,-2.8411,-2.8411,-2.8411,-2.8411,-2.8411,-2.8411,-2.8411,-2.8411,-2.8411,-2.8411,-2.8387,-2.8348,-2.8299,-2.8201,-2.8029,-2.8088,-2.8014,-2.778,-2.8336,-2.891,-2.9532,-3.0073,-3.0522,-3.0717,-3.0507,-2.9894,-2.919,-2.9265,-2.8843,-2.828,-2.806,-2.7995,-2.8041,-2.7851,-2.7815,-2.7815,-2.7989,-2.8162,-2.8103,-2.8275,-2.8411,-2.8411,-2.8411,-2.8411,-2.8411,-2.8411,-2.8411,-2.8411,-2.8411,-2.8411,-2.8411,-2.8411,-2.8411,-2.8411,-2.8411,-2.8411,-2.8411,-2.8411,-2.8411,-2.8372,-2.8323,-2.8299,-2.8259,-2.8259,-2.8259,-2.8299,-2.8323,-2.8348,-2.8411,-2.8411,-2.8411,-2.8411,-2.8411,-2.8411,-2.8411,-2.8411,-2.8411,-2.8348,-2.8348,-2.8299,-2.8259,-2.8226,-2.7957,-2.7799,-2.725,-2.7078,-2.6979,-2.6949,-2.6865,-2.6336,-2.5978,-2.5841,-2.5604,-2.5127,-2.4731,-2.4293,-2.3889,-2.3493,-2.3189,-2.2898,-2.2829,-2.2715,-2.2761,-2.2793,-2.2627,-2.2467,-2.2369,-2.2152,-2.1724,-2.1339,-2.1199,-2.1081,-2.0898,-2.8411,-2.8411,-2.8411,-2.8411,-2.8411,-2.8411,-2.8411,-2.8411,-2.8411,-2.8411,-2.8411,-2.8411,-2.8372,-2.8348,-2.8323,-2.8241,-2.8005,-2.8014,-2.8014,-2.7735,-2.7991,-2.8745,-2.9352,-2.9609,-3.0103,-3.0253,-2.9939,-2.9325,-2.8727,-2.8801,-2.8408,-2.785,-2.7585,-2.766,-2.768,-2.769,-2.77,-2.77,-2.7875,-2.8005,-2.8029,-2.8152,-2.8323,-2.8348,-2.8372,-2.8411,-2.8411,-2.8411,-2.8411,-2.8411,-2.8411,-2.8411,-2.8411,-2.8411,-2.8411,-2.8411,-2.8363,-2.8348,-2.8323,-2.8323,-2.8299,-2.8226,-2.8186,-2.821,-2.8186,-2.8162,-2.8152,-2.8177,-2.8226,-2.825,-2.8275,-2.8275,-2.8275,-2.8299,-2.8177,-2.8177,-2.8177,-2.8137,-2.8113,-2.8113,-2.8162,-2.8137,-2.8048,-2.8039,-2.7913,-2.783,-2.769,-2.7542,-2.7343,-2.727,-2.7172,-2.6728,-2.6303,-2.6139,-2.5736,-2.5135,-2.4775,-2.4476,-2.406,-2.3667,-2.3368,-2.304,-2.3077,-2.3122,-2.3039,-2.2997,-2.304,-2.2923,-2.2777,-2.2578,-2.2271,-2.1899,-2.1532,-2.1388,-2.1284,-2.8411,-2.8411,-2.8411,-2.8411,-2.8411,-2.8411,-2.8411,-2.8411,-2.8411,-2.8411,-2.8411,-2.8411,-2.8348,-2.8259,-2.8235,-2.8152,-2.8005,-2.7865,-2.7815,-2.7876,-2.8085,-2.8813,-2.9247,-2.9475,-2.9654,-2.9699,-2.9445,-2.8861,-2.8487,-2.8199,-2.7809,-2.763,-2.7585,-2.7585,-2.7585,-2.7625,-2.7625,-2.7675,-2.7815,-2.7905,-2.7955,-2.8088,-2.821,-2.8299,-2.8323,-2.8372,-2.8411,-2.8411,-2.8411,-2.8411,-2.8411,-2.8411,-2.8411,-2.8411,-2.8411,-2.8372,-2.8259,-2.8235,-2.8162,-2.8162,-2.7974,-2.7875,-2.786,-2.8048,-2.8137,-2.8039,-2.8005,-2.8005,-2.8054,-2.8029,-2.8029,-2.8054,-2.8079,-2.794,-2.779,-2.7765,-2.775,-2.7725,-2.77,-2.775,-2.786,-2.7835,-2.77,-2.7675,-2.7509,-2.7148,-2.6967,-2.686,-2.6784,-2.7069,-2.698,-2.698,-2.6623,-2.6422,-2.5938,-2.5238,-2.4945,-2.4662,-2.4092,-2.3676,-2.3419,-2.3325,-2.3406,-2.3405,-2.3245,-2.3218,-2.3379,-2.3312,-2.3138,-2.2897,-2.2694,-2.2419,-2.2035,-2.2062,-2.1996,-2.8411,-2.8411,-2.8411,-2.8411,-2.8411,-2.8411,-2.8411,-2.8411,-2.8411,-2.8411,-2.8411,-2.8411,-2.8363,-2.8363,-2.8259,-2.8113,-2.7989,-2.7865,-2.774,-2.7825,-2.791,-2.8349,-2.8667,-2.8921,-2.9041,-2.9011,-2.8757,-2.8323,-2.7974,-2.7585,-2.7585,-2.76,-2.7585,-2.7585,-2.7585,-2.7585,-2.7585,-2.765,-2.7815,-2.788,-2.7955,-2.8088,-2.821,-2.8299,-2.8275,-2.8348,-2.8387,-2.8411,-2.8411,-2.8411,-2.8411,-2.8411,-2.8411,-2.8411,-2.8372,-2.8275,-2.821,-2.8162,-2.8029,-2.7675,-2.7393,-2.724,-2.7004,-2.7251,-2.756,-2.7765,-2.773,-2.7625,-2.7625,-2.76,-2.76,-2.761,-2.7585,-2.7458,-2.728,-2.7163,-2.7137,-2.7045,-2.7045,-2.7108,-2.7236,-2.7148,-2.706,-2.7137,-2.6916,-2.6428,-2.6162,-2.6095,-2.6122,-2.6375,-2.6534,-2.6561,-2.6414,-2.604,-2.5892,-2.5326,-2.5136,-2.4832,-2.427,-2.3915,-2.394,-2.3897,-2.3834,-2.3755,-2.3627,-2.3703,-2.3868,-2.371,-2.3517,-2.3355,-2.3177,-2.287,-2.2618,-2.255,-2.2362,-2.8411,-2.8411,-2.8411,-2.8411,-2.8411,-2.8411,-2.8411,-2.8411,-2.8411,-2.8411,-2.8372,-2.8323,-2.8314,-2.8217,-2.8088,-2.7949,-2.784,-2.7765,-2.769,-2.7625,-2.7585,-2.8094,-2.8368,-2.8368,-2.8427,-2.8412,-2.8293,-2.7974,-2.766,-2.7585,-2.7585,-2.7585,-2.7585,-2.7585,-2.7585,-2.7585,-2.7585,-2.7675,-2.779,-2.7905,-2.7989,-2.8088,-2.8235,-2.8299,-2.8259,-2.8323,-2.8387,-2.8411,-2.8411,-2.8411,-2.8411,-2.8411,-2.8411,-2.8411,-2.8372,-2.8299,-2.8177,-2.7925,-2.765,-2.7291,-2.6927,-2.6587,-2.6254,-2.6441,-2.664,-2.6852,-2.6852,-2.6837,-2.6982,-2.7086,-2.7097,-2.7122,-2.7019,-2.693,-2.6707,-2.6508,-2.6428,-2.6349,-2.6361,-2.64,-2.6347,-2.6254,-2.6269,-2.6402,-2.6295,-2.5797,-2.5495,-2.5398,-2.5425,-2.555,-2.5715,-2.5769,-2.5673,-2.5467,-2.5342,-2.5189,-2.4852,-2.4627,-2.4505,-2.4281,-2.4379,-2.4297,-2.411,-2.4061,-2.4037,-2.4076,-2.404,-2.4034,-2.39,-2.37,-2.3552,-2.3418,-2.3083,-2.277,-2.2537,-2.8411,-2.8411,-2.8411,-2.8411,-2.8411,-2.8411,-2.8411,-2.8411,-2.8411,-2.8372,-2.8348,-2.8235,-2.8152,-2.8054,-2.794,-2.78,-2.774,-2.7665,-2.7625,-2.7585,-2.7585,-2.7914,-2.8064,-2.7964,-2.8023,-2.8139,-2.8049,-2.7735,-2.7645,-2.7585,-2.7585,-2.76,-2.7585,-2.7585,-2.7585,-2.7585,-2.7675,-2.791,-2.7966,-2.8037,-2.792,-2.8039,-2.8186,-2.8235,-2.8299,-2.8372,-2.8411,-2.8411,-2.8411,-2.8411,-2.8411,-2.8411,-2.8411,-2.8411,-2.8411,-2.8299,-2.8128,-2.784,-2.7458,-2.7097,-2.6534,-2.6188,-2.5877,-2.5755,-2.5797,-2.6149,-2.6256,-2.6269,-2.6375,-2.6402,-2.6428,-2.6455,-2.6375,-2.6229,-2.6041,-2.5864,-2.5755,-2.5673,-2.5632,-2.5659,-2.5605,-2.5536,-2.5563,-2.5673,-2.5605,-2.5132,-2.5048,-2.4963,-2.4821,-2.4907,-2.5006,-2.5132,-2.5077,-2.4979,-2.4723,-2.4578,-2.4361,-2.4232,-2.4334,-2.4334,-2.4232,-2.429,-2.435,-2.4232,-2.4125,-2.4125,-2.4099,-2.4096,-2.4024,-2.3819,-2.376,-2.3878,-2.3627,-2.306,-2.2705,-2.8411,-2.8411,-2.8411,-2.8411,-2.8411,-2.8411,-2.8411,-2.8411,-2.8411,-2.8323,-2.8259,-2.821,-2.8113,-2.798,-2.793,-2.7815,-2.774,-2.7625,-2.76,-2.7585,-2.7585,-2.7675,-2.7839,-2.775,-2.7735,-2.772,-2.766,-2.7585,-2.7585,-2.7585,-2.76,-2.763,-2.766,-2.7705,-2.7794,-2.7794,-2.7959,-2.8334,-2.8452,-2.8308,-2.8072,-2.8016,-2.8079,-2.8192,-2.8305,-2.8369,-2.8378,-2.8387,-2.8411,-2.8411,-2.8411,-2.8411,-2.8411,-2.8372,-2.8323,-2.821,-2.794,-2.7625,-2.728,-2.6811,-2.6256,-2.5769,-2.5412,-2.495,-2.4963,-2.5467,-2.5742,-2.5728,-2.5728,-2.5701,-2.5701,-2.5728,-2.5701,-2.5522,-2.5342,-2.5231,-2.5118,-2.5034,-2.4964,-2.4908,-2.4879,-2.4879,-2.4908,-2.4893,-2.4765,-2.4806,-2.4948,-2.4892,-2.4476,-2.4419,-2.4565,-2.465,-2.4666,-2.4551,-2.429,-2.4187,-2.4141,-2.4125,-2.4216,-2.4171,-2.4125,-2.4157,-2.4232,-2.4187,-2.4125,-2.4125,-2.4125,-2.4125,-2.4024,-2.3878,-2.3776,-2.3835,-2.3514,-2.2982,-2.2797,-2.8411,-2.8411,-2.8411,-2.8411,-2.8411,-2.8411,-2.8411,-2.8411,-2.8323,-2.8259,-2.8186,-2.8137,-2.8014,-2.7905,-2.784,-2.7815,-2.77,-2.765,-2.7585,-2.7585,-2.7585,-2.7585,-2.7585,-2.7585,-2.7615,-2.76,-2.76,-2.7585,-2.7645,-2.763,-2.766,-2.7974,-2.8064,-2.8169,-2.8349,-2.8498,-2.8603,-2.9037,-2.9132,-2.8948,-2.8613,-2.8752,-2.8708,-2.8747,-2.8639,-2.8587,-2.8305,-2.8299,-2.8201,-2.7974,-2.776,-2.7469,-2.7378,-2.7287,-2.7327,-2.7236,-2.7082,-2.6967,-2.668,-2.631,-2.5769,-2.5258,-2.4907,-2.4405,-2.4361,-2.4793,-2.485,-2.485,-2.485,-2.4821,-2.4808,-2.4836,-2.485,-2.475,-2.4664,-2.4607,-2.4549,-2.452,-2.4492,-2.4478,-2.4463,-2.4434,-2.4463,-2.4492,-2.439,-2.439,-2.4563,-2.4649,-2.4287,-2.4125,-2.4216,-2.429,-2.4363,-2.4347,-2.4187,-2.4141,-2.4112,-2.4125,-2.4125,-2.4125,-2.4125,-2.4125,-2.4125,-2.4125,-2.4125,-2.4125,-2.4125,-2.4125,-2.4083,-2.3966,-2.3835,-2.3747,-2.3365,-2.31,-2.301,-2.8411,-2.8411,-2.8411,-2.8411,-2.8411,-2.8411,-2.8411,-2.8387,-2.8275,-2.8287,-2.8369,-2.8261,-2.8046,-2.779,-2.77,-2.765,-2.76,-2.76,-2.7585,-2.7585,-2.7585,-2.7585,-2.7585,-2.7585,-2.7585,-2.769,-2.7764,-2.7809,-2.7869,-2.8034,-2.8378,-2.8667,-2.8831,-2.9022,-2.9457,-2.9564,-2.952,-2.9639,-2.9741,-2.9801,-2.9823,-2.9909,-2.9557,-2.9352,-2.9231,-2.8996,-2.8629,-2.8295,-2.8147,-2.7584,-2.717,-2.6756,-2.6584,-2.6532,-2.6479,-2.6453,-2.6385,-2.6094,-2.5701,-2.5577,-2.502,-2.4534,-2.4245,-2.4171,-2.4171,-2.4112,-2.4171,-2.4171,-2.4171,-2.42,-2.42,-2.4187,-2.42,-2.42,-2.4171,-2.4171,-2.4141,-2.4141,-2.4141,-2.4128,-2.4141,-2.4141,-2.4141,-2.4141,-2.4112,-2.4112,-2.4125,-2.4125,-2.4125,-2.4125,-2.4171,-2.4187,-2.4216,-2.4171,-2.4125,-2.4125,-2.4125,-2.4125,-2.4125,-2.4125,-2.4125,-2.4125,-2.4125,-2.4125,-2.4125,-2.4096,-2.4125,-2.4125,-2.4054,-2.3966,-2.3966,-2.3865,-2.3865,-2.3616,-2.3395,-2.8411,-2.8411,-2.8411,-2.8411,-2.8411,-2.8411,-2.8411,-2.8387,-2.8403,-2.859,-2.893,-2.891,-2.8586,-2.7831,-2.7905,-2.7921,-2.7929,-2.7824,-2.766,-2.7585,-2.7854,-2.7735,-2.7658,-2.7794,-2.7624,-2.7854,-2.8199,-2.8382,-2.8468,-2.8888,-2.922,-2.9412,-2.9412,-2.9502,-2.9577,-2.9756,-2.9968,-3.0193,-3.0389,-3.0449,-3.0599,-3.0426,-2.9855,-2.9735,-2.9784,-2.9761,-2.9574,-2.9108,-2.8587,-2.7876,-2.6944,-2.6381,-2.6026,-2.5918,-2.5918,-2.5809,-2.5755,-2.5673,-2.5398,-2.53,-2.4907,-2.4649,-2.4505,-2.439,-2.4316,-2.4125,-2.4141,-2.4141,-2.4141,-2.4141,-2.4141,-2.4141,-2.4141,-2.4141,-2.4112,-2.4112,-2.4112,-2.4112,-2.4112,-2.4112,-2.4112,-2.4112,-2.4112,-2.4112,-2.4112,-2.4125,-2.4125,-2.4125,-2.4125,-2.4125,-2.4125,-2.4125,-2.4125,-2.4125,-2.4125,-2.4125,-2.4125,-2.4125,-2.4125,-2.4125,-2.4125,-2.4125,-2.4125,-2.4125,-2.4096,-2.4096,-2.4096,-2.3966,-2.3936,-2.3835,-2.4024,-2.4083,-2.4054,-2.3806,-2.3335]},{"header":{"parameterUnit":"m.s-1","parameterCategory":1,"la1":31.0,"la2":29.5877,"lo1":-88.7671,"lo2":-86.6584,"dx":0.0162,"dy":0.0185,"nx":115,"ny":88,"refTime":"2022-12-04T18:00:00:Z","depth":0,"parameterNumber":3,"parameterNumberName":"V-component_of_WINDS"},"data":[0.0,0.0,0.0,0.0,0.0,0.0,0.0,0.0,0.0,0.0,0.0,0.0,0.0,0.0,0.0,0.0,0.0,0.0,0.0,0.0,0.0,0.0,0.0,0.0,0.0,0.0,0.0,0.0,0.0,0.0,0.0,0.0,0.0,0.0,0.0,0.0,0.0,0.0,0.0,0.0,0.0,0.0,0.0,0.0,0.0,0.0,0.0,0.0,0.0,0.0,0.0,0.0,0.0,0.0,0.0,0.0,0.0,0.0,0.0,0.0,0.0,0.0,0.0,0.0,0.0,0.0,0.0,0.0,0.0,0.0,0.0,0.0,0.0,0.0,0.0,0.0,0.0,0.0,0.0,0.0,0.0,0.0,0.0,0.0,0.0,0.0,0.0,0.0,0.0,0.0,0.0,0.0,0.0,0.0,0.0,0.0,0.0,0.0,0.0,0.0,0.0,0.0,0.0,0.0,0.0,0.0,0.0,0.0,0.0,0.0,0.0,0.0,0.0,0.0,0.0,0.0,0.0,0.0,0.0,0.0,0.0,0.0,0.0,0.0,0.0,0.0,0.0,0.0,0.0,0.0,0.0,0.0,0.0,0.0,0.0,0.0,0.0,0.0,0.0,0.0,0.0,0.0,0.0,0.0,0.0,0.0,0.0,0.0,0.0,0.0,0.0,0.0,0.0,0.0,0.0,0.0,0.0,0.0,0.0,0.0,0.0,0.0,0.0,0.0,0.0,0.0,0.0,0.0,0.0,0.0,0.0,0.0,0.0,0.0,0.0,0.0,0.0,0.0,0.0,0.0,0.0,0.0,0.0,0.0,0.0,0.0,0.0,0.0,0.0,0.0,0.0,0.0,0.0,0.0,0.0,0.0,0.0,0.0,0.0,0.0,0.0,0.0,0.0,0.0,0.0,0.0,0.0,0.0,0.0,0.0,0.0,0.0,0.0,0.0,0.0,0.0,0.0,0.0,0.0,0.0,0.0,0.0,0.0,0.0,0.0,0.0,0.0,0.0,0.0,0.0,0.0,0.0,0.0,0.0,0.0,0.0,0.0,0.0,0.0,0.0,0.0,0.0,0.0,0.0,0.0,0.0,0.0,0.0,0.0,0.0,0.0,0.0,0.0,0.0,0.0,0.0,0.0,0.0,0.0,0.0,0.0,0.0,0.0,0.0,0.0,0.0,0.0,0.0,0.0,0.0,0.0,0.0,0.0,0.0,0.0,0.0,0.0,0.0,0.0,0.0,0.0,0.0,0.0,0.0,0.0,0.0,0.0,0.0,0.0,0.0,0.0,0.0,0.0,0.0,0.0,0.0,0.0,0.0,0.0,0.0,0.0,0.0,0.0,0.0,0.0,0.0,0.0,0.0,0.0,0.0,0.0,0.0,0.0,0.0,0.0,0.0,0.0,0.0,0.0,0.0,0.0,0.0,0.0,0.0,0.0,0.0,0.0,0.0,0.0,0.0,0.0,0.0,0.0,0.0,0.0,0.0,0.0,0.0,0.0,0.0,0.0,0.0,0.0,0.0,0.0,0.0,0.0,0.0,0.0,0.0,0.0,0.0,0.0,0.0,0.0,0.0,0.0,0.0,0.0,0.0,0.0,0.0,0.0,0.0,0.0,0.0,0.0,0.0,0.0,0.0,0.0,0.0,0.0,0.0,0.0,0.0,0.0,0.0,0.0,0.0,0.0,0.0,0.0,0.0,0.0,0.0,0.0,0.0,0.0,0.0,0.0,0.0,0.0,0.0,0.0,0.0,0.0,0.0,0.0,0.0,0.0,0.0,0.0,0.0,0.0,0.0,0.0,0.0,0.0,0.0,0.0,0.0,0.0,0.0,0.0,0.0,0.0,0.0,0.0,0.0,0.0,0.0,0.0,0.0,0.0,0.0,0.0,0.0,0.0,0.0,0.0,0.0,0.0,0.0,0.0,0.0,0.0,0.0,0.0,0.0,0.0,0.0,0.0,0.0,0.0,0.0,0.0,0.0,0.0,0.0,0.0,0.0,0.0,0.0,0.0,0.0,0.0,0.0,0.0,0.0,0.0,0.0,0.0,0.0,0.0,0.0,0.0,0.0,0.0,0.0,0.0,0.0,0.0,0.0,0.0,0.0,0.0,0.0,0.0,0.0,0.0,0.0,0.0,0.0,0.0,0.0,0.0,0.0,0.0,0.0,0.0,0.0,0.0,0.0,0.0,0.0,0.0,0.0,0.0,0.0,0.0,0.0,0.0,0.0,0.0,0.0,0.0,0.0,0.0,0.0,0.0,0.0,0.0,0.0,0.0,0.0,0.0,0.0,0.0,0.0,0.0,0.0,0.0,0.0,0.0,0.0,0.0,0.0,0.0,0.0,0.0,0.0,0.0,0.0,0.0,0.0,0.0,0.0,0.0,0.0,0.0,0.0,0.0,0.0,0.0,0.0,0.0,0.0,0.0,0.0,0.0,0.0,0.0,0.0,0.0,0.0,0.0,0.0,0.0,0.0,0.0,0.0,0.0,0.0,0.0,0.0,0.0,0.0,0.0,0.0,0.0,0.0,0.0,0.0,0.0,0.0,0.0,0.0,0.0,0.0,0.0,0.0,0.0,0.0,0.0,0.0,0.0,0.0,0.0,0.0,0.0,0.0,0.0,0.0,0.0,0.0,0.0,0.0,0.0,0.0,0.0,0.0,0.0,0.0,0.0,0.0,0.0,0.0,0.0,0.0,0.0,0.0,0.0,0.0,0.0,0.0,0.0,0.0,0.0,0.0,0.0,0.0,0.0,0.0,0.0,0.0,0.0,0.0,0.0,0.0,0.0,0.0,0.0,0.0,0.0,0.0,0.0,0.0,0.0,0.0,0.0,0.0,0.0,0.0,0.0,0.0,0.0,0.0,0.0,0.0,0.0,0.0,0.0,0.0,0.0,0.0,0.0,0.0,0.0,0.0,0.0,0.0,0.0,0.0,0.0,0.0,0.0,0.0,0.0,0.0,0.0,0.0,0.0,0.0,0.0,0.0,0.0,0.0,0.0,0.0,0.0,0.0,0.0,0.0,0.0,0.0,0.0,0.0,0.0,0.0,0.0,0.0,0.0,0.0,0.0,0.0,0.0,0.0,0.0,0.0,0.0,0.0,0.0,0.0,0.0,0.0,0.0,0.0,0.0,0.0,0.0,0.0,0.0,0.0,0.0,0.0,0.0,0.0,0.0,0.0,0.0,0.0,0.0,0.0,0.0,0.0,0.0,0.0,0.0,0.0,0.0,0.0,0.0,0.0,0.0,0.0,0.0,0.0,0.0,0.0,0.0,0.0,0.0,0.0,0.0,0.0,0.0,0.0,0.0,0.0,0.0,0.0,0.0,0.0,0.0,0.0,0.0,0.0,0.0,0.0,0.0,0.0,0.0,0.0,0.0,0.0,0.0,0.0,0.0,0.0,0.0,0.0,0.0,0.0,0.0,0.0,0.0,0.0,0.0,0.0,0.0,0.0,0.0,0.0,0.0,0.0,0.0,0.0,0.0,0.0,0.0,0.0,0.0,0.0,0.0,0.0,0.0,0.0,0.0,0.0,0.0,0.0,0.0,0.0,0.0,0.0,0.0,0.0,0.0,0.0,0.0,0.0,0.0,0.0,0.0,0.0,0.0,0.0,0.0,0.0,0.0,0.0,0.0,0.0,0.0,0.0,0.0,0.0,0.0,0.0,0.0,0.0,0.0,0.0,0.0,0.0,0.0,0.0,0.0,0.0,0.0,0.0,0.0,0.0,0.0,0.0,0.0,0.0,0.0,0.0,0.0,0.0,0.0,0.0,0.0,0.0,0.0,0.0,0.0,0.0,0.0,0.0,0.0,0.0,0.0,0.0,0.0,0.0,0.0,0.0,0.0,0.0,0.0,0.0,0.0,0.0,0.0,0.0,0.0,0.0,0.0,0.0,0.0,0.0,0.0,0.0,0.0,0.0,0.0,0.0,0.0,0.0,0.0,0.0,0.0,0.0,0.0,0.0,0.0,0.0,0.0,0.0,0.0,0.0,0.0,0.0,0.0,0.0,0.0,0.0,0.0,0.0,0.0,0.0,0.0,0.0,0.0,0.0,0.0,0.0,0.0,0.0,0.0,0.0,0.0,0.0,0.0,0.0,0.0,0.0,0.0,0.0,0.0,0.0,0.0,0.0,0.0,0.0,0.0,0.0,0.0,0.0,0.0,0.0,0.0,0.0,0.0,0.0,0.0,0.0,0.0,0.0,0.0,0.0,0.0,0.0,0.0,0.0,0.0,0.0,0.0,0.0,-0.2304,0.0,0.0,0.0,-0.2248,0.0,0.0,0.0,0.0,0.0,0.0,0.0,0.0,0.0,0.0,0.0,0.0,0.0,0.0,0.0,0.0,0.0,0.0,0.0,0.0,0.0,0.0,0.0,0.0,0.0,0.0,0.0,0.0,0.0,0.0,0.0,0.0,0.0,0.0,0.0,0.0,0.0,0.0,0.0,0.0,0.0,0.0,0.0,0.0,0.0,0.0,0.0,0.0,0.0,0.0,0.0,0.0,0.0,0.0,0.0,0.0,0.0,0.0,0.0,0.0,0.0,0.0,0.0,0.0,0.0,0.0,0.0,0.0,0.0,0.0,0.0,0.0,0.0,0.0,0.0,0.0,0.0,0.0,0.0,0.0,0.0,0.0,0.0,0.0,0.0,0.0,0.0,0.0,0.0,0.0,0.0,0.0,0.0,0.0,0.0,0.0,0.0,0.0,0.0,0.0,0.0,0.0,0.0,0.0,0.0,0.0,0.0,0.0,0.0,0.0,-0.2037,-0.1942,-0.1942,-0.196,-0.2019,0.0,0.0,0.0,0.0,0.0,0.0,0.0,0.0,0.0,0.0,0.0,0.0,0.0,0.0,0.0,0.0,0.0,0.0,0.0,0.0,0.0,0.0,0.0,0.0,0.0,0.0,0.0,0.0,0.0,0.0,0.0,0.0,0.0,0.0,0.0,0.0,0.0,0.0,0.0,0.0,0.0,0.0,0.0,0.0,0.0,0.0,0.0,0.0,0.0,0.0,0.0,0.0,0.0,0.0,0.0,0.0,0.0,0.0,0.0,0.0,0.0,0.0,0.0,0.0,0.0,0.0,0.0,0.0,0.0,0.0,0.0,0.0,0.0,0.0,0.0,0.0,0.0,0.0,0.0,0.0,0.0,0.0,0.0,0.0,0.0,0.0,0.0,0.0,0.0,0.0,0.0,0.0,0.0,0.0,0.0,0.0,0.0,0.0,0.0,0.0,0.0,0.0,0.0,0.0,0.0,0.0,0.0,0.0,0.0,0.0,0.0,0.0,-0.1703,-0.1707,-0.1731,0.0,0.0,0.0,0.0,0.0,0.0,0.0,0.0,0.0,0.0,0.0,0.0,0.0,0.0,0.0,0.0,0.0,0.0,0.0,0.0,0.0,0.0,0.0,0.0,0.0,0.0,0.0,0.0,0.0,0.0,0.0,0.0,0.0,0.0,0.0,0.0,0.0,0.0,0.0,0.0,0.0,0.0,0.0,0.0,0.0,0.0,0.0,0.0,0.0,0.0,0.0,0.0,0.0,0.0,0.0,0.0,0.0,0.0,0.0,0.0,0.0,0.0,0.0,0.0,0.0,0.0,0.0,0.0,0.0,0.0,0.0,0.0,0.0,0.0,0.0,0.0,0.0,0.0,0.0,0.0,0.0,0.0,0.0,0.0,0.0,0.0,0.0,0.0,0.0,0.0,0.0,0.0,0.0,0.0,0.0,0.0,0.0,0.0,0.0,0.0,0.0,0.0,0.0,0.0,0.0,0.0,0.0,0.0,0.0,0.0,-0.1513,-0.1433,-0.1444,0.0,-0.1276,0.0,0.0,0.0,0.0,0.0,0.0,0.0,0.0,0.0,0.0,0.0,0.0,0.0,0.0,0.0,0.0,0.0,0.0,0.0,0.0,0.0,0.0,0.0,0.0,0.0,0.0,0.0,0.0,0.0,0.0,0.0,0.0,0.0,0.0,0.0,0.0,0.0,0.0,0.0,0.0,0.0,0.0,0.0,0.0,0.0,0.0,0.0,0.0,0.0,0.0,0.0,0.0,0.0,0.0,0.0,0.0,0.0,0.0,0.0,0.0,0.0,0.0,0.0,0.0,0.0,0.0,0.0,0.0,0.0,0.0,0.0,0.0,0.0,0.0,0.0,0.0,0.0,0.0,0.0,0.0,0.0,0.0,0.0,0.0,0.0,0.0,0.0,0.0,0.0,0.0,0.0,0.0,0.0,0.0,0.0,0.0,0.0,0.0,0.0,0.0,0.0,0.0,0.0,0.0,0.0,0.0,0.0,0.0,0.0,0.0,-0.1296,-0.123,-0.1296,-0.1226,0.0,0.0,0.0,0.0,0.0,0.0,0.0,0.0,0.0,0.0,0.0,0.0,0.0,0.0,0.0,0.0,0.0,0.0,0.0,0.0,0.0,0.0,0.0,0.0,0.0,0.0,0.0,0.0,0.0,0.0,0.0,0.0,0.0,0.0,0.0,0.0,0.0,0.0,0.0,0.0,0.0,0.0,0.0,0.0,0.0,0.0,0.0,0.0,0.0,0.0,0.0,0.0,0.0,0.0,0.0,0.0,0.0,0.0,0.0,0.0,0.0,0.0,0.0,0.0,0.0,0.0,0.0,0.0,0.0,0.0,0.0,0.0,0.0,0.0,0.0,0.0,0.0,0.0,0.0,0.0,0.0,0.0,0.0,0.0,0.0,0.0,0.0,0.0,0.0,0.0,0.0,0.0,0.0,0.0,0.0,0.0,0.0,0.0,0.0,0.0,0.0,0.0,0.0,0.0,0.0,0.0,0.0,0.0,0.0,0.0,-0.1121,-0.1063,-0.1007,-0.1109,-0.1025,-0.0772,0.0,0.0,0.0,0.0,0.0,0.0,0.0,0.0,0.0,0.0,0.0,0.0,0.0,0.0,0.0,0.0,0.0,0.0,0.0,0.0,0.0,0.0,0.0,0.0,0.0,0.0,0.0,0.0,0.0,0.0,0.0,0.0,0.0,0.0,0.0,0.0,0.0,0.0,0.0,0.0,0.0,0.0,0.0,0.0,0.0,0.0,0.0,0.0,0.0,0.0,0.0,0.0,0.0,0.0,0.0,0.0,0.0,0.0,0.0,0.0,0.0,0.0,0.0,0.0,0.0,0.0,0.0,0.0,0.0,0.0,0.0,0.0,0.0,0.0,0.0,0.0,0.0,0.0,0.0,0.0,0.0,0.0,0.0,0.0,0.0,0.0,0.0,0.0,0.0,0.0,0.0,0.0,0.0,0.0,0.0,0.0,0.0,0.0,0.0,0.0,0.0,0.0,0.0,0.0,0.0,0.0,0.0,0.0,-0.0925,-0.0852,-0.0788,-0.0719,-0.0787,-0.0788,0.0,0.0,0.0,0.0,0.0,0.0,0.0,0.0,0.0,0.0,0.0,0.0,0.0,0.0,0.0,0.0,0.0,0.0,0.0,0.0,0.0,0.0,0.0,0.0,0.0,0.0,0.0,0.0,0.0,0.0,0.0,0.0,0.0,0.0,0.0,0.0,0.0,0.0,0.0,0.0,0.0,0.0,0.0,0.0,0.0,0.0,0.0,0.0,0.0,0.0,0.0,0.0,0.0,0.0,0.0,0.0,0.0,0.0,0.0,0.0,0.0,0.0,0.0,0.0,0.0,0.0,0.0,0.0,0.0,0.0,0.0,0.0,0.0,0.0,0.0,0.0,0.0,0.0,0.0,0.0,0.0,0.0,0.0,0.0,0.0,0.0,0.0,0.0,0.0,0.0,0.0,0.0,0.0,0.0,0.0,0.0,0.0,0.0,0.0,0.0,0.0,0.0,0.0,0.0,0.0,0.0,0.0,0.0,0.0,-0.0707,-0.0607,-0.0529,-0.0507,-0.0574,-0.0606,0.0,0.0,0.0,0.0,0.0,0.0,0.0,0.0,0.0,0.0,0.0,0.0,0.0,0.0,0.0,0.0,0.0,0.0,0.0,0.0,0.0,0.0,0.0,0.0,0.0,0.0,0.0,0.0,0.0,0.0,0.0,0.0,0.0,0.0,0.0,0.0,0.0,0.0,0.0,0.0,0.0,0.0,0.0,0.0,0.0,0.0,0.0,0.0,0.0,0.0,0.0,0.0,0.0,0.0,0.0,0.0,0.0,0.0,0.0,0.0,0.0,0.0,0.0,0.0,0.0,0.0,0.0,0.0,0.0,0.0,0.0,0.0,0.0,0.0,0.0,0.0,0.0,0.0,0.0,0.0,0.0,0.0,0.0,0.0,0.0,0.0,0.0,0.0,0.0,0.0,0.0,0.0,0.0,0.0,0.0,0.0,0.0,0.0,0.0,0.0,0.0,0.0,0.0,0.0,0.0,0.0,0.0,0.0,0.0,-0.0439,-0.0315,-0.0225,-0.0236,-0.0326,-0.0394,0.0,0.0,0.0,0.0,0.0,0.0,0.0,0.0,0.0,0.0,0.0,0.0,0.0,0.0,0.0,0.0,0.0,0.0,0.0,0.0,0.0,0.0,0.0,0.0,0.0,0.0,0.0,0.0,0.0,0.0,0.0,0.0,0.0,0.0,0.0,0.0,0.0,0.0,0.0,0.0,0.0,0.0,0.0,0.0,0.0,0.0,0.0,0.0,0.0,0.0,0.0,0.0,0.0,0.0,0.0,0.0,0.0,0.0,0.0,0.0,0.0,0.0,0.0,0.0,0.0,0.0,0.0,0.0,0.0,0.0,0.0,0.0,0.0,0.0,0.0,0.0,0.0,0.0,0.0,0.0,0.0,0.0,0.0,0.0,0.0,0.0,0.0,0.0,0.0,0.0,0.0,0.0,0.0,0.0,0.0,0.0,0.0,0.0,0.0,0.0,0.0,0.0,0.0,0.0,0.0,0.0,0.0,0.0,-0.0417,-0.0112,0.0034,0.0127,0.0113,-0.0011,-0.0158,0.0,0.0,0.0,0.0,0.0,0.0,0.0,0.0,0.0,0.0,0.0,0.0,0.0,0.0,0.0,0.0,0.0,0.0,0.0,0.0,0.0,0.0,0.0,0.0,0.0,0.0,0.0,0.0,0.0,0.0,0.0,0.0,0.0,0.0,0.0,0.0,0.0,0.0,0.0,0.0,0.0,0.0,0.0,0.0,0.0,0.0,0.0,0.0,0.0,0.0,0.0,0.0,0.0,0.0,0.0,0.0,0.0,0.0,0.0,0.0,0.0,0.0,0.0,0.0,0.0,0.0,0.0,0.0,0.0,0.0,0.0,0.0,0.0,0.0,0.0,0.0,0.0,0.0,0.0,0.0,0.0,0.0,0.0,0.0,0.0,0.0,0.0,0.0,0.0,0.0,0.0,0.0,0.0,0.0,0.0,0.0,0.0,0.0,0.0,0.0,0.0,0.0,0.0,0.0,0.0,0.0,0.0,0.0,0.0,0.0317,0.0732,0.0842,0.0649,0.0512,0.0381,0.0,0.0,0.0,0.0,0.0,0.0,0.0,0.0,0.0,0.0,0.0,0.0,0.0,0.0,0.0,0.0,0.0,0.0,0.0,0.0,0.0,0.0,0.0,0.0,0.0,0.0,0.0,0.0,0.0,0.0,0.0,0.0,0.0,0.0,0.0,0.0,0.0,0.0,0.0,0.0,0.0,0.0,0.0,0.0,0.0,0.0,0.0,0.0,0.0,0.0,0.0,0.0,0.0,0.0,0.0,0.0,0.0,0.0,0.0,0.0,0.0,0.0,0.0,0.0,0.0,0.0,0.0,0.0,0.0,0.0,0.0,0.0,0.0,0.0,0.0,0.0,0.0,0.0,0.0,0.0,0.0,0.0,0.0,0.0,0.0,0.0,0.0,0.0,0.0,0.0,0.0,0.0,0.0,0.0,0.0,0.0,0.0,0.0,0.0,0.0,0.0,0.0,0.0,0.0,0.0,0.0,0.0,0.0,0.0,0.1148,0.1306,0.133,0.116,0.1004,0.0794,0.0482,0.0,0.0,0.0,0.0,0.0,0.0,0.0,0.0,0.0,0.0,0.0,0.0,0.0,0.0,0.0,0.0,0.0,0.0,0.0,0.0,0.0,0.0,0.0,0.0,0.0,0.0,0.0,0.0,0.0,0.0,0.0,0.0,0.0,0.0,0.0,0.0,0.0,0.0,0.0,0.0,0.0,0.0,0.0,0.0,0.0,0.0,0.0,0.0,0.0,0.0,0.0,0.0,0.0,0.0,0.0,0.0,0.0,0.0,0.0,0.0,0.0,0.0,0.0,0.0,0.0,0.0,0.0,0.0,0.0,0.0,0.0,0.0,0.0,0.0,0.0,0.0,0.0,0.0,0.0,0.0,0.0,0.0,0.0,0.0,0.0,0.0,0.0,0.0,0.0,0.0,0.0,0.0,0.0,0.0,0.0,0.0,0.0,0.0,0.0,0.0,0.0,0.0,0.0,0.0,0.0,0.0,0.0,0.0,0.2265,0.1921,0.1726,0.1687,0.1473,0.1134,0.0,0.0,0.0,0.0,0.0,0.0,0.0,0.0,0.0,0.0,0.0,0.0,0.0,0.0,0.0,0.0,0.0,0.0,0.0,0.0,0.0,0.0,0.0,0.0,0.0,0.0,0.0,0.0,0.0,0.0,0.0,0.0,0.0,0.0,0.0,0.0,0.0,0.0,0.0,0.0,0.0,0.0,0.0,0.0,0.0,0.0,0.0,0.0,0.0,0.0,0.0,0.0,0.0,0.0,0.0,0.0,0.0,0.0,0.0,0.0,0.0,0.0,0.0,0.0,0.0,0.0,0.0,0.0,0.0,0.0,0.0,0.0,0.0,0.0,0.0,0.0,0.0,0.0,0.0,0.0,0.0,0.0,0.0,0.0,0.0,0.0,0.0,0.0,0.0,0.0,0.0,0.0,0.0,0.0,0.0,0.0,0.0,0.0,0.0,0.0,0.0,0.0,0.0,0.0,0.0,0.0,0.0,0.0,0.0,0.3145,0.3288,0.3098,0.2522,0.2339,0.1942,0.0,0.0,0.0,0.0,0.0,0.0,0.0,0.0,0.0,0.0,0.0,0.0,0.0,0.0,0.0,0.0,0.0,0.0,0.0,0.0,0.0,0.0,0.0,0.0,0.0,0.0,0.0,0.0,0.0,0.0,0.0,0.0,0.0,0.0,0.0,0.0,0.0,0.0,0.0,0.0,0.0,0.0,0.0,0.0,0.0,0.0,0.0,0.0,0.0,0.0,0.0,0.0,0.0,0.0,0.0,0.0,0.0,0.0,0.0,0.0,0.0,0.0,0.0,0.0,0.0,0.0,0.0,0.0,0.0,0.0,0.0,0.0,0.0,0.0,0.0,0.0,0.0,0.0,0.0,0.0,0.0,0.0,0.0,0.0,0.0,0.0,0.0,0.0,0.0,0.0,0.0,0.0,0.0,0.0,0.0,0.0,0.0,0.0,0.0,0.0,0.0,0.0,0.0,0.0,0.0,0.0,0.0,0.0,0.3727,0.3966,0.4578,0.4461,0.3621,0.315,0.2546,0.0,0.0,0.0,0.0,0.0,0.0,0.0,0.0,0.0,0.0,0.0,0.0,0.0,0.0,0.0,0.0,0.0,0.0,0.0,0.0,0.0,0.0,0.0,0.0,0.0,0.0,0.0,0.0,0.0,0.0,0.0,0.0,0.0,0.0,0.0,0.0,0.0,0.0,0.0,0.0,0.0,0.0,0.0,0.0,0.0,0.0,0.0,0.0,0.0,0.0,0.0,0.0,0.0,0.0,0.0,0.0,0.0,0.0,0.0,0.0,0.0,0.0,0.0,0.0,0.0,0.0,0.0,0.0,0.0,0.0,0.0,0.0,0.0,0.0,0.0,0.0,0.0,0.0,0.0,0.0,0.0,0.0,0.0,0.0,0.0,0.0,0.0,0.0,0.0,0.0,0.0,0.0,0.0,0.0,0.0,0.0,0.0,0.0,0.0,0.0,0.0,0.0,0.0,0.0,0.0,0.0,0.0,0.0,0.498,0.4851,0.5704,0.5719,0.4882,0.3884,0.3045,0.0,0.0,0.0,0.0,0.0,0.0,0.0,0.0,0.0,0.0,0.0,0.0,0.0,0.0,0.0,0.0,0.0,0.0,0.0,0.0,0.0,0.0,0.0,0.0,0.0,0.0,0.0,0.0,0.0,0.0,0.0,0.0,0.0,0.0,0.0,0.0,0.0,0.0,0.0,0.0,0.0,0.0,0.0,0.0,0.0,0.0,0.0,0.0,0.0,0.0,0.0,0.0,0.0,0.0,0.0,0.0,0.0,0.0,0.0,0.0,0.0,0.0,0.0,0.0,0.0,0.0,0.0,0.0,0.0,0.0,0.0,0.0,0.0,0.0,0.0,0.0,0.0,0.0,0.0,0.0,0.0,0.0,0.0,0.0,0.0,0.0,0.0,0.0,0.0,0.0,0.0,0.0,0.0,0.0,0.0,0.0,0.0,0.0,0.0,0.0,0.0,0.0,0.0,0.0,0.0,0.0,0.0,0.0,0.5694,0.6461,0.6498,0.631,0.5881,0.4604,0.3604,0.0,0.0,0.0,0.0,0.0,0.0,0.0,0.0,0.0,0.0,0.0,0.0,0.0,0.0,0.0,0.0,0.0,0.0,0.0,0.0,0.0,0.0,0.0,0.0,0.0,0.0,0.0,0.0,0.0,0.0,0.0,0.0,0.0,0.0,0.0,0.0,0.0,0.0,0.0,0.0,0.0,0.0,0.0,0.0,0.0,0.0,0.0,0.0,0.2927,0.0,0.0,0.0,0.0,0.0,0.0,0.0,0.0,0.0,0.0,0.0,0.0,0.0,0.0,0.0,0.0,0.0,0.0,0.0,0.0,0.0,0.0,0.0,0.0,0.0,0.0,0.0,0.0,0.0,0.0,0.0,0.0,0.0,0.0,0.0,0.0,0.0,0.0,0.0,0.0,0.0,0.0,0.0,0.0,0.0,0.0,0.0,0.0,0.0,0.0,0.0,0.0,0.0,0.0,0.0,0.0,0.0,0.0,0.0,0.6689,0.7134,0.747,0.7388,0.6847,0.6,0.4926,0.0,0.0,0.0,0.0,0.0,0.0,0.0,0.0,0.0,0.0,0.0,0.0,0.0,0.0,0.0,0.0,0.0,0.0,0.0,0.0,0.0,0.0,0.0,0.0,0.0,0.0,0.0,0.0,0.0,0.0,0.0,0.0,0.0,0.0,0.0,0.0,0.0,0.0,0.0,0.0,0.0,0.0,0.0,0.0,0.0,0.0,0.0,0.0,0.0,0.0,0.0,0.0,0.0,0.0,0.0,0.0,0.0,0.0,0.0,0.0,0.0,0.0,0.0,0.0,0.0,0.0,0.0,0.0,0.0,0.0,0.0,0.0,0.0,0.0,0.0,0.0,0.0,0.0,0.0,0.0,0.0,0.0,0.0,0.0,0.0,0.0,0.0,0.0,0.0,0.0,0.0,0.0,0.0,0.0,0.0,0.0,0.0,0.0,0.0,0.0,0.0,0.0,0.0,0.0,0.0,0.0,0.0,0.6966,0.7708,0.7768,0.8435,0.8508,0.7834,0.7432,0.6344,0.4512,0.0,0.0,0.0,0.0,0.0,0.0,0.0,0.0,0.0,0.0,0.0,0.0,0.0,0.0,0.0,0.0,0.0,0.0,0.0,0.0,0.0,0.0,0.0,0.0,0.0,0.0,0.0,0.0,0.0,0.0,0.0,0.0,0.0,0.0,0.0,0.0,0.0,0.0,0.1612,0.2585,0.0,0.0,0.0,0.0,0.0,0.0,0.0,0.0,0.5297,0.0,0.0,0.0,0.0,0.0,0.0,0.0,0.0,0.0,0.0,0.0,0.0,0.0,0.0,0.0,0.0,0.0,0.0,0.0,0.0,0.0,0.0,0.0,0.0,0.0,0.0,0.0,0.0,0.0,0.0,0.0,0.0,0.0,0.0,0.0,0.0,0.0,0.0,0.0,0.0,0.0,0.0,0.0,0.0,0.0,0.0,0.0,0.0,0.0,0.0,0.0,0.0,0.0,0.0,0.0,0.0,0.693,0.7404,0.8263,0.9587,0.9089,0.8784,0.8744,0.786,0.6905,0.5947,0.0,0.0,0.0,0.0,0.0,0.0,0.0,0.0,0.0,0.0,0.0,0.0,0.0,0.0,0.0,0.0,0.0,0.0,0.0,0.0,0.0,0.0,0.0,0.0,0.0,0.0,0.0,0.0,0.0,0.0,0.0,0.0,0.0,0.0,0.0,0.0,0.0,0.0,0.0,0.329,0.4008,0.0,0.0,0.0,0.0,0.0,0.0,0.0,0.0,0.5656,0.0,0.0,0.0,0.0,0.0,0.0,0.0,0.0,0.0,0.0,0.0,0.0,0.0,0.0,0.0,0.0,0.0,0.0,0.0,0.0,0.0,0.0,0.0,0.0,0.0,0.0,0.0,0.0,0.0,0.0,0.0,0.0,0.0,0.0,0.0,0.0,0.0,0.0,0.0,0.0,0.0,0.0,0.0,0.0,0.0,0.0,0.0,0.0,0.0,0.0,0.0,0.0,0.0,0.0,0.0,0.7328,0.7782,0.8567,0.9766,0.929,0.9179,0.9542,0.8829,0.8016,0.0,0.0,0.0,0.0,0.0,0.0,0.0,0.0,0.0,0.0,0.0,0.0,0.0,0.0,0.0,0.0,0.0,0.0,0.0,0.0,0.0,0.0,0.0,0.0,0.0,0.0,0.0,0.0,0.0,0.0,0.0,0.0,0.0,0.0,0.0,0.0,0.0,0.0,0.0,0.0,0.4232,0.4859,0.5371,0.0,0.0,0.0,0.0,0.0,0.0,0.7207,0.6995,0.0,0.0,0.0,0.0,0.0,0.0,0.0,0.0,0.0,0.0,0.0,0.0,0.0,0.0,0.0,0.0,0.0,0.0,0.0,0.0,0.0,0.0,0.0,0.0,0.0,0.0,0.0,0.0,0.0,0.0,0.0,0.0,0.0,0.0,0.0,0.0,0.0,0.0,0.0,0.0,0.0,0.0,0.0,0.0,0.0,0.0,0.0,0.0,0.0,0.0,0.0,0.0,0.0,0.0,0.0,0.7605,0.8208,0.8921,0.9748,0.9409,0.953,1.0163,0.9667,0.8866,0.0,0.0,0.0,0.0,0.0,0.0,0.0,0.0,0.0,0.0,0.0,0.0,0.0,0.0,0.0,0.0,0.0,0.0,0.0,0.0,0.0,0.0,0.0,0.0,0.0,0.0,0.0,0.0,0.0,0.0,0.0,0.0,0.0,0.0,0.0,0.0,0.0,0.0,0.0,0.0,0.0,0.581,0.6455,0.6875,0.0,0.0,0.0,0.0,0.8403,0.8414,0.0,0.0,0.0,0.0,0.0,0.0,0.0,0.0,0.0,0.0,0.0,0.0,0.0,0.0,0.0,0.0,0.0,0.0,0.0,0.0,0.0,0.0,0.0,0.0,0.0,0.0,0.0,0.0,0.0,0.0,0.0,0.0,0.0,0.0,0.0,0.0,0.0,0.0,0.0,0.0,0.0,0.0,0.0,0.0,0.0,0.0,0.0,0.0,0.0,0.0,0.0,0.0,0.0,0.0,0.0,0.0,0.8168,0.8859,0.9606,1.0395,0.9655,0.9633,1.0492,0.9674,0.8772,0.0,0.0,0.0,0.0,0.0,0.0,0.0,0.0,0.0,0.0,0.0,0.0,0.0,0.0,0.0,0.0,0.0,0.0,0.0,0.0,0.0,0.0,0.0,0.0,0.0,0.0,0.0,0.0,0.0,0.0,0.0,0.0,0.0,0.0,0.0,0.0,0.0,0.0,0.0,0.0,0.0,0.679,0.7293,0.8057,0.8439,0.0,0.0,0.0,0.8803,0.8842,0.0,0.0,0.0,0.0,0.0,0.0,0.0,0.0,0.0,0.0,0.0,0.0,0.0,0.0,0.0,0.0,0.0,0.0,0.0,0.0,0.0,0.0,0.0,0.0,0.0,0.0,0.0,0.0,0.0,0.0,0.0,0.0,0.0,0.0,0.0,0.0,0.0,0.0,0.0,0.0,0.0,0.0,0.0,0.0,0.0,0.0,0.0,0.0,0.0,0.0,0.0,0.0,0.0,0.0,0.0,0.7694,0.9273,0.9881,1.0578,1.1328,1.0401,1.0113,1.0601,1.0024,0.9203,0.0,0.0,0.0,0.0,0.0,0.0,0.0,0.0,0.0,0.0,0.0,0.0,0.0,0.0,0.0,0.0,0.0,0.0,0.0,0.0,0.0,0.0,0.0,0.0,0.0,0.0,0.0,0.0,0.0,0.0,0.0,0.0,0.0,0.0,0.0,0.0,0.0,0.0,0.0,0.0,0.0,0.0,0.8245,0.8663,0.0,0.0,0.0,0.9706,0.981,0.0,0.0,0.0,0.0,0.0,0.0,0.0,0.0,0.0,0.0,0.0,0.0,0.0,0.0,0.0,0.0,0.0,0.0,0.0,0.0,0.0,0.0,0.0,0.0,0.0,0.0,0.0,0.0,0.0,0.0,0.0,0.0,0.0,0.0,0.0,0.0,0.0,0.0,0.0,0.0,0.0,0.0,0.0,0.0,0.0,0.0,0.0,0.0,0.0,0.0,0.0,0.0,0.0,0.0,0.0,0.0,0.0,1.0156,1.0718,1.1405,1.2186,1.1202,1.0788,1.1033,1.0791,0.0,0.0,0.0,0.0,0.0,0.0,0.0,0.0,0.0,0.0,0.0,0.0,0.0,0.0,0.0,0.0,0.0,0.0,0.0,0.0,0.0,0.0,0.0,0.0,0.0,0.0,0.0,0.2343,0.0,0.0,0.0,0.0,0.0,0.0,0.0,0.0,0.0,0.0,0.0,0.0,0.0,0.0,0.8451,0.9336,0.9629,0.9969,0.0,0.0,1.0555,1.0713,1.0553,1.041,0.0,0.0,0.0,0.0,0.0,0.0,0.0,0.0,0.0,0.0,0.0,0.0,0.0,0.0,0.0,0.0,0.0,0.0,0.0,0.0,0.0,0.0,0.0,0.0,0.0,0.0,0.0,0.0,0.0,0.0,0.0,0.0,0.0,0.0,0.0,0.0,0.0,0.0,0.0,0.0,0.0,0.0,0.0,0.0,0.0,0.0,0.0,0.0,0.0,0.0,0.0,0.0,0.0,0.0,0.0,1.0355,1.117,1.1998,1.2843,1.1885,1.1636,1.2244,1.218,1.1428,0.0,0.0,0.0,0.0,0.0,0.0,0.0,0.0,0.0,0.0,0.0,0.0,0.0,0.0,0.0,0.0,0.0,0.0,0.0,0.0,0.0,0.0,0.0,0.0,0.0,0.0,0.0,0.0,0.0,0.0,0.0,0.0,0.0,0.0,0.0,0.0,0.0,0.0,0.0,0.0,0.0,1.0061,1.0591,1.138,1.1753,0.0,0.0,1.2095,1.1202,1.1165,1.1125,1.0912,0.0,0.0,0.0,0.0,0.0,0.0,0.0,0.0,0.0,0.0,0.0,0.0,0.0,0.0,0.0,0.0,0.0,0.0,0.0,0.0,0.0,0.0,0.0,0.0,0.0,0.0,0.0,0.0,0.0,0.0,0.0,0.0,0.0,0.0,0.0,0.0,0.0,0.0,0.0,0.0,0.0,0.0,0.0,0.0,0.0,0.0,0.0,0.0,0.0,0.0,0.0,0.0,0.0,0.992,1.1492,1.2323,1.3128,1.3877,1.3255,1.2732,1.2381,1.2688,1.2081,0.0,0.0,0.0,0.0,0.0,0.0,0.0,0.0,0.0,0.0,0.0,0.0,0.0,0.0,0.0,0.0,0.0,0.0,0.0,0.0,0.0,0.0,0.0,0.0,0.0,0.0,0.0,0.0,0.5459,0.5861,0.6003,0.0,0.0,0.0,0.0,0.0,0.0,0.0,0.0,0.0,0.0,1.1545,1.2566,1.2895,0.0,0.0,1.3351,1.3148,1.2904,1.2625,1.2461,1.2598,1.2633,0.0,0.0,0.0,0.0,0.0,0.0,0.0,0.0,0.0,0.0,0.0,0.0,0.0,0.0,0.0,0.0,0.0,0.0,0.0,0.0,0.0,0.0,0.0,0.0,0.0,0.0,0.0,0.0,0.0,0.0,0.0,0.0,0.0,0.0,0.0,0.0,0.0,0.0,0.0,0.0,0.0,0.0,0.0,0.0,0.0,0.0,0.0,0.0,0.0,0.0,0.0,0.0,1.0575,1.2473,1.3147,1.3907,1.4746,1.4334,1.3783,1.3165,1.36,1.3121,0.0,0.0,0.0,0.0,0.0,0.0,0.0,0.0,0.0,0.0,0.0,0.0,0.0,0.0,0.0,0.0,0.0,0.0,0.0,0.0,0.0,0.0,0.0,0.0,0.0,0.0,0.0,0.0,0.6496,0.6845,0.6698,0.0,0.0,0.0,0.0,0.0,0.0,0.0,0.0,0.0,0.0,1.3032,1.4272,1.4373,1.4586,1.5266,1.4935,1.4574,1.453,1.4124,1.3837,1.4055,0.0,0.0,0.0,0.0,0.0,0.0,0.0,0.0,0.0,0.0,0.0,0.0,0.0,0.0,0.0,0.0,0.0,0.0,0.0,0.0,0.0,0.0,0.0,0.0,0.0,0.0,0.0,0.0,0.0,0.0,0.5237,0.0,0.0,0.0,0.0,0.0,0.0,0.0,0.0,0.0,0.0,0.0,0.0,0.0,0.0,0.0,0.0,0.0,0.0,0.0,0.0,0.0,0.0,1.113,1.316,1.3423,1.4141,1.5332,1.5,1.4757,1.471,1.5118,1.481,1.3727,0.0,0.0,0.0,0.0,0.0,0.0,0.0,0.0,0.0,0.0,0.0,0.0,0.0,0.0,0.0,0.0,0.0,0.0,0.0,0.0,0.0,0.0,0.0,0.0,0.0,0.0,0.7178,0.7567,0.7709,0.0,0.0,0.0,0.0,0.0,0.0,0.0,0.0,0.0,0.0,1.3828,1.4517,1.5541,1.5891,1.6148,1.6426,1.6667,1.6565,1.5876,1.5522,1.5269,0.0,0.0,0.0,0.0,0.0,0.0,0.0,0.0,0.0,0.0,0.0,0.0,0.0,0.0,0.0,0.0,0.0,0.0,0.0,0.0,0.0,0.0,0.0,0.0,0.0,0.0,0.0,0.6096,0.6747,0.0,0.0,0.0,0.0,0.0,0.0,0.0,0.0,0.0,0.0,0.0,1.0224,1.0423,0.0,0.0,0.0,0.0,0.0,0.0,0.0,0.0,0.0,0.0,0.0,0.0,1.2607,1.341,1.4423,1.5102,1.5381,1.5273,1.5068,1.4823,1.5195,1.4868,1.3784,0.0,0.0,0.0,0.0,0.0,0.0,0.0,0.0,0.0,0.0,0.0,0.0,0.0,0.0,0.0,0.0,0.0,0.0,0.0,0.0,0.0,0.0,0.0,0.0,0.0,0.766,0.0,0.0,0.0,0.0,0.0,0.0,0.0,0.0,0.0,0.0,0.0,1.3004,1.4715,1.5345,1.6043,1.7098,1.7373,1.753,0.0,0.0,0.0,0.0,0.0,0.0,0.0,0.0,0.0,0.0,0.0,0.0,0.0,0.0,1.5392,1.4328,1.4717,1.5238,1.5315,0.0,0.0,0.0,0.0,0.0,0.0,0.0,0.0,0.0,0.0,0.0,0.0,0.0,0.0,0.0,0.0,0.8641,0.0,0.0,0.0,0.0,0.0,0.0,0.0,0.0,1.1062,1.1427,1.1715,1.1763,1.1901,0.0,1.15,1.0569,0.0,0.0,0.0,0.0,0.0,0.0,0.0,0.0,1.3481,1.4319,1.5242,1.5811,1.6005,1.5835,1.559,1.5349,1.5379,1.4993,1.413,1.323,1.2073,0.0,0.0,0.0,0.0,0.0,0.0,0.0,0.0,0.0,0.0,0.0,0.0,0.0,0.0,0.0,0.0,0.0,0.0,0.0,0.0,0.0,0.0,0.0,0.9058,0.0,0.0,0.0,0.0,0.0,0.0,0.0,0.0,0.0,1.197,1.3222,1.458,1.5778,1.65,1.7218,1.8164,0.0,0.0,0.0,0.0,0.0,0.0,0.0,1.802,1.8359,1.8541,1.8562,1.8305,1.8094,1.8012,1.8165,0.0,0.0,1.632,1.6563,1.7103,1.7203,1.7989,1.8802,1.9279,2.0017,2.0826,0.0,0.0,0.0,0.0,0.0,0.0,0.0,0.0,0.926,0.9499,0.0,1.003,0.0,0.0,0.0,0.0,0.0,0.0,0.0,0.0,1.2271,1.242,1.265,1.2802,1.2778,1.265,1.2598,1.2428,1.2178,1.0912,0.0,0.0,0.0,0.0,0.0,0.0,1.3846,1.5781,1.5806,1.6208,1.7101,1.6595,1.6301,1.6301,1.5787,1.5321,1.4898,1.4268,1.3466,1.2493,1.0764,0.0,0.0,0.0,0.0,0.0,0.0,0.0,0.0,0.0,0.0,0.0,0.0,0.0,0.0,0.0,0.0,0.0,0.0,0.0,0.0,0.9825,0.0,0.0,0.0,0.0,0.0,0.0,0.0,0.0,0.0,0.0,1.3354,1.4693,1.5893,1.6419,0.0,0.0,0.0,0.0,1.9258,1.9762,1.9939,1.9991,1.9863,1.9422,1.9119,1.9254,0.0,0.0,2.0436,2.0753,2.0901,2.1309,2.1471,2.1185,1.9226,1.9252,1.9829,2.0622,2.1698,2.2453,2.2124,2.3013,2.4139,1.0494,0.0,0.0,0.0,0.0,0.945,0.9926,1.056,1.0804,1.1155,1.1595,1.1625,0.0,0.0,0.0,0.0,0.0,0.0,1.2689,1.4028,1.4133,1.4647,1.5425,1.5477,1.5621,1.5844,1.5213,1.5049,1.5273,1.4212,1.3134,1.2146,0.0,0.0,0.0,0.0,1.5749,1.5717,1.6395,1.687,1.7051,1.6563,1.65,1.6922,1.717,1.7059,1.6667,1.614,1.5352,1.4215,1.2643,0.0,0.0,0.0,0.0,0.0,0.0,0.0,0.0,0.0,0.0,0.0,0.0,0.0,0.0,0.0,0.0,0.0,0.0,0.0,1.0125,1.0828,1.1334,0.0,0.0,0.0,0.0,0.0,0.0,0.0,0.0,0.0,1.5494,1.5739,1.6431,0.0,0.0,1.8535,1.9395,1.9876,2.0228,2.0484,0.0,0.0,0.0,2.0822,2.0753,2.0887,2.0683,2.065,2.1034,2.1097,2.1146,2.1278,2.161,2.1743,2.1292,2.1541,2.2009,2.2361,2.3092,2.3712,2.3857,2.4501,2.518,1.2501,1.1731,1.0894,1.0723,1.1039,1.1232,1.1715,1.2296,1.2495,1.273,1.2984,1.3003,1.2833,1.2574,1.3035,0.0,0.0,0.0,1.4334,1.5511,1.5404,1.5706,1.6324,1.6313,1.644,1.6681,1.6365,1.6343,1.6598,1.6232,1.56,1.4762,0.0,0.0,1.5823,1.6976,1.7367,1.6946,1.7299,1.7456,1.7357,1.6913,1.6715,1.6849,1.7356,1.7503,1.7252,1.6736,1.6032,1.5124,1.3818,1.2461,0.0,0.0,0.0,0.0,0.0,0.0,0.0,0.0,0.0,0.0,0.0,0.69,0.7191,0.0,0.0,0.0,1.0276,1.0962,1.1479,1.1955,0.0,0.0,0.0,0.0,0.0,0.0,0.0,1.4548,1.5463,1.6338,1.7003,1.6955,1.729,1.8386,1.8731,1.9078,1.9632,0.0,2.0771,2.0771,2.1299,2.165,2.1565,2.1516,2.1565,2.1793,2.1746,2.1865,2.2272,2.2247,2.2283,2.2596,2.2833,2.3071,2.3401,2.3822,2.3861,2.326,2.3949,2.4787,2.5178,2.5712,2.6349,1.4143,1.3905,1.1983,1.1874,1.2969,1.3003,1.3408,1.4094,1.4104,1.4063,1.4012,1.4116,1.4016,1.3794,1.4176,0.0,0.0,1.5589,1.6031,1.6746,1.6266,1.6077,1.6162,1.6209,1.6173,1.6235,1.6701,1.688,1.6866,1.7343,1.7709,1.7899,1.6927,1.7141,1.8504,1.8503,1.8594,1.8884,1.832,1.8016,1.7926,1.7531,1.705,1.6482,1.6934,1.7164,1.7042,1.6598,1.6088,1.5546,1.4453,1.3475,1.2697,0.0,0.0,0.0,0.0,0.0,0.0,0.0,0.0,0.0,0.0,0.0,0.0,0.0,0.0,0.0,1.2421,0.0,1.2888,1.3169,0.0,0.0,0.0,1.3404,1.3741,1.4583,1.5291,1.5566,0.0,0.0,0.0,0.0,1.8355,1.8495,1.9153,1.963,1.9708,2.0522,2.1031,2.1006,2.1468,2.1902,2.1949,2.1841,2.1864,2.2194,2.2434,2.2862,2.3599,2.3749,2.3996,2.459,2.4623,2.4628,2.5462,2.564,2.5455,2.375,2.4646,2.5822,2.6132,2.6764,2.7449,1.4434,1.4048,1.3536,1.3504,1.3812,1.3838,1.3919,1.4104,1.4114,1.4086,1.4113,1.4573,1.5256,1.6016,1.5843,1.6314,1.713,1.6461,1.6854,1.8042,1.7643,1.7847,1.8538,1.8576,1.8576,1.8564,1.868,1.8764,1.8718,1.8348,1.8814,1.9964,1.9282,1.8794,1.8543,1.8788,1.8855,1.8767,1.8605,1.8385,1.8079,1.8334,1.8232,1.7694,1.8576,1.8503,1.7375,1.794,1.7835,1.6781,1.5174,1.4199,1.4107,1.2529,0.0,0.0,0.0,0.0,0.0,0.0,0.0,0.0,0.0,0.9612,0.9444,0.0,1.2387,0.0,1.3469,1.4002,1.3673,1.4343,0.0,0.0,1.5479,1.5769,1.6078,1.6395,1.6808,1.7322,1.7707,1.8141,1.8682,1.9056,1.9302,1.9457,1.962,2.0016,2.0698,2.1251,2.1722,2.1959,2.231,2.2623,2.2615,2.2615,2.2615,2.2729,2.3061,2.345,2.3837,2.4173,2.4497,2.4823,2.4859,2.4883,2.5079,2.5441,2.5621,2.5261,2.5912,2.6571,2.6602,2.7043,2.7562,1.4922,1.4679,1.4679,1.4669,1.466,1.4502,1.4504,1.4669,1.4679,1.4836,1.5119,1.5738,1.6424,1.7103,1.7213,1.7564,1.8105,1.7841,1.8151,1.8914,1.8671,1.8867,1.9394,1.942,1.942,1.942,1.9342,1.9328,1.9277,1.8868,1.9252,2.0314,1.998,1.9797,1.9826,2.0264,2.0243,1.9775,1.9253,1.8708,1.8109,1.8845,1.8925,1.83,1.922,1.9272,1.8295,1.8311,1.8032,1.7346,1.5898,1.4968,1.4775,1.3772,1.2924,0.0,0.0,0.0,0.0,0.0,0.0,0.0,0.0,0.0,0.0,0.0,1.3331,0.0,1.4686,1.5175,1.5057,1.5639,1.6101,1.6296,1.6612,1.6898,1.7106,1.7393,1.7705,1.8044,1.8346,1.8662,1.8977,1.9198,1.9434,1.9682,1.9862,2.0207,2.0833,2.1423,2.1841,2.1959,2.2417,2.2797,2.2888,2.3031,2.3127,2.315,2.3508,2.3915,2.4235,2.4359,2.4619,2.5075,2.504,2.5001,2.5288,2.5591,2.5866,2.6136,2.6504,2.6808,2.6891,2.7224,2.7678,1.5468,1.542,1.542,1.542,1.5381,1.5019,1.5135,1.5497,1.5526,1.5882,1.6553,1.7169,1.7543,1.7739,1.8277,1.8594,1.8744,1.9173,1.942,1.942,1.942,1.942,1.942,1.9447,1.9447,1.9447,1.9375,1.9358,1.9346,1.9274,1.9522,2.0001,2.0013,2.049,2.1488,2.1957,2.1827,2.1095,2.016,1.9243,1.8362,1.9312,1.9405,1.8632,1.9392,1.9654,1.9163,1.8196,1.7668,1.7502,1.6455,1.5646,1.5196,1.4966,1.4445,0.0,1.3385,0.0,0.0,0.0,0.0,0.0,0.0,0.0,0.0,1.3081,1.3872,1.5247,1.586,1.6211,1.6384,1.6644,1.6902,1.7113,1.7247,1.7395,1.7579,1.8025,1.8301,1.8301,1.8722,1.9013,1.9013,1.904,1.9225,1.9565,1.9939,2.0283,2.0573,2.1275,2.1746,2.152,2.2147,2.276,2.291,2.3172,2.3399,2.3428,2.3745,2.423,2.4695,2.4594,2.471,2.5359,2.5269,2.5211,2.577,2.5919,2.6118,2.6451,2.6674,2.6891,2.7101,2.7428,2.784,1.5825,1.542,1.542,1.542,1.541,1.5332,1.5611,1.6102,1.614,1.6754,1.7781,1.8001,1.838,1.8881,1.9117,1.9287,1.939,1.9397,1.9447,1.9565,1.9565,1.9565,1.9565,1.9565,1.9617,1.9733,1.9904,2.006,2.0167,2.0348,2.0722,2.1243,2.115,2.1416,2.2017,0.0,0.0,0.0,2.1037,2.0742,2.0138,2.0256,1.9998,1.9258,1.9814,0.0,1.8574,1.864,1.8384,1.7657,1.6343,0.0,0.0,0.0,0.0,0.0,0.0,0.0,0.0,0.0,0.0,0.0,1.3734,1.3378,1.324,1.4487,1.5579,1.61,1.6443,1.6354,1.5826,1.621,1.6703,1.722,1.7644,1.8122,1.8608,1.877,1.8843,1.8843,1.8939,1.9013,1.9013,1.9277,1.9512,1.9565,1.9939,2.0207,2.0258,2.1142,2.1831,2.2067,2.254,2.2941,2.291,2.3179,2.345,2.345,2.3739,2.4219,2.4675,2.497,2.5146,2.553,2.553,2.5476,2.5624,2.5885,2.6103,2.633,2.6691,2.7023,2.7227,2.743,2.7686,1.5661,0.0,1.5719,1.5864,0.0,1.6169,1.6641,1.7146,1.6557,1.6968,1.812,1.8548,1.8893,1.9208,1.9275,1.9368,1.9486,1.9486,1.9539,1.9604,1.9682,1.9682,1.9682,1.9682,1.9734,1.9823,2.0149,2.034,2.0298,2.0632,2.1037,2.1523,2.1434,2.1656,2.2173,2.2197,2.2034,2.1636,2.1728,2.1524,2.1031,2.1229,2.0956,2.0171,0.0,0.0,0.0,0.0,0.0,0.0,0.0,0.0,0.0,0.0,0.0,1.5303,1.5294,1.5264,1.5196,1.5013,1.505,1.5409,1.5525,1.528,1.4549,1.5478,1.6414,1.7167,1.7339,1.7356,1.7303,1.7538,1.782,1.8119,1.8384,1.8682,1.8934,1.9013,1.9013,1.9013,1.9013,1.9013,1.9013,1.9172,1.9277,1.933,1.963,1.9901,2.0003,2.0709,2.1444,2.1949,2.2356,2.2723,2.2986,2.3392,2.3696,2.3739,2.4141,2.4503,2.4625,2.4926,2.5182,2.5298,2.5301,2.532,2.5435,2.5605,2.5866,2.6366,2.6691,2.7054,2.7507,2.7612,2.7672,1.5719,1.5777,1.6255,1.6472,1.651,1.7006,1.7534,1.8038,0.0,0.0,0.0,1.8919,1.9208,1.9208,1.9249,1.9328,1.9406,1.9525,1.9539,1.9539,1.963,1.9682,1.9682,1.982,1.9858,1.9909,2.0397,2.0594,2.0456,2.084,2.1221,2.1512,2.1548,2.1765,2.2161,2.2197,2.2197,2.2197,2.2197,2.1981,2.1572,2.1969,2.1846,2.1101,2.1502,2.1565,2.1146,2.0156,1.9552,1.9288,1.7791,1.6864,1.6609,1.609,1.5723,1.5557,1.5605,1.5605,1.5644,1.5576,1.5693,1.6112,1.6585,1.665,1.613,1.643,1.7034,1.8011,1.8093,1.8255,1.8643,1.867,1.8735,1.8827,1.8854,1.8854,1.8999,1.9013,1.9013,1.9013,1.9013,1.9013,1.9013,1.9013,1.9013,1.904,1.9303,1.9526,1.9682,2.0334,2.1042,2.1589,2.21,2.2495,2.2926,2.3473,2.3861,2.3861,2.4287,2.463,2.46,2.4742,2.4906,2.5025,2.5005,2.5084,2.5201,2.532,2.5626,2.647,2.6725,2.6971,2.7686,2.7821,2.7757,1.6912,1.695,1.7024,1.709,1.709,1.7174,1.7534,1.812,1.8456,1.8709,1.8881,1.9117,1.9208,1.9223,1.9447,1.9486,1.942,1.942,1.9368,0.0,1.9275,1.9302,1.9287,1.9751,2.004,2.0195,2.0925,2.1323,2.1418,2.1783,2.2036,2.2065,2.2089,2.2113,2.2185,2.2197,2.2197,2.2197,2.2197,2.2161,2.2089,2.2161,2.2068,2.1768,2.1815,2.1575,2.0944,2.0652,2.0056,1.9017,1.8125,1.7356,1.6651,1.6353,1.6157,1.6026,1.6338,1.6512,1.6492,1.6191,1.587,1.5566,1.5604,1.6242,1.7609,1.7802,1.7902,1.8093,1.812,1.7902,1.7534,1.7534,1.7781,1.8213,1.8228,1.8429,1.8934,1.9013,1.9013,1.9013,1.9013,1.9013,1.9013,1.9013,1.9013,1.9013,1.9093,1.9225,1.9578,2.0283,2.087,2.1334,2.2072,2.2572,2.27,2.3113,2.3443,2.3508,2.3616,2.3937,2.4338,2.4518,2.4645,2.4946,2.4966,2.4985,2.5045,2.5288,2.5687,2.6298,2.6607,2.7018,2.758,2.7686,2.7774,1.7213,1.7257,1.7562,1.7699,1.7699,1.8038,1.8321,1.8602,1.8881,1.9013,1.9025,1.9143,1.9182,1.9105,1.9225,1.9251,1.9184,1.9275,1.9302,1.9302,1.9394,1.958,1.9863,2.0109,2.0407,2.077,2.1345,2.1647,2.1726,2.2134,2.2278,2.2197,2.2197,2.2197,2.2197,2.2197,2.2197,2.2197,2.2197,2.2197,2.2197,2.2197,2.2154,2.2073,2.2061,2.1614,2.0717,2.0359,1.9721,1.8825,1.7662,1.6932,1.6821,1.6176,1.5772,1.5743,1.5908,1.5985,1.5995,1.6138,1.6104,1.5902,1.6197,1.6708,1.7534,1.7628,1.7902,1.8509,1.8563,1.8483,1.8201,1.8174,1.8282,1.8536,1.8602,1.8709,1.8934,1.9013,1.9013,1.9013,1.9013,1.9013,1.9013,1.9013,1.9013,1.9013,1.9013,1.9093,1.9265,1.9747,2.0258,2.066,2.1345,2.1894,2.2105,2.2634,2.3031,2.3224,2.3384,2.3595,2.3909,2.4051,2.4359,2.4645,2.4742,2.4822,2.4946,2.5127,2.546,2.5888,2.6281,2.669,2.7129,2.7428,2.7704,1.7479,1.7672,1.8093,1.8309,1.8348,1.8801,1.9013,1.9013,1.9013,1.9013,1.9025,1.9105,1.9105,1.9013,1.9025,1.9025,1.9013,1.9158,1.9275,1.9368,1.9486,1.9823,2.033,2.0467,2.0825,2.137,2.1797,2.1996,2.2016,2.2274,2.234,2.2197,2.2197,2.2197,2.2197,2.2197,2.2197,2.2197,2.2197,2.2197,2.2197,2.2197,2.2197,2.2197,2.2197,2.1749,2.0759,2.0171,1.9522,1.8729,1.7289,1.6581,1.6769,1.5938,1.542,1.542,1.542,1.542,1.5439,1.5835,1.6159,1.6312,1.6726,1.7118,1.7368,1.7285,1.7644,1.859,1.8762,1.8801,1.8907,1.896,1.9013,1.9013,1.9013,1.8987,1.9013,1.9013,1.9013,1.9013,1.9013,1.9013,1.9013,1.9013,1.9013,1.9013,1.9013,1.9013,1.904,1.9277,1.9591,1.9965,2.0572,2.1151,2.1448,2.2011,2.2466,2.2754,2.3024,2.3201,2.3355,2.3631,2.3988,2.4374,2.4518,2.4661,2.4906,2.5005,2.5224,2.5629,2.5943,2.6264,2.6822,2.7243,2.7587,1.8321,1.8827,1.8881,1.8907,1.8907,1.8999,1.9013,1.9013,1.9013,1.9013,1.9013,1.9025,1.9025,1.9025,1.9117,1.9105,1.9052,1.9263,1.9328,1.9273,1.9354,1.9715,2.0293,2.0736,2.1252,2.1834,2.2364,2.2555,2.2524,2.2445,2.2328,2.2197,2.2197,2.2197,2.2197,2.2197,2.2197,2.2197,2.2197,2.2197,2.2197,2.2197,2.2197,2.2197,2.2197,2.1914,2.1242,2.0761,1.9943,1.8908,1.7668,1.6794,1.6389,1.5749,1.542,1.543,1.542,1.542,1.543,1.5439,1.5739,1.6226,1.6363,1.6842,1.7788,1.7473,1.7462,1.8038,1.8174,1.8456,1.8934,1.8987,1.9013,1.9013,1.9013,1.9013,1.9013,1.9013,1.9013,1.9013,1.9013,1.9013,1.9013,1.9013,1.9013,1.9013,1.9013,1.9013,1.9013,1.9066,1.9119,1.933,1.9978,2.0572,2.0771,2.1251,2.1636,2.1756,2.2077,2.248,2.2867,2.3113,2.3414,2.3988,2.4416,2.4503,2.4786,2.5005,2.5146,2.5438,2.5721,2.598,2.6707,2.718,2.7494,1.8774,1.9013,1.9013,1.9013,1.9013,1.9013,1.9013,1.9013,1.9013,1.9013,1.9013,1.9013,1.9013,1.9013,1.9052,1.909,1.9143,1.9249,1.9538,1.9941,2.0019,2.0504,2.1308,2.1514,2.1905,2.2321,2.2476,2.2512,2.2494,2.2359,2.2247,2.2197,2.2197,2.2197,2.2197,2.2197,2.2197,2.2197,2.1757,2.1757,2.2154,2.2197,2.2197,2.2197,2.2197,2.1594,2.0517,2.0132,1.9342,1.7879,1.7056,1.6487,1.6197,1.594,1.5791,1.5801,1.5801,1.5918,1.6172,1.5947,1.6028,1.6497,1.6547,1.6678,1.6863,1.6686,1.6843,1.7479,1.7902,1.824,1.8456,1.8789,1.9013,1.9013,1.9013,1.9013,1.9013,1.9013,1.9013,1.9013,1.9013,1.9013,1.9013,1.9013,1.9013,1.9013,1.9013,1.9013,1.9013,1.9013,1.9013,1.904,1.9422,1.9721,1.9978,2.0409,2.0784,2.1031,2.1348,2.1789,2.2109,2.2449,2.2791,2.3377,2.3717,2.4015,2.4251,2.4594,2.4871,2.5169,2.55,2.5817,2.6607,2.6906,2.7149,1.9013,1.9013,1.9013,1.9013,1.9013,1.9013,1.9013,1.9013,1.9013,1.9013,1.9013,1.9013,1.9013,1.9011,1.9143,1.9296,1.9415,1.9626,2.0069,2.07,2.0767,2.125,2.2027,2.2089,2.2298,2.2604,2.2543,2.2451,2.2389,2.2309,2.2247,2.2197,2.2197,2.2197,2.2197,2.2197,2.2092,2.1862,2.1356,2.1262,2.1545,2.1491,2.1584,2.1827,2.1584,2.0842,1.9663,1.9208,1.8393,1.7094,1.6405,1.6004,1.5919,1.6016,1.6144,1.6261,1.6281,1.6359,1.6543,1.624,1.6234,1.6544,1.6614,1.6557,1.6407,1.6257,1.6372,1.6885,1.7368,1.7699,1.8375,1.8735,1.8987,1.9013,1.9013,1.9013,1.9013,1.9013,1.9013,1.9013,1.9013,1.9013,1.9013,1.9013,1.9013,1.9013,1.9013,1.9013,1.9013,1.9013,1.9013,1.9013,1.9013,1.9146,1.9408,1.9785,2.0093,2.0321,2.066,2.1042,2.1372,2.1769,2.224,2.2838,2.3128,2.3537,2.3985,2.4313,2.463,2.4846,2.5169,2.5615,2.6158,2.647,2.6808,1.9013,1.8987,1.9013,1.9013,1.9013,1.9013,1.9013,1.9013,1.9013,1.9013,1.9013,1.9013,1.9013,1.9062,1.9516,1.9815,2.0004,2.0517,2.0915,2.1194,2.1387,2.1684,2.2064,2.2101,2.231,2.2684,2.2678,2.2586,2.2389,2.2389,2.2328,2.2216,2.2197,2.2197,2.2197,2.2197,2.1862,2.1368,2.1121,2.0835,2.031,1.9827,2.0046,2.09,2.0133,1.9574,1.9251,1.8016,1.7183,1.7092,1.6095,1.5488,1.5488,1.587,1.624,1.6611,1.6648,1.6514,1.6261,1.6193,1.6257,1.6369,1.6521,1.6582,1.6998,1.6641,1.6424,1.64,1.6563,1.7172,1.8483,1.8789,1.8934,1.8934,1.8999,1.9013,1.9013,1.9013,1.9013,1.9013,1.9013,1.9013,1.9013,1.9013,1.9013,1.9013,1.9013,1.9013,1.9013,1.9013,1.9013,1.9013,1.9013,1.9013,1.9078,1.9356,1.9578,1.9785,2.0093,2.0434,2.0894,2.1358,2.1846,2.236,2.2838,2.3304,2.3815,2.4209,2.4549,2.4791,2.5033,2.5427,2.5707,2.6246,2.6607,1.8429,1.8456,1.8854,1.9013,1.9013,1.9013,1.9013,1.9013,1.9013,1.9013,1.9013,1.9013,1.9013,1.9047,1.9925,2.0036,1.9721,2.0363,2.0866,2.1256,2.1747,2.2222,2.2603,2.27,2.271,2.2702,2.2708,2.2567,2.2309,2.2278,2.2247,2.2197,2.2197,2.2197,2.2197,2.2197,2.2061,2.1753,2.1024,2.0695,2.0684,1.9168,1.8686,1.9499,1.9465,1.9111,1.8547,1.8224,1.7658,1.6628,1.6194,1.5806,1.5478,1.582,1.63,1.6638,1.6697,1.6777,1.6926,1.6936,1.7069,1.736,1.7382,1.7278,1.7315,1.7141,1.693,1.6764,1.6746,1.7191,1.7656,1.8186,1.8429,1.8467,1.8774,1.8996,1.9013,1.9013,1.9013,1.9013,1.9013,1.9013,1.9013,1.9013,1.9013,1.9013,1.9013,1.9013,1.9013,1.9013,1.9013,1.9013,1.9013,1.9013,1.9013,1.9093,1.9239,1.933,1.9565,1.9811,2.0207,2.0721,2.1224,2.1561,2.2161,2.2883,2.3326,2.4036,2.4364,2.4625,2.4875,2.5056,2.5253,2.5762,2.6141,1.8402,1.8456,1.8827,1.9013,1.9013,1.9013,1.9013,1.9013,1.9013,1.9013,1.9013,1.9013,1.9013,1.9158,2.0004,2.0136,1.9731,2.0628,2.1341,2.1762,2.2264,2.2638,2.2847,2.2939,2.2818,2.2616,2.2555,2.2402,2.2228,2.2197,2.2197,2.2197,2.2197,2.2197,2.2197,2.2197,2.2123,2.1729,2.114,2.095,2.0784,1.933,1.8458,1.8643,1.891,1.8517,1.744,1.7559,1.7172,1.6195,1.5997,1.5895,1.5684,1.5928,1.63,1.6638,1.6697,1.6755,1.6975,1.709,1.7217,1.7363,1.751,1.7461,1.7197,1.7178,1.7068,1.693,1.689,1.6948,1.7114,1.7579,1.7957,1.8081,1.8511,1.885,1.8927,1.8915,1.8941,1.8996,1.9013,1.9013,1.9013,1.9013,1.9013,1.9013,1.9013,1.9013,1.9013,1.9013,1.9013,1.9013,1.9013,1.9013,1.9013,1.9066,1.9093,1.9172,1.9198,1.9382,1.9656,2.0156,2.056,2.0845,2.1455,2.2235,2.2979,2.3732,2.4145,2.4426,2.4584,2.4755,2.4977,2.5234,2.5649,1.896,1.8895,1.8987,1.9013,1.9013,1.9013,1.9013,1.9013,1.9013,1.9013,1.9013,1.9013,1.9013,1.9146,1.9746,2.001,2.0265,2.1448,2.2243,2.2613,2.2797,2.2859,2.2878,2.28,2.2647,2.242,2.2278,2.2228,2.2197,2.2197,2.2197,2.2197,2.2197,2.2197,2.2197,2.2202,2.1879,2.1441,2.1502,2.1211,2.0248,1.9878,1.9244,1.8479,1.8341,1.7707,1.6305,1.59,1.5831,1.5674,1.5557,1.5684,1.6046,1.6144,1.631,1.6629,1.6726,1.6582,1.643,1.6823,1.7083,1.7093,1.6845,1.7357,1.731,1.7157,1.7048,1.6914,1.6913,1.686,1.6967,1.7441,1.7825,1.79,1.8291,1.8611,1.8691,1.8759,1.8851,1.8973,1.9013,1.9013,1.9013,1.9013,1.9013,1.9013,1.9013,1.9013,1.9013,1.9013,1.9013,1.9013,1.9013,1.9013,1.9013,1.9013,1.9013,1.9013,1.904,1.9146,1.9408,1.9811,2.0105,2.0472,2.1368,2.2182,2.3229,2.3903,2.4158,2.4387,2.446,2.4586,2.4706,2.4966,2.5256,1.8762,1.8456,1.8827,1.9013,1.9013,1.9013,1.9013,1.9013,1.9013,1.9013,1.9013,1.9013,1.9013,1.9134,1.9607,2.0053,2.0487,2.1348,2.1885,2.2204,2.2752,2.2957,2.2909,2.286,2.2665,2.242,2.2278,2.2197,2.2197,2.2197,2.2197,2.2197,2.2197,2.2197,2.2234,2.2534,2.2364,2.1673,2.1413,2.0876,1.9922,1.8956,1.8249,1.7874,1.7454,1.6967,1.6553,1.668,1.6862,1.6982,1.6564,1.6356,1.6463,1.6523,1.656,1.6746,1.7282,1.7866,1.8287,1.8875,1.9375,1.9781,2.0,1.9743,1.9157,1.8987,1.8533,1.7806,1.7837,1.7973,1.78,1.8369,1.8517,1.7807,1.8185,1.8403,1.8246,1.8244,1.8518,1.8928,1.9013,1.9013,1.9013,1.9013,1.9013,1.9013,1.9013,1.9013,1.9013,1.9013,1.9013,1.9013,1.9013,1.9013,1.9013,1.9013,1.9013,1.9013,1.9013,1.9013,1.9225,1.9512,1.9785,2.0373,2.1274,2.2213,2.3277,2.3945,2.4182,2.4649,2.4962,2.4869,2.4611,2.4801,2.5246,1.8762,1.8483,1.8854,1.9013,1.9013,1.9013,1.9013,1.9013,1.9013,1.9013,1.9013,1.9013,1.9013,1.9122,1.9567,1.9961,2.0346,2.0892,2.1389,2.1785,2.2455,2.2805,2.28,2.2726,2.2574,2.2371,2.2259,2.2197,2.2197,2.2197,2.2197,2.2209,2.2421,2.2498,2.2491,2.2689,2.2474,2.186,2.146,2.0852,2.0031,1.9233,1.8595,1.8173,1.7769,1.7576,1.7573,1.7603,1.7573,1.7352,1.6918,1.6697,1.6697,1.6687,1.6792,1.7175,1.762,1.8245,1.8986,1.9528,2.0292,2.0785,2.0994,2.0818,2.0205,2.0096,1.9594,1.9004,1.9191,1.9231,1.8753,1.9188,1.9166,1.8374,1.8511,1.8434,1.7978,1.7776,1.803,1.8456,1.8655,1.8762,1.8934,1.9013,1.9013,1.9013,1.9013,1.9013,1.9013,1.9013,1.9013,1.9013,1.9013,1.9013,1.9013,1.9013,1.9013,1.9013,1.9013,1.9013,1.9093,1.9434,1.9734,2.0514,2.1377,2.2147,2.3168,2.3815,2.424,2.4798,2.5315,2.5326,2.5197,2.5172,2.5467,1.8987,1.9013,1.9013,1.9013,1.9013,1.9013,1.9013,1.9013,1.9013,1.9013,1.9013,1.9013,1.9062,1.9182,1.9615,1.9904,2.0025,2.0653,2.1267,2.1751,2.225,2.2543,2.2659,2.2512,2.2402,2.2247,2.2228,2.2197,2.2197,2.2197,2.2221,2.233,2.2714,2.3003,2.3002,2.2813,2.2478,2.1969,2.1561,2.089,2.004,2.0213,1.9947,1.8839,1.8708,1.8665,1.8565,1.817,1.7617,1.6943,1.6914,1.6902,1.6814,1.6775,1.7139,1.7707,1.7812,1.8281,1.8819,1.9585,1.9942,2.018,2.0631,2.0259,2.0475,2.0473,2.0339,2.0009,2.0519,2.052,1.9793,2.0079,2.0037,1.9454,1.9062,1.8543,1.775,1.7445,1.7667,1.7957,1.8093,1.8309,1.8854,1.8907,1.9013,1.9013,1.9013,1.9013,1.9013,1.9013,1.9013,1.9013,1.9013,1.9013,1.9013,1.9013,1.9013,1.9013,1.9013,1.9013,1.9066,1.9382,1.991,2.0681,2.137,2.2142,2.3011,2.378,2.436,2.4832,2.5261,2.5653,2.5804,2.5731,2.5787,1.9013,1.9013,1.9013,1.9013,1.9013,1.9013,1.9013,1.9013,1.9013,1.9013,1.9013,1.9013,1.9218,1.9591,1.9724,2.0217,2.0771,2.1072,2.1596,2.2122,2.2292,2.242,2.2451,2.242,2.2328,2.2228,2.2197,2.2197,2.2197,2.2234,2.2445,2.2763,2.2935,2.322,2.3457,2.3246,2.2807,2.2068,2.1185,2.0367,1.959,1.9039,1.8616,1.8367,1.8293,1.8293,1.8269,1.811,1.7939,1.7725,1.7676,1.7642,1.7584,1.7584,1.7721,1.7959,1.8261,1.8721,1.951,2.0343,2.1107,2.181,2.2037,2.2474,2.1722,2.1632,2.1237,2.0885,2.1256,2.1577,2.1131,2.1557,2.1403,2.0206,1.939,1.8582,1.7861,1.7767,1.7793,1.7562,1.8201,1.8483,1.8521,1.8721,1.896,1.8987,1.9013,1.9013,1.9013,1.9013,1.9013,1.9013,1.9013,1.9013,1.9013,1.9013,1.9013,1.9013,1.9013,1.9013,1.9146,1.9382,2.0048,2.0823,2.1302,2.1987,2.3119,2.4106,2.4513,2.4799,2.5766,2.6377,2.6167,2.6054,2.6266,1.9013,1.9013,1.9013,1.9013,1.9013,1.9013,1.9013,1.9013,1.9013,1.9013,1.9013,1.9013,1.9167,1.9432,1.9456,1.9889,2.0646,2.0718,2.1186,2.1946,2.22,2.2328,2.2359,2.2359,2.2278,2.2197,2.2197,2.233,2.2498,2.2522,2.2811,2.3203,2.3235,2.3485,2.396,2.291,2.2519,2.2123,2.0983,1.9848,1.9174,1.8708,1.8295,1.81,1.8008,1.8008,1.8008,1.8008,1.8008,1.7998,1.7998,1.8008,1.8008,1.8008,1.8134,1.8371,1.8644,1.9111,1.9841,2.0582,2.1207,2.1885,2.2479,2.2511,2.2205,2.2185,2.1825,2.15,2.2089,2.2053,2.1668,2.1993,2.1618,2.0519,1.9821,1.9,1.7894,1.77,1.7573,1.7479,1.7765,1.8294,1.8093,1.8429,1.8709,1.8907,1.9013,1.9013,1.9013,1.9013,1.9013,1.9013,1.9013,1.9013,1.9013,1.9013,1.9013,1.9013,1.9013,1.9013,1.9251,1.946,2.0013,2.0681,2.1212,2.1891,2.2896,2.3797,2.4338,2.4966,2.6176,2.6684,2.638,2.6411,2.6635,1.9013,1.9013,1.9013,1.9013,1.9013,1.9013,1.9013,1.9013,1.9013,1.9013,1.9013,1.9013,1.9083,1.9071,1.9314,1.9432,1.9961,2.0278,2.0868,2.1656,2.2187,2.2503,2.2717,2.2363,2.2313,2.233,2.2282,2.2606,2.2931,2.3095,2.3384,2.3718,2.3639,2.392,2.4129,2.2639,2.2032,2.2306,2.0926,1.9881,1.9453,1.9225,1.8931,1.8529,1.8259,1.8236,1.8202,1.8168,1.81,1.8008,1.8008,1.8008,1.8008,1.8008,1.8236,1.8687,1.8862,1.9273,1.9889,2.014,2.053,2.1165,2.1334,2.1463,2.2061,2.2185,2.2137,2.2005,2.2654,2.2462,2.1933,2.1668,2.1307,2.0724,2.0565,1.982,1.8508,1.7666,1.7341,1.7257,1.7285,1.7672,1.7902,1.8201,1.8402,1.8934,1.9013,1.9013,1.9013,1.9013,1.9013,1.9013,1.9013,1.9013,1.9013,1.9013,1.9013,1.9013,1.9013,1.9066,1.9382,1.9656,2.0003,2.0475,2.0925,2.152,2.2265,2.3078,2.3794,2.4575,2.5432,2.5983,2.6327,2.6623,2.6888,1.9013,1.9013,1.9013,1.9013,1.9013,1.9013,1.9013,1.9013,1.9025,1.9062,1.9037,1.9037,1.9263,1.9612,1.9664,1.9913,2.0466,2.0875,2.1681,2.2722,2.2892,2.3244,2.3337,2.2761,2.2505,2.2746,2.2811,2.3132,2.3517,2.3673,2.3902,2.4258,2.4254,2.455,2.4731,2.3488,2.2963,2.2902,2.1403,2.0427,2.02,1.9942,1.9737,1.9441,1.8944,1.8754,1.8777,1.8777,1.8519,1.8168,1.8076,1.8168,1.81,1.811,1.8269,1.8462,1.8854,1.911,1.9408,2.0226,2.0933,2.1071,2.1526,2.2018,2.2135,2.2197,2.2197,2.2282,2.2654,2.277,2.2498,2.2197,2.1769,2.1301,2.1123,2.0751,1.9653,1.8916,1.8228,1.7683,1.7984,1.8483,1.8186,1.8483,1.8709,1.896,1.9013,1.9013,1.9013,1.9013,1.9013,1.9013,1.9013,1.9013,1.9013,1.9013,1.9013,1.9013,1.9013,1.9146,1.946,1.9656,1.9952,2.0271,2.0638,2.1254,2.1913,2.2361,2.3046,2.3861,2.4625,2.5164,2.5729,2.6342,2.6703,1.9013,1.9013,1.9013,1.9013,1.9013,1.9013,1.9013,1.9047,1.9302,1.936,1.942,1.9612,1.9913,2.0153,2.0201,2.0466,2.1079,2.1801,2.2476,2.3083,2.3313,2.3627,2.3748,2.3345,2.3144,2.3372,2.3384,2.3652,2.4001,2.4169,2.4398,2.4773,2.4541,2.4672,2.4861,2.356,2.2937,2.3118,2.1821,2.0764,2.0446,2.0543,2.0096,1.9606,1.8954,1.8664,1.8944,1.9011,1.9021,1.8954,1.8988,1.8798,1.862,1.8798,1.8954,1.9088,1.9287,1.9507,1.9802,2.0161,2.0741,2.1103,2.1482,2.1819,2.2061,2.2197,2.2197,2.2234,2.2414,2.2606,2.2594,2.2414,2.2017,2.1825,2.1548,2.1139,2.0562,1.9853,1.8919,1.8075,1.8131,1.8267,1.8375,1.8602,1.8789,1.8907,1.9013,1.9013,1.9013,1.9013,1.9013,1.9013,1.9013,1.9013,1.9013,1.9013,1.9013,1.9013,1.9013,1.9225,1.9512,1.9656,1.9824,2.0245,2.0711,2.1012,2.159,2.1984,2.238,2.305,2.3737,2.4365,2.4938,2.5462,2.5786,1.9107,1.9119,1.9191,1.9266,1.9239,1.9302,1.93,1.9348,1.9736,1.9913,1.9973,2.043,2.0478,2.0557,2.0545,2.0899,2.1488,2.2156,2.2645,2.3216,2.3619,2.3969,2.4126,2.4174,2.4147,2.4102,2.4017,2.4237,2.4587,2.4709,2.4959,2.5192,2.4803,2.4898,2.4743,2.3283,2.2662,2.3402,2.2189,2.1012,2.0551,2.0796,2.0387,1.9474,1.8721,1.8563,1.8944,1.9177,1.9408,1.9901,2.0226,1.9987,1.9661,1.9704,2.0096,2.0063,2.0139,2.0226,2.0302,2.0495,2.0848,2.1242,2.1325,2.1588,2.2061,2.2197,2.2197,2.2197,2.227,2.227,2.2197,2.2209,2.2197,2.2089,2.1753,2.1524,2.126,2.0567,1.9673,1.8698,1.8484,1.8494,1.8429,1.8509,1.8682,1.8854,1.8934,1.9013,1.9013,1.9013,1.9013,1.9013,1.9013,1.9013,1.9013,1.9013,1.9013,1.9013,1.9013,1.9251,1.9539,1.9785,2.0042,2.0459,2.0885,2.1122,2.1361,2.1713,2.2095,2.2451,2.2923,2.3612,2.4143,2.459,2.4908,1.9676,1.9712,2.0157,2.0322,2.0334,2.0334,2.0286,2.037,2.0394,2.0466,2.0502,2.0562,2.0682,2.067,2.0634,2.0906,2.1518,2.2025,2.2636,2.3449,2.3905,2.4356,2.4964,2.5085,2.5251,2.5332,2.503,2.4915,2.5302,2.5613,2.5507,2.5558,2.5548,2.5618,2.5126,2.4246,2.3368,2.3466,2.248,2.1561,2.0933,2.0677,2.0613,1.9737,1.9077,1.8944,1.9144,1.9573,1.9704,1.9408,2.0912,2.1198,2.0805,2.0387,2.0291,2.0355,2.072,2.0944,2.0976,2.1474,2.18,2.1987,2.1956,2.1956,2.2166,2.2197,2.2197,2.2197,2.2197,2.2197,2.2197,2.2197,2.2197,2.2161,2.2089,2.1861,2.1512,2.1127,2.0617,1.9678,1.9226,1.8801,1.8682,1.8655,1.8789,1.8934,1.896,1.9013,1.9013,1.9013,1.9013,1.9013,1.9013,1.9013,1.9013,1.9013,1.9013,1.9013,1.904,1.9225,1.9526,1.9926,2.0271,2.0635,2.0883,2.1082,2.1309,2.1551,2.1776,2.211,2.2488,2.2916,2.3424,2.3978,2.4368,2.0213,2.0237,2.0502,2.0598,2.0581,2.0581,2.0581,2.0658,2.0899,2.1002,2.1103,2.1272,2.1416,2.1428,2.1428,2.1596,2.1807,2.2279,2.2844,2.3559,2.4204,2.4768,2.5416,2.5611,2.5851,2.5918,2.5687,2.5534,2.5721,2.5816,2.5863,2.5793,2.5875,2.5671,2.5129,2.4359,2.3805,2.3333,2.2587,2.1663,2.0613,2.0063,1.9606,1.9868,1.9507,1.9398,2.002,1.9933,2.0355,2.0709,2.1273,2.1557,2.1526,2.14,2.1178,2.121,2.1431,2.1632,2.1663,2.203,2.2135,2.2166,2.2197,2.2197,2.2197,2.2197,2.2197,2.2197,2.2197,2.2197,2.2197,2.2197,2.2197,2.2197,2.2197,2.2065,2.1837,2.1572,2.1103,2.0538,1.9957,1.9413,1.896,1.8934,1.8987,1.9013,1.9013,1.9013,1.9013,1.9013,1.9013,1.9013,1.9013,1.9013,1.9013,1.9013,1.9066,1.9093,1.9119,1.9303,1.9526,1.9914,2.0308,2.0684,2.0883,2.1129,2.1253,2.1505,2.1619,2.1759,2.2151,2.2535,2.2907,2.3326,2.3739,2.0737,2.0779,2.0887,2.0935,2.0935,2.0935,2.0959,2.1019,2.1392,2.156,2.162,2.1957,2.2137,2.2173,2.2161,2.2204,2.2283,2.2814,2.3145,2.3684,2.4427,2.4997,2.545,2.5697,2.6097,2.6223,2.6186,2.6166,2.6002,2.605,2.6002,2.5918,2.5906,2.5554,2.4893,2.4225,2.3608,2.3031,2.2443,2.1529,2.0302,1.9187,1.8888,1.9933,1.954,1.977,2.0484,2.0516,2.0848,2.1336,2.16,2.1632,2.2061,2.2197,2.2197,2.2197,2.2197,2.2197,2.2166,2.2166,2.2197,2.2197,2.2197,2.2197,2.2197,2.2197,2.2197,2.2197,2.2197,2.2197,2.2197,2.2197,2.2197,2.2197,2.2197,2.2161,2.2065,2.1861,2.1584,2.1043,2.0506,2.0001,1.9507,1.9013,1.9013,1.9013,1.9013,1.9013,1.9013,1.9013,1.9013,1.9013,1.9013,1.9013,1.9013,1.9013,1.9119,1.9251,1.933,1.9434,1.9656,1.9939,2.0334,2.0746,2.108,2.1313,2.1385,2.1385,2.1482,2.1626,2.1855,2.2137,2.2537,2.2834,2.3142,2.1308,2.1356,2.1801,2.2005,2.1969,2.1945,2.1969,2.1969,2.2017,2.2089,2.2029,2.2137,2.2197,2.2197,2.2197,2.2247,2.2438,2.2775,2.3273,2.3882,2.4493,2.5186,2.5881,2.6092,2.627,2.6408,2.643,2.6339,2.6223,2.6327,2.6327,2.6173,2.5775,2.5415,2.4881,2.4043,2.3384,2.2979,2.245,2.1769,2.0944,2.0128,1.9933,2.0031,2.0063,2.0139,2.0581,2.0752,2.1135,2.1293,2.1831,2.203,2.2197,2.2197,2.2197,2.2197,2.2197,2.2197,2.2197,2.2197,2.2197,2.2197,2.2197,2.2197,2.2197,2.2197,2.2197,2.2197,2.2197,2.2197,2.2197,2.2197,2.2197,2.2197,2.2197,2.2197,2.2149,2.2101,2.1825,2.1572,2.1031,2.049,1.9985,1.9459,1.9013,1.9013,1.9025,1.9025,1.9013,1.9013,1.9013,1.9013,1.9013,1.9013,1.9013,1.9013,1.9172,1.9382,1.946,1.9565,1.9837,2.0118,2.0446,2.0845,2.1153,2.1361,2.1385,2.1385,2.1385,2.1482,2.1626,2.1902,2.2184,2.2426,2.2709,2.1849,2.1861,2.2089,2.2197,2.2197,2.2197,2.2197,2.2197,2.2197,2.2197,2.2197,2.2197,2.2197,2.2197,2.2197,2.2278,2.2481,2.2898,2.3207,2.3832,2.4506,2.5203,2.5465,2.6036,2.643,2.6465,2.6487,2.6452,2.6396,2.643,2.6443,2.6286,2.5765,2.517,2.4657,2.3773,2.3082,2.2515,2.1906,2.1443,2.104,2.0516,2.0291,2.0645,2.0645,2.088,2.1146,2.104,2.1368,2.1526,2.1788,2.18,2.2061,2.2197,2.2197,2.2197,2.2197,2.2197,2.2197,2.2197,2.2197,2.2197,2.2197,2.2197,2.2197,2.2197,2.2197,2.2197,2.2197,2.2197,2.2197,2.2197,2.2197,2.2197,2.2197,2.2197,2.2197,2.2185,2.2053,2.1825,2.1584,2.1091,2.0574,2.0049,1.9567,1.9363,1.923,1.9074,1.9049,1.9013,1.9013,1.9013,1.9013,1.9013,1.9013,1.9013,1.9225,1.9408,1.9512,1.9694,2.0016,2.0346,2.0635,2.0771,2.0957,2.1129,2.1313,2.1385,2.1385,2.1385,2.1385,2.1674,2.1983,2.2319,2.2663,2.2197,2.2197,2.2197,2.2197,2.2197,2.2197,2.2197,2.2197,2.2197,2.2197,2.2197,2.2197,2.2228,2.2247,2.2278,2.2371,2.2567,2.3108,2.3275,2.3729,2.4493,2.5126,2.5465,2.6013,2.6487,2.6487,2.6487,2.6487,2.6487,2.6487,2.6465,2.6393,2.5439,2.4851,2.4194,2.3408,2.2703,2.2282,2.1781,2.1526,2.1356,2.0987,2.1051,2.1242,2.142,2.1632,2.1987,2.1757,2.1757,2.1894,2.1757,2.1831,2.2123,2.2197,2.2197,2.2197,2.2197,2.2197,2.2197,2.2197,2.2197,2.2197,2.2197,2.2197,2.2197,2.2197,2.2197,2.2197,2.2197,2.2197,2.2197,2.2197,2.2197,2.2197,2.2197,2.2197,2.2197,2.2185,2.2185,2.2041,2.1861,2.1765,2.1235,2.0658,2.0217,1.9793,1.9507,1.9218,1.911,1.9074,1.9025,1.9037,1.9025,1.9025,1.9013,1.9066,1.9277,1.9486,1.9617,1.9888,2.0296,2.0498,2.0684,2.0784,2.0908,2.1093,2.1399,2.1385,2.1385,2.1385,2.141,2.1554,2.1803,2.2203,2.2503,2.2197,2.2197,2.2197,2.2197,2.2197,2.2197,2.2197,2.2197,2.2197,2.2197,2.2197,2.2197,2.2247,2.2328,2.2359,2.2512,2.2848,2.2916,2.3268,2.3848,2.4569,2.5039,2.5448,2.5925,2.6449,2.6487,2.6487,2.6487,2.6487,2.644,2.6361,2.6111,2.5091,2.4439,2.3806,2.3096,2.2565,2.2247,2.2018,2.2018,2.2018,2.1894,2.1937,2.1999,2.2061,2.2154,2.2197,2.2049,2.2018,2.2197,2.203,2.1968,2.2166,2.2197,2.2197,2.2197,2.2197,2.2197,2.2197,2.2197,2.2197,2.2197,2.2197,2.2197,2.2197,2.2197,2.2197,2.2197,2.2197,2.2197,2.2197,2.2197,2.2197,2.2197,2.2197,2.2197,2.2197,2.2197,2.2185,2.2185,2.2101,2.1969,2.1897,2.132,2.0791,2.0382,1.9977,1.9676,1.929,1.9194,1.9086,1.9049,1.9052,1.9052,1.9013,1.9172,1.9486,1.9708,1.9862,2.0232,2.066,2.0784,2.0883,2.1031,2.1215,2.1313,2.1423,2.1458,2.1482,2.141,2.1458,2.1626,2.1841,2.2194,2.2333,2.2197,2.2197,2.2197,2.2197,2.2197,2.2197,2.2197,2.2197,2.2197,2.2197,2.2197,2.2197,2.2216,2.2278,2.2278,2.2463,2.2788,2.3028,2.3257,2.3636,2.4223,2.4773,2.5244,2.5699,2.6122,2.6411,2.6474,2.6248,2.595,2.6133,2.5719,2.5186,2.4657,2.4205,2.3573,2.2921,2.2561,2.2432,2.2309,2.2216,2.2309,2.2216,2.2197,2.2197,2.2197,2.2197,2.2197,2.2197,2.2197,2.2197,2.2197,2.2197,2.2197,2.2197,2.2197,2.2197,2.2197,2.2197,2.2197,2.2197,2.2197,2.2197,2.2197,2.2197,2.2197,2.2197,2.2197,2.2197,2.2197,2.2197,2.2197,2.2197,2.2197,2.2197,2.2197,2.2197,2.2197,2.2197,2.2197,2.2185,2.2185,2.2137,2.2077,2.1981,2.1464,2.0959,2.0555,2.0133,1.9748,1.9456,1.9408,1.9365,1.938,1.9388,1.9349,1.9543,1.9771,1.9952,2.0156,2.0485,2.0858,2.1129,2.124,2.1385,2.1385,2.1385,2.1434,2.1554,2.1602,2.1578,2.165,2.1783,2.1996,2.2254,2.2394,2.2197,2.2197,2.2197,2.2197,2.2197,2.2197,2.2197,2.2197,2.2197,2.2197,2.2197,2.2197,2.2228,2.2247,2.2278,2.2402,2.2721,2.296,2.3034,2.3499,2.4091,2.4623,2.5026,2.5523,2.621,2.6411,2.6248,2.5971,2.5686,2.5752,2.5153,2.4618,2.4332,2.402,2.3513,2.288,2.2555,2.2586,2.2463,2.2309,2.2389,2.2278,2.2197,2.2197,2.2197,2.2197,2.2197,2.2197,2.2197,2.2197,2.2197,2.2197,2.2197,2.2197,2.2197,2.2197,2.2197,2.2197,2.2197,2.2197,2.2197,2.2197,2.2197,2.2197,2.2197,2.2197,2.2197,2.2197,2.2197,2.2197,2.2197,2.2197,2.2197,2.2197,2.2197,2.2197,2.2197,2.2197,2.2197,2.2197,2.2197,2.2197,2.2173,2.212,2.1783,2.1265,2.0742,2.0406,2.0201,1.9997,1.9937,1.9884,1.9858,1.983,1.9775,2.0009,2.0211,2.0398,2.0579,2.0674,2.0981,2.1318,2.145,2.1385,2.1385,2.1385,2.1496,2.1643,2.1725,2.1769,2.1888,2.2091,2.2254,2.2486,2.2661,2.2197,2.2197,2.2197,2.2197,2.2197,2.2197,2.2197,2.2197,2.2197,2.2197,2.2197,2.2197,2.2259,2.2328,2.2328,2.2463,2.2647,2.2831,2.2928,2.3225,2.3891,2.4543,2.5121,2.5624,2.6047,2.626,2.6034,2.5686,2.5435,2.5239,2.4553,2.4003,2.3867,2.381,2.3447,2.2979,2.2733,2.269,2.2512,2.242,2.2389,2.2278,2.2197,2.2197,2.2197,2.2197,2.2197,2.2197,2.2197,2.2197,2.2197,2.2197,2.2197,2.2197,2.2197,2.2197,2.2197,2.2197,2.2197,2.2197,2.2197,2.2197,2.2216,2.2216,2.2216,2.2228,2.2216,2.2247,2.2228,2.2197,2.2197,2.2197,2.2197,2.2197,2.2197,2.2197,2.2197,2.2197,2.2197,2.2216,2.2216,2.2216,2.2216,2.2156,2.1958,2.1506,2.0959,2.0694,2.0639,2.0538,2.0478,2.031,2.0289,2.0444,2.0443,2.0511,2.0654,2.0847,2.1211,2.1514,2.1605,2.1844,2.1836,2.1583,2.1868,2.2289,2.2031,2.1746,2.2221,2.2708,2.2376,2.244,2.2578,2.2669,2.2775,2.2197,2.2197,2.2197,2.2197,2.2197,2.2197,2.2197,2.2197,2.2197,2.2197,2.2197,2.2197,2.2228,2.2247,2.2309,2.2432,2.2647,2.2543,2.2635,2.3105,2.3567,2.4098,2.4725,2.5234,2.5611,2.5774,2.5598,2.5084,2.4494,2.4556,2.4148,2.3573,2.3441,2.3335,2.3218,2.2958,2.2878,2.2878,2.2665,2.2451,2.2555,2.234,2.2197,2.2197,2.2197,2.2197,2.2197,2.2197,2.2197,2.2197,2.2197,2.2197,2.2197,2.2197,2.2197,2.2197,2.2197,2.2197,2.2197,2.2197,2.2197,2.2216,2.2278,2.2309,2.2328,2.2328,2.2328,2.2309,2.2278,2.2247,2.2197,2.2197,2.2197,2.2197,2.2197,2.2197,2.2197,2.2197,2.2197,2.2247,2.2247,2.2309,2.2328,2.2402,2.2238,2.2311,2.1871,2.1491,2.1364,2.115,2.1036,2.0761,2.071,2.0973,2.12,2.1555,2.1832,2.2115,2.2522,2.2935,2.2938,2.2649,2.2829,2.2915,2.3061,2.3195,2.2975,2.2913,2.3469,2.3755,2.3245,2.2883,2.2933,2.2856,2.2706,2.2197,2.2197,2.2197,2.2197,2.2197,2.2197,2.2197,2.2197,2.2197,2.2197,2.2197,2.2197,2.2216,2.2247,2.2278,2.2414,2.2678,2.2635,2.2635,2.3067,2.328,2.396,2.4575,2.4845,2.5259,2.5385,2.5121,2.4607,2.4104,2.4167,2.3785,2.3265,2.3095,2.3158,2.3072,2.303,2.2987,2.2987,2.2775,2.2678,2.2647,2.2494,2.2278,2.2247,2.2216,2.2197,2.2197,2.2197,2.2197,2.2197,2.2197,2.2197,2.2197,2.2197,2.2197,2.2197,2.2259,2.2247,2.2278,2.2278,2.2309,2.2402,2.242,2.2389,2.242,2.2451,2.2494,2.2463,2.2402,2.2371,2.234,2.234,2.234,2.2309,2.2463,2.2463,2.2463,2.2482,2.2512,2.2512,2.2451,2.2482,2.2561,2.2604,2.2604,2.2738,2.2877,2.2503,2.2191,2.2033,2.1905,2.174,2.1827,2.2325,2.267,2.2931,2.3205,2.3379,2.3696,2.3979,2.378,2.3445,2.3845,2.4101,2.3909,2.3814,2.3963,2.4155,2.4319,2.4212,2.383,2.3536,2.3344,2.329,2.3227,2.2197,2.2197,2.2197,2.2197,2.2197,2.2197,2.2197,2.2197,2.2197,2.2197,2.2197,2.2197,2.2247,2.2328,2.2359,2.2494,2.2678,2.2818,2.2878,2.3081,2.341,2.4123,2.4487,2.4732,2.4883,2.4921,2.4707,2.4217,2.3904,2.3609,2.3283,2.3133,2.3095,2.3095,2.3095,2.3078,2.3078,2.3017,2.2878,2.28,2.2739,2.2543,2.2389,2.2309,2.2278,2.2216,2.2197,2.2197,2.2197,2.2197,2.2197,2.2197,2.2197,2.2197,2.2197,2.2216,2.2328,2.2359,2.2451,2.2451,2.2653,2.2775,2.2763,2.2561,2.2482,2.2604,2.2678,2.2678,2.2616,2.2647,2.2647,2.2616,2.2586,2.2726,2.2909,2.2939,2.2927,2.2957,2.2987,2.2927,2.2763,2.2793,2.2987,2.3017,2.3185,2.3547,2.3754,2.3816,2.3489,2.3221,2.3145,2.3145,2.3347,2.3895,2.4135,2.4108,2.43,2.4448,2.441,2.457,2.4357,2.4419,2.4827,2.4935,2.4495,2.4467,2.4907,2.4889,2.4704,2.4608,2.4875,2.4412,2.4312,2.4288,2.4322,2.2197,2.2197,2.2197,2.2197,2.2197,2.2197,2.2197,2.2197,2.2197,2.2197,2.2197,2.2197,2.2259,2.2259,2.2328,2.2512,2.2665,2.2818,2.2969,2.3142,2.3315,2.3735,2.4054,2.4268,2.4368,2.4343,2.413,2.3766,2.3421,2.3095,2.3095,2.3108,2.3095,2.3095,2.3095,2.3095,2.3095,2.3047,2.2878,2.283,2.2739,2.2543,2.2389,2.2309,2.234,2.2247,2.2228,2.2197,2.2197,2.2197,2.2197,2.2197,2.2197,2.2197,2.2216,2.234,2.2389,2.2451,2.2647,2.3017,2.3292,2.3471,2.3682,2.3429,2.3125,2.2939,2.3012,2.3078,2.3078,2.3108,2.3108,2.3065,2.3095,2.3245,2.3454,2.356,2.359,2.3666,2.3666,2.3564,2.3416,2.3547,2.3679,2.359,2.3813,2.4323,2.461,2.4709,2.4681,2.4381,2.4208,2.4179,2.431,2.4711,2.4894,2.4888,2.519,2.5435,2.5353,2.5367,2.5505,2.5626,2.5897,2.581,2.5503,2.5698,2.6104,2.5931,2.5552,2.6225,2.6486,2.5794,2.5286,2.5321,2.5331,2.2197,2.2197,2.2197,2.2197,2.2197,2.2197,2.2197,2.2197,2.2197,2.2197,2.2216,2.2278,2.2321,2.2445,2.2543,2.2684,2.2848,2.2939,2.303,2.3078,2.3095,2.3521,2.3803,2.3803,2.3853,2.3841,2.374,2.3421,2.3158,2.3095,2.3095,2.3095,2.3095,2.3095,2.3095,2.3095,2.3095,2.3017,2.2909,2.28,2.2665,2.2543,2.2359,2.2309,2.2328,2.2278,2.2228,2.2197,2.2197,2.2197,2.2197,2.2197,2.2197,2.2197,2.2216,2.2309,2.2463,2.2714,2.3047,2.3412,2.3771,2.415,2.4483,2.4281,2.4092,2.3914,2.3914,2.3901,2.3767,2.3649,2.3607,2.3577,2.3695,2.3826,2.4047,2.4237,2.4323,2.441,2.4368,2.4297,2.4355,2.4483,2.4496,2.4352,2.4467,2.5021,2.5328,2.5453,2.5425,2.5273,2.5105,2.5049,2.5119,2.5301,2.5453,2.5632,2.5905,2.6065,2.5993,2.6095,2.6431,2.64,2.6254,2.6431,2.6637,2.668,2.6582,2.6692,2.6602,2.7144,2.7273,2.6586,2.6205,2.6426,2.6446,2.2197,2.2197,2.2197,2.2197,2.2197,2.2197,2.2197,2.2197,2.2197,2.2216,2.2247,2.2359,2.2494,2.2616,2.2726,2.2866,2.2969,2.306,2.3078,2.3095,2.3095,2.3371,2.3496,2.3464,2.3514,2.3559,2.3484,2.3221,2.3145,2.3095,2.3095,2.3108,2.3095,2.3095,2.3095,2.3095,2.317,2.3315,2.3156,2.3009,2.2812,2.2604,2.242,2.2359,2.2309,2.2216,2.2197,2.2197,2.2197,2.2197,2.2197,2.2197,2.2197,2.2197,2.2197,2.2309,2.2525,2.2848,2.3245,2.3607,2.4208,2.4582,2.4881,2.5035,2.5021,2.4652,2.4538,2.4496,2.4381,2.4352,2.4323,2.4295,2.4381,2.4567,2.4766,2.4922,2.5035,2.5119,2.5134,2.5106,2.5161,2.5259,2.5231,2.5119,2.5217,2.5743,2.5825,2.5907,2.6042,2.5961,2.5838,2.5743,2.5742,2.581,2.6109,2.6299,2.6527,2.6618,2.6498,2.6498,2.6618,2.6566,2.6457,2.6618,2.6794,2.6794,2.6765,2.682,2.6858,2.7041,2.7093,2.6989,2.7001,2.718,2.73,2.2197,2.2197,2.2197,2.2197,2.2197,2.2197,2.2197,2.2197,2.2197,2.2278,2.2328,2.2389,2.2512,2.2708,2.2769,2.2878,2.2969,2.3078,2.3108,2.3095,2.3095,2.317,2.3308,2.3233,2.3221,2.3208,2.3158,2.3095,2.3095,2.3095,2.3108,2.3133,2.3158,2.3195,2.3271,2.3271,2.3409,2.3722,2.3611,2.3387,2.3089,2.2788,2.2586,2.2475,2.2364,2.2314,2.2271,2.2228,2.2197,2.2197,2.2197,2.2197,2.2197,2.2216,2.2278,2.2389,2.2726,2.3078,2.3454,2.393,2.4538,2.5049,2.5412,2.5892,2.5907,2.5356,2.5077,2.5063,2.5063,2.5091,2.5091,2.5063,2.5091,2.53,2.5508,2.5619,2.5729,2.5811,2.5851,2.5906,2.5933,2.5933,2.5906,2.5947,2.6096,2.6084,2.5948,2.6002,2.642,2.6474,2.6285,2.6204,2.6163,2.627,2.6566,2.6686,2.6753,2.6794,2.6659,2.6727,2.6794,2.6712,2.6618,2.6686,2.6794,2.6794,2.6794,2.6794,2.6858,2.6989,2.7052,2.7,2.7229,2.745,2.7655,2.2197,2.2197,2.2197,2.2197,2.2197,2.2197,2.2197,2.2197,2.2278,2.2328,2.242,2.2482,2.2635,2.28,2.2848,2.2878,2.2987,2.3047,2.3095,2.3095,2.3095,2.3095,2.3095,2.3095,2.312,2.3108,2.3108,2.3095,2.3145,2.3133,2.3158,2.3421,2.3496,2.3584,2.3735,2.386,2.3948,2.4311,2.4229,2.4022,2.3692,2.3492,2.3144,2.2969,2.2729,2.2638,2.2364,2.2309,2.2432,2.2653,2.2884,2.3203,2.328,2.3357,2.3339,2.3416,2.3594,2.3754,2.4076,2.4481,2.5049,2.5591,2.5961,2.6459,2.6527,2.6069,2.6015,2.6015,2.6015,2.6042,2.6028,2.6001,2.6015,2.6138,2.6218,2.6272,2.6326,2.6353,2.6379,2.6365,2.6406,2.6433,2.6406,2.6379,2.65,2.65,2.634,2.626,2.6621,2.6794,2.6659,2.6566,2.6472,2.6513,2.6686,2.6753,2.6779,2.6794,2.6794,2.6794,2.6794,2.6794,2.6794,2.6794,2.6794,2.6794,2.6794,2.6794,2.6806,2.691,2.7,2.7078,2.7357,2.753,2.7605,2.2197,2.2197,2.2197,2.2197,2.2197,2.2197,2.2197,2.2228,2.234,2.245,2.2566,2.2733,2.2813,2.2909,2.2987,2.3047,2.3108,2.3108,2.3095,2.3095,2.3095,2.3095,2.3095,2.3095,2.3095,2.3183,2.3246,2.3283,2.3333,2.3471,2.376,2.4054,2.4192,2.4299,2.4662,2.4808,2.477,2.487,2.4901,2.4951,2.4803,2.4546,2.3988,2.3558,2.3303,2.3065,2.2773,2.2659,2.2844,2.3248,2.3671,2.3933,2.4095,2.4153,2.4211,2.4239,2.4284,2.4654,2.5091,2.5245,2.5852,2.6367,2.6633,2.6727,2.6727,2.6779,2.6727,2.6727,2.6727,2.67,2.67,2.6686,2.67,2.67,2.6727,2.6727,2.6753,2.6753,2.6753,2.6738,2.6753,2.6753,2.6753,2.6753,2.6779,2.6779,2.6794,2.6794,2.6794,2.6794,2.6727,2.6686,2.6659,2.6727,2.6794,2.6794,2.6794,2.6794,2.6794,2.6794,2.6794,2.6794,2.6794,2.6794,2.6794,2.682,2.6794,2.6794,2.6832,2.691,2.691,2.6974,2.6974,2.7167,2.7331,2.2197,2.2197,2.2197,2.2197,2.2197,2.2197,2.2197,2.2228,2.224,2.2539,2.296,2.3048,2.3045,2.2891,2.28,2.2965,2.3384,2.3296,2.3158,2.3095,2.3321,2.3221,2.3311,2.3634,2.3231,2.3321,2.3609,2.3816,2.3835,2.4186,2.4519,2.4625,2.4625,2.47,2.4763,2.4913,2.5146,2.5335,2.5556,2.5607,2.5732,2.5361,2.4611,2.4295,2.4173,2.4046,2.3842,2.3519,2.3723,2.4019,2.4367,2.4547,2.4697,2.4811,2.4811,2.4924,2.498,2.5064,2.5398,2.5522,2.5961,2.626,2.6394,2.65,2.6594,2.6794,2.6753,2.6753,2.6753,2.6753,2.6753,2.6753,2.6753,2.6753,2.6779,2.6779,2.6779,2.6779,2.6779,2.6779,2.6779,2.6779,2.6779,2.6779,2.6779,2.6794,2.6794,2.6794,2.6794,2.6794,2.6794,2.6794,2.6794,2.6794,2.6794,2.6794,2.6794,2.6794,2.6794,2.6794,2.6794,2.6794,2.6794,2.6794,2.682,2.682,2.682,2.691,2.6937,2.7,2.6858,2.6806,2.6832,2.7026,2.7382]}]]